﻿<?xml version="1.0" encoding="utf-8"?><gpx creator="Garmin Desktop App" version="1.1" xsi:schemaLocation="http://www.topografix.com/GPX/1/1 http://www.topografix.com/GPX/1/1/gpx.xsd http://www.garmin.com/xmlschemas/WaypointExtension/v1 http://www8.garmin.com/xmlschemas/WaypointExtensionv1.xsd http://www.garmin.com/xmlschemas/TrackPointExtension/v1 http://www.garmin.com/xmlschemas/TrackPointExtensionv1.xsd http://www.garmin.com/xmlschemas/GpxExtensions/v3 http://www8.garmin.com/xmlschemas/GpxExtensionsv3.xsd http://www.garmin.com/xmlschemas/ActivityExtension/v1 http://www8.garmin.com/xmlschemas/ActivityExtensionv1.xsd http://www.garmin.com/xmlschemas/AdventuresExtensions/v1 http://www8.garmin.com/xmlschemas/AdventuresExtensionv1.xsd http://www.garmin.com/xmlschemas/PressureExtension/v1 http://www.garmin.com/xmlschemas/PressureExtensionv1.xsd http://www.garmin.com/xmlschemas/TripExtensions/v1 http://www.garmin.com/xmlschemas/TripExtensionsv1.xsd http://www.garmin.com/xmlschemas/TripMetaDataExtensions/v1 http://www.garmin.com/xmlschemas/TripMetaDataExtensionsv1.xsd http://www.garmin.com/xmlschemas/ViaPointTransportationModeExtensions/v1 http://www.garmin.com/xmlschemas/ViaPointTransportationModeExtensionsv1.xsd http://www.garmin.com/xmlschemas/CreationTimeExtension/v1 http://www.garmin.com/xmlschemas/CreationTimeExtensionsv1.xsd http://www.garmin.com/xmlschemas/AccelerationExtension/v1 http://www.garmin.com/xmlschemas/AccelerationExtensionv1.xsd http://www.garmin.com/xmlschemas/PowerExtension/v1 http://www.garmin.com/xmlschemas/PowerExtensionv1.xsd http://www.garmin.com/xmlschemas/VideoExtension/v1 http://www.garmin.com/xmlschemas/VideoExtensionv1.xsd" xmlns="http://www.topografix.com/GPX/1/1" xmlns:xsi="http://www.w3.org/2001/XMLSchema-instance" xmlns:wptx1="http://www.garmin.com/xmlschemas/WaypointExtension/v1" xmlns:gpxtrx="http://www.garmin.com/xmlschemas/GpxExtensions/v3" xmlns:gpxtpx="http://www.garmin.com/xmlschemas/TrackPointExtension/v1" xmlns:gpxx="http://www.garmin.com/xmlschemas/GpxExtensions/v3" xmlns:trp="http://www.garmin.com/xmlschemas/TripExtensions/v1" xmlns:adv="http://www.garmin.com/xmlschemas/AdventuresExtensions/v1" xmlns:prs="http://www.garmin.com/xmlschemas/PressureExtension/v1" xmlns:tmd="http://www.garmin.com/xmlschemas/TripMetaDataExtensions/v1" xmlns:vptm="http://www.garmin.com/xmlschemas/ViaPointTransportationModeExtensions/v1" xmlns:ctx="http://www.garmin.com/xmlschemas/CreationTimeExtension/v1" xmlns:gpxacc="http://www.garmin.com/xmlschemas/AccelerationExtension/v1" xmlns:gpxpx="http://www.garmin.com/xmlschemas/PowerExtension/v1" xmlns:vidx1="http://www.garmin.com/xmlschemas/VideoExtension/v1">

  <metadata>
    <link href="http://www.garmin.com">
      <text>Garmin International</text>
    </link>
    <time>2016-06-16T14:50:13Z</time>
    <bounds maxlat="46.441713999956846" maxlon="8.405665447935462" minlat="46.420494876801968" minlon="8.34572377614677" />
  </metadata>

  <trk>
    <name>rifugio somma lombardo</name>
    <extensions>
      <gpxx:TrackExtension>
        <gpxx:DisplayColor>Yellow</gpxx:DisplayColor>
      </gpxx:TrackExtension>
    </extensions>
    <trkseg>
      <trkpt lat="46.425136607140303" lon="8.405215926468372">
        <ele>1755.5</ele>
        <time>2015-08-08T07:39:55Z</time>
      </trkpt>
      <trkpt lat="46.425146497786045" lon="8.405208298936486">
        <ele>1755.5</ele>
        <time>2015-08-08T07:39:56Z</time>
      </trkpt>
      <trkpt lat="46.42516284249723" lon="8.405197989195585">
        <ele>1755.02</ele>
        <time>2015-08-08T07:40:01Z</time>
      </trkpt>
      <trkpt lat="46.425171559676528" lon="8.40517963282764">
        <ele>1755.02</ele>
        <time>2015-08-08T07:40:03Z</time>
      </trkpt>
      <trkpt lat="46.425211876630783" lon="8.405091958120465">
        <ele>1756.47</ele>
        <time>2015-08-08T07:40:10Z</time>
      </trkpt>
      <trkpt lat="46.425282033160329" lon="8.404966145753861">
        <ele>1757.4300000000001</ele>
        <time>2015-08-08T07:40:20Z</time>
      </trkpt>
      <trkpt lat="46.42530064098537" lon="8.404910825192928">
        <ele>1757.9100000000001</ele>
        <time>2015-08-08T07:40:24Z</time>
      </trkpt>
      <trkpt lat="46.425356967374682" lon="8.404752155765891">
        <ele>1759.8299999999999</ele>
        <time>2015-08-08T07:40:37Z</time>
      </trkpt>
      <trkpt lat="46.425386387854815" lon="8.404728686437011">
        <ele>1759.8299999999999</ele>
        <time>2015-08-08T07:40:41Z</time>
      </trkpt>
      <trkpt lat="46.425478085875511" lon="8.404671857133508">
        <ele>1761.27</ele>
        <time>2015-08-08T07:40:53Z</time>
      </trkpt>
      <trkpt lat="46.425560312345624" lon="8.404607819393277">
        <ele>1763.2</ele>
        <time>2015-08-08T07:41:06Z</time>
      </trkpt>
      <trkpt lat="46.425614124163985" lon="8.404484437778592">
        <ele>1765.5999999999999</ele>
        <time>2015-08-08T07:41:20Z</time>
      </trkpt>
      <trkpt lat="46.425646143034101" lon="8.404387123882771">
        <ele>1767.04</ele>
        <time>2015-08-08T07:41:31Z</time>
      </trkpt>
      <trkpt lat="46.425672965124249" lon="8.404328785836697">
        <ele>1768.96</ele>
        <time>2015-08-08T07:41:41Z</time>
      </trkpt>
      <trkpt lat="46.425725854933262" lon="8.404285199940205">
        <ele>1771.3699999999999</ele>
        <time>2015-08-08T07:41:54Z</time>
      </trkpt>
      <trkpt lat="46.425771787762642" lon="8.404199620708823">
        <ele>1772.8099999999999</ele>
        <time>2015-08-08T07:42:05Z</time>
      </trkpt>
      <trkpt lat="46.42582786269486" lon="8.404087889939547">
        <ele>1773.29</ele>
        <time>2015-08-08T07:42:15Z</time>
      </trkpt>
      <trkpt lat="46.425831131637096" lon="8.40409099124372">
        <ele>1773.29</ele>
        <time>2015-08-08T07:42:20Z</time>
      </trkpt>
      <trkpt lat="46.425793496891856" lon="8.403952186927199">
        <ele>1773.77</ele>
        <time>2015-08-08T07:42:32Z</time>
      </trkpt>
      <trkpt lat="46.425780085846782" lon="8.403889238834381">
        <ele>1774.25</ele>
        <time>2015-08-08T07:42:42Z</time>
      </trkpt>
      <trkpt lat="46.425754437223077" lon="8.403764264658094">
        <ele>1776.1700000000001</ele>
        <time>2015-08-08T07:42:54Z</time>
      </trkpt>
      <trkpt lat="46.425752425566316" lon="8.403541138395667">
        <ele>1778.0999999999999</ele>
        <time>2015-08-08T07:43:09Z</time>
      </trkpt>
      <trkpt lat="46.425757203251123" lon="8.403451535850763">
        <ele>1779.0599999999999</ele>
        <time>2015-08-08T07:43:16Z</time>
      </trkpt>
      <trkpt lat="46.425766171887517" lon="8.403407949954271">
        <ele>1779.54</ele>
        <time>2015-08-08T07:43:19Z</time>
      </trkpt>
      <trkpt lat="46.425768183544278" lon="8.403236288577318">
        <ele>1781.46</ele>
        <time>2015-08-08T07:43:32Z</time>
      </trkpt>
      <trkpt lat="46.425761310383677" lon="8.403089689090848">
        <ele>1782.9000000000001</ele>
        <time>2015-08-08T07:43:43Z</time>
      </trkpt>
      <trkpt lat="46.425757203251123" lon="8.402973432093859">
        <ele>1784.3399999999999</ele>
        <time>2015-08-08T07:43:52Z</time>
      </trkpt>
      <trkpt lat="46.425745552405715" lon="8.402820294722915">
        <ele>1785.79</ele>
        <time>2015-08-08T07:44:03Z</time>
      </trkpt>
      <trkpt lat="46.425743624567986" lon="8.402808224782348">
        <ele>1785.79</ele>
        <time>2015-08-08T07:44:04Z</time>
      </trkpt>
      <trkpt lat="46.425727028399706" lon="8.40265391394496">
        <ele>1787.71</ele>
        <time>2015-08-08T07:44:15Z</time>
      </trkpt>
      <trkpt lat="46.425726357847452" lon="8.402487197890878">
        <ele>1789.1500000000001</ele>
        <time>2015-08-08T07:44:27Z</time>
      </trkpt>
      <trkpt lat="46.425739349797368" lon="8.402455765753985">
        <ele>1789.6300000000001</ele>
        <time>2015-08-08T07:44:30Z</time>
      </trkpt>
      <trkpt lat="46.425782600417733" lon="8.402274213731289">
        <ele>1791.55</ele>
        <time>2015-08-08T07:44:43Z</time>
      </trkpt>
      <trkpt lat="46.425833646208048" lon="8.402131889015436">
        <ele>1793.48</ele>
        <time>2015-08-08T07:44:55Z</time>
      </trkpt>
      <trkpt lat="46.425893325358629" lon="8.402043376117945">
        <ele>1795.4000000000001</ele>
        <time>2015-08-08T07:45:05Z</time>
      </trkpt>
      <trkpt lat="46.425956021994352" lon="8.401955869048834">
        <ele>1796.3599999999999</ele>
        <time>2015-08-08T07:45:16Z</time>
      </trkpt>
      <trkpt lat="46.425995668396354" lon="8.401923263445497">
        <ele>1797.3199999999999</ele>
        <time>2015-08-08T07:45:26Z</time>
      </trkpt>
      <trkpt lat="46.426024502143264" lon="8.401836594566703">
        <ele>1798.76</ele>
        <time>2015-08-08T07:45:38Z</time>
      </trkpt>
      <trkpt lat="46.426077978685498" lon="8.401724360883236">
        <ele>1801.6500000000001</ele>
        <time>2015-08-08T07:45:52Z</time>
      </trkpt>
      <trkpt lat="46.426111254841089" lon="8.401635596528649">
        <ele>1803.5699999999999</ele>
        <time>2015-08-08T07:46:03Z</time>
      </trkpt>
      <trkpt lat="46.426144866272807" lon="8.401622353121638">
        <ele>1805.01</ele>
        <time>2015-08-08T07:46:15Z</time>
      </trkpt>
      <trkpt lat="46.426183087751269" lon="8.401566194370389">
        <ele>1806.9400000000001</ele>
        <time>2015-08-08T07:46:27Z</time>
      </trkpt>
      <trkpt lat="46.426212843507528" lon="8.401553118601441">
        <ele>1808.3800000000001</ele>
        <time>2015-08-08T07:46:40Z</time>
      </trkpt>
      <trkpt lat="46.426216783002019" lon="8.401546329259872">
        <ele>1807.9000000000001</ele>
        <time>2015-08-08T07:46:41Z</time>
      </trkpt>
      <trkpt lat="46.426257938146591" lon="8.401457984000444">
        <ele>1809.3399999999999</ele>
        <time>2015-08-08T07:46:54Z</time>
      </trkpt>
      <trkpt lat="46.426321724429727" lon="8.401365196332336">
        <ele>1810.3</ele>
        <time>2015-08-08T07:47:07Z</time>
      </trkpt>
      <trkpt lat="46.426385343074799" lon="8.401298141106963">
        <ele>1812.7</ele>
        <time>2015-08-08T07:47:20Z</time>
      </trkpt>
      <trkpt lat="46.426456337794662" lon="8.401280287653208">
        <ele>1814.6300000000001</ele>
        <time>2015-08-08T07:47:32Z</time>
      </trkpt>
      <trkpt lat="46.426509311422706" lon="8.401270816102624">
        <ele>1815.1099999999999</ele>
        <time>2015-08-08T07:47:41Z</time>
      </trkpt>
      <trkpt lat="46.426539905369282" lon="8.401177441701293">
        <ele>1817.03</ele>
        <time>2015-08-08T07:47:52Z</time>
      </trkpt>
      <trkpt lat="46.426583239808679" lon="8.40113477781415">
        <ele>1818.47</ele>
        <time>2015-08-08T07:48:01Z</time>
      </trkpt>
      <trkpt lat="46.426626406610012" lon="8.401099992915988">
        <ele>1819.9100000000001</ele>
        <time>2015-08-08T07:48:10Z</time>
      </trkpt>
      <trkpt lat="46.426674351096153" lon="8.401108039543033">
        <ele>1821.3499999999999</ele>
        <time>2015-08-08T07:48:19Z</time>
      </trkpt>
      <trkpt lat="46.426707459613681" lon="8.401096640154719">
        <ele>1822.8</ele>
        <time>2015-08-08T07:48:27Z</time>
      </trkpt>
      <trkpt lat="46.426712153479457" lon="8.401052383705974">
        <ele>1824.24</ele>
        <time>2015-08-08T07:48:34Z</time>
      </trkpt>
      <trkpt lat="46.426749704405665" lon="8.400929505005479">
        <ele>1824.72</ele>
        <time>2015-08-08T07:48:44Z</time>
      </trkpt>
      <trkpt lat="46.426773173734546" lon="8.400826239958406">
        <ele>1825.2</ele>
        <time>2015-08-08T07:48:52Z</time>
      </trkpt>
      <trkpt lat="46.426755404099822" lon="8.400773014873266">
        <ele>1825.2</ele>
        <time>2015-08-08T07:48:56Z</time>
      </trkpt>
      <trkpt lat="46.426660353317857" lon="8.400594228878617">
        <ele>1825.2</ele>
        <time>2015-08-08T07:49:09Z</time>
      </trkpt>
      <trkpt lat="46.426557675004005" lon="8.400391638278961">
        <ele>1825.2</ele>
        <time>2015-08-08T07:49:23Z</time>
      </trkpt>
      <trkpt lat="46.426451057195663" lon="8.400183515623212">
        <ele>1825.2</ele>
        <time>2015-08-08T07:49:37Z</time>
      </trkpt>
      <trkpt lat="46.426336392760277" lon="8.400017721578479">
        <ele>1825.2</ele>
        <time>2015-08-08T07:49:49Z</time>
      </trkpt>
      <trkpt lat="46.426314432173967" lon="8.399994755163789">
        <ele>1825.2</ele>
        <time>2015-08-08T07:49:51Z</time>
      </trkpt>
      <trkpt lat="46.426203036680818" lon="8.399867014959455">
        <ele>1825.2</ele>
        <time>2015-08-08T07:50:03Z</time>
      </trkpt>
      <trkpt lat="46.426258441060781" lon="8.399679427966476">
        <ele>1825.6800000000001</ele>
        <time>2015-08-08T07:50:13Z</time>
      </trkpt>
      <trkpt lat="46.426364053040743" lon="8.39950324036181">
        <ele>1826.1600000000001</ele>
        <time>2015-08-08T07:50:26Z</time>
      </trkpt>
      <trkpt lat="46.426448374986649" lon="8.399289669468999">
        <ele>1826.6400000000001</ele>
        <time>2015-08-08T07:50:39Z</time>
      </trkpt>
      <trkpt lat="46.426504701375961" lon="8.399127731099725">
        <ele>1827.1199999999999</ele>
        <time>2015-08-08T07:50:49Z</time>
      </trkpt>
      <trkpt lat="46.426538648083806" lon="8.398911226540804">
        <ele>1827.1199999999999</ele>
        <time>2015-08-08T07:51:01Z</time>
      </trkpt>
      <trkpt lat="46.426509311422706" lon="8.398661194369197">
        <ele>1827.1199999999999</ele>
        <time>2015-08-08T07:51:15Z</time>
      </trkpt>
      <trkpt lat="46.426466228440404" lon="8.398397164419293">
        <ele>1827.1199999999999</ele>
        <time>2015-08-08T07:51:30Z</time>
      </trkpt>
      <trkpt lat="46.426465725526214" lon="8.398193065077066">
        <ele>1827.1199999999999</ele>
        <time>2015-08-08T07:51:41Z</time>
      </trkpt>
      <trkpt lat="46.426510233432055" lon="8.397949738427997">
        <ele>1827.1199999999999</ele>
        <time>2015-08-08T07:51:54Z</time>
      </trkpt>
      <trkpt lat="46.426525572314858" lon="8.397711860015988">
        <ele>1827.1199999999999</ele>
        <time>2015-08-08T07:52:07Z</time>
      </trkpt>
      <trkpt lat="46.426529847085476" lon="8.397487225010991">
        <ele>1827.1199999999999</ele>
        <time>2015-08-08T07:52:19Z</time>
      </trkpt>
      <trkpt lat="46.426541414111853" lon="8.397283628582954">
        <ele>1827.5999999999999</ele>
        <time>2015-08-08T07:52:30Z</time>
      </trkpt>
      <trkpt lat="46.426589358597994" lon="8.397073158994317">
        <ele>1827.1199999999999</ele>
        <time>2015-08-08T07:52:44Z</time>
      </trkpt>
      <trkpt lat="46.426589358597994" lon="8.397077769041061">
        <ele>1827.1199999999999</ele>
        <time>2015-08-08T07:52:50Z</time>
      </trkpt>
      <trkpt lat="46.42663068138063" lon="8.396830502897501">
        <ele>1827.5999999999999</ele>
        <time>2015-08-08T07:53:04Z</time>
      </trkpt>
      <trkpt lat="46.42667468637228" lon="8.396633863449097">
        <ele>1827.5999999999999</ele>
        <time>2015-08-08T07:53:14Z</time>
      </trkpt>
      <trkpt lat="46.426764288917184" lon="8.396425070241094">
        <ele>1827.1199999999999</ele>
        <time>2015-08-08T07:53:27Z</time>
      </trkpt>
      <trkpt lat="46.426845761016011" lon="8.396229520440102">
        <ele>1827.1199999999999</ele>
        <time>2015-08-08T07:53:39Z</time>
      </trkpt>
      <trkpt lat="46.426860094070435" lon="8.396201189607382">
        <ele>1827.1199999999999</ele>
        <time>2015-08-08T07:53:41Z</time>
      </trkpt>
      <trkpt lat="46.426938129588962" lon="8.396081160753965">
        <ele>1827.1199999999999</ele>
        <time>2015-08-08T07:53:50Z</time>
      </trkpt>
      <trkpt lat="46.426997724920511" lon="8.395961634814739">
        <ele>1827.1199999999999</ele>
        <time>2015-08-08T07:53:58Z</time>
      </trkpt>
      <trkpt lat="46.427023457363248" lon="8.395915869623423">
        <ele>1827.1199999999999</ele>
        <time>2015-08-08T07:54:01Z</time>
      </trkpt>
      <trkpt lat="46.427075089886785" lon="8.395791985094547">
        <ele>1827.5999999999999</ele>
        <time>2015-08-08T07:54:09Z</time>
      </trkpt>
      <trkpt lat="46.42715404741466" lon="8.39560397900641">
        <ele>1827.5999999999999</ele>
        <time>2015-08-08T07:54:21Z</time>
      </trkpt>
      <trkpt lat="46.42723124474287" lon="8.395448159426451">
        <ele>1827.5999999999999</ele>
        <time>2015-08-08T07:54:31Z</time>
      </trkpt>
      <trkpt lat="46.42725370824337" lon="8.395394096150994">
        <ele>1827.1199999999999</ele>
        <time>2015-08-08T07:54:34Z</time>
      </trkpt>
      <trkpt lat="46.427316823974252" lon="8.395235342904925">
        <ele>1827.5999999999999</ele>
        <time>2015-08-08T07:54:44Z</time>
      </trkpt>
      <trkpt lat="46.427361331880093" lon="8.395172897726297">
        <ele>1827.5999999999999</ele>
        <time>2015-08-08T07:54:49Z</time>
      </trkpt>
      <trkpt lat="46.42747800797224" lon="8.394981287419796">
        <ele>1828.0799999999999</ele>
        <time>2015-08-08T07:55:03Z</time>
      </trkpt>
      <trkpt lat="46.427569705992937" lon="8.394797891378403">
        <ele>1828.0799999999999</ele>
        <time>2015-08-08T07:55:16Z</time>
      </trkpt>
      <trkpt lat="46.427645981311798" lon="8.394639808684588">
        <ele>1828.5599999999999</ele>
        <time>2015-08-08T07:55:27Z</time>
      </trkpt>
      <trkpt lat="46.427698871120811" lon="8.394546518102288">
        <ele>1828.5599999999999</ele>
        <time>2015-08-08T07:55:34Z</time>
      </trkpt>
      <trkpt lat="46.427744720131159" lon="8.394392626360059">
        <ele>1828.5599999999999</ele>
        <time>2015-08-08T07:55:43Z</time>
      </trkpt>
      <trkpt lat="46.427801800891757" lon="8.39421727694571">
        <ele>1829.05</ele>
        <time>2015-08-08T07:55:53Z</time>
      </trkpt>
      <trkpt lat="46.427814457565546" lon="8.394143516197801">
        <ele>1828.5599999999999</ele>
        <time>2015-08-08T07:55:58Z</time>
      </trkpt>
      <trkpt lat="46.427858211100101" lon="8.393972693011165">
        <ele>1829.53</ele>
        <time>2015-08-08T07:56:09Z</time>
      </trkpt>
      <trkpt lat="46.42792752943933" lon="8.393858699128032">
        <ele>1830.97</ele>
        <time>2015-08-08T07:56:19Z</time>
      </trkpt>
      <trkpt lat="46.427958626300097" lon="8.393800612539053">
        <ele>1830.01</ele>
        <time>2015-08-08T07:56:23Z</time>
      </trkpt>
      <trkpt lat="46.428028615191579" lon="8.393680918961763">
        <ele>1830.49</ele>
        <time>2015-08-08T07:56:32Z</time>
      </trkpt>
      <trkpt lat="46.428056275472045" lon="8.393610259518027">
        <ele>1830.49</ele>
        <time>2015-08-08T07:56:36Z</time>
      </trkpt>
      <trkpt lat="46.428108243271708" lon="8.393485704436898">
        <ele>1830.97</ele>
        <time>2015-08-08T07:56:45Z</time>
      </trkpt>
      <trkpt lat="46.428143950179219" lon="8.393389480188489">
        <ele>1830.49</ele>
        <time>2015-08-08T07:56:51Z</time>
      </trkpt>
      <trkpt lat="46.42824805341661" lon="8.393205916509032">
        <ele>1830.97</ele>
        <time>2015-08-08T07:57:04Z</time>
      </trkpt>
      <trkpt lat="46.428291806951165" lon="8.393120588734746">
        <ele>1830.97</ele>
        <time>2015-08-08T07:57:10Z</time>
      </trkpt>
      <trkpt lat="46.42837168648839" lon="8.392976420000196">
        <ele>1831.45</ele>
        <time>2015-08-08T07:57:20Z</time>
      </trkpt>
      <trkpt lat="46.428468246012926" lon="8.392855972051621">
        <ele>1831.9300000000001</ele>
        <time>2015-08-08T07:57:30Z</time>
      </trkpt>
      <trkpt lat="46.428576456382871" lon="8.392735691741109">
        <ele>1832.4100000000001</ele>
        <time>2015-08-08T07:57:41Z</time>
      </trkpt>
      <trkpt lat="46.428700089454651" lon="8.392610466107726">
        <ele>1833.3699999999999</ele>
        <time>2015-08-08T07:57:53Z</time>
      </trkpt>
      <trkpt lat="46.428733868524432" lon="8.392585571855307">
        <ele>1833.3699999999999</ele>
        <time>2015-08-08T07:57:56Z</time>
      </trkpt>
      <trkpt lat="46.428845934569836" lon="8.392514493316412">
        <ele>1833.8499999999999</ele>
        <time>2015-08-08T07:58:06Z</time>
      </trkpt>
      <trkpt lat="46.428962023928761" lon="8.392461268231273">
        <ele>1834.3299999999999</ele>
        <time>2015-08-08T07:58:16Z</time>
      </trkpt>
      <trkpt lat="46.428980715572834" lon="8.392448695376515">
        <ele>1834.8099999999999</ele>
        <time>2015-08-08T07:58:18Z</time>
      </trkpt>
      <trkpt lat="46.429004520177841" lon="8.39243620634079">
        <ele>1835.77</ele>
        <time>2015-08-08T07:58:20Z</time>
      </trkpt>
      <trkpt lat="46.429070485755801" lon="8.392402091994882">
        <ele>1834.8099999999999</ele>
        <time>2015-08-08T07:58:26Z</time>
      </trkpt>
      <trkpt lat="46.429186407476664" lon="8.392292875796557">
        <ele>1835.29</ele>
        <time>2015-08-08T07:58:38Z</time>
      </trkpt>
      <trkpt lat="46.429249607026577" lon="8.392239902168512">
        <ele>1835.77</ele>
        <time>2015-08-08T07:58:44Z</time>
      </trkpt>
      <trkpt lat="46.429345076903701" lon="8.392089949920774">
        <ele>1836.74</ele>
        <time>2015-08-08T07:58:56Z</time>
      </trkpt>
      <trkpt lat="46.429446497932076" lon="8.391930693760514">
        <ele>1836.74</ele>
        <time>2015-08-08T07:59:08Z</time>
      </trkpt>
      <trkpt lat="46.429536519572139" lon="8.391796667128801">
        <ele>1837.7</ele>
        <time>2015-08-08T07:59:18Z</time>
      </trkpt>
      <trkpt lat="46.429648837074637" lon="8.39167445898056">
        <ele>1838.1800000000001</ele>
        <time>2015-08-08T07:59:29Z</time>
      </trkpt>
      <trkpt lat="46.429737098515034" lon="8.391587119549513">
        <ele>1838.1800000000001</ele>
        <time>2015-08-08T07:59:40Z</time>
      </trkpt>
      <trkpt lat="46.429820330813527" lon="8.391520734876394">
        <ele>1838.6600000000001</ele>
        <time>2015-08-08T07:59:49Z</time>
      </trkpt>
      <trkpt lat="46.429846733808517" lon="8.391474382951856">
        <ele>1838.6600000000001</ele>
        <time>2015-08-08T07:59:52Z</time>
      </trkpt>
      <trkpt lat="46.429913202300668" lon="8.391367681324482">
        <ele>1839.1400000000001</ele>
        <time>2015-08-08T08:00:01Z</time>
      </trkpt>
      <trkpt lat="46.429918566718698" lon="8.391348319128156">
        <ele>1839.1400000000001</ele>
        <time>2015-08-08T08:00:02Z</time>
      </trkpt>
      <trkpt lat="46.430008755996823" lon="8.391223261132836">
        <ele>1839.6199999999999</ele>
        <time>2015-08-08T08:00:12Z</time>
      </trkpt>
      <trkpt lat="46.430050330236554" lon="8.391161067411304">
        <ele>1840.0999999999999</ele>
        <time>2015-08-08T08:00:17Z</time>
      </trkpt>
      <trkpt lat="46.430119816213846" lon="8.391087558120489">
        <ele>1840.5799999999999</ele>
        <time>2015-08-08T08:00:24Z</time>
      </trkpt>
      <trkpt lat="46.430214112624526" lon="8.390967780724168">
        <ele>1841.0599999999999</ele>
        <time>2015-08-08T08:00:34Z</time>
      </trkpt>
      <trkpt lat="46.430297009646893" lon="8.390884548425674">
        <ele>1841.54</ele>
        <time>2015-08-08T08:00:42Z</time>
      </trkpt>
      <trkpt lat="46.43033791333437" lon="8.390849512070417">
        <ele>1841.54</ele>
        <time>2015-08-08T08:00:46Z</time>
      </trkpt>
      <trkpt lat="46.430397843942046" lon="8.390762256458402">
        <ele>1842.02</ele>
        <time>2015-08-08T08:00:53Z</time>
      </trkpt>
      <trkpt lat="46.430443692952394" lon="8.39071087539196">
        <ele>1842.5</ele>
        <time>2015-08-08T08:00:58Z</time>
      </trkpt>
      <trkpt lat="46.430470431223512" lon="8.3906639367342">
        <ele>1842.5</ele>
        <time>2015-08-08T08:01:02Z</time>
      </trkpt>
      <trkpt lat="46.430551651865244" lon="8.390545081347227">
        <ele>1842.98</ele>
        <time>2015-08-08T08:01:12Z</time>
      </trkpt>
      <trkpt lat="46.430579563602805" lon="8.39051054790616">
        <ele>1843.47</ele>
        <time>2015-08-08T08:01:15Z</time>
      </trkpt>
      <trkpt lat="46.430629938840866" lon="8.390432763844729">
        <ele>1843.95</ele>
        <time>2015-08-08T08:01:22Z</time>
      </trkpt>
      <trkpt lat="46.430661706253886" lon="8.390380376949906">
        <ele>1843.95</ele>
        <time>2015-08-08T08:01:27Z</time>
      </trkpt>
      <trkpt lat="46.43078207038343" lon="8.390268310904503">
        <ele>1844.9100000000001</ele>
        <time>2015-08-08T08:01:38Z</time>
      </trkpt>
      <trkpt lat="46.430788272991776" lon="8.390261521562934">
        <ele>1844.9100000000001</ele>
        <time>2015-08-08T08:01:39Z</time>
      </trkpt>
      <trkpt lat="46.430846191942692" lon="8.390203937888145">
        <ele>1845.3900000000001</ele>
        <time>2015-08-08T08:01:45Z</time>
      </trkpt>
      <trkpt lat="46.430899500846863" lon="8.390132356435061">
        <ele>1845.8699999999999</ele>
        <time>2015-08-08T08:01:52Z</time>
      </trkpt>
      <trkpt lat="46.430984912440181" lon="8.390009393915534">
        <ele>1846.3499999999999</ele>
        <time>2015-08-08T08:02:03Z</time>
      </trkpt>
      <trkpt lat="46.431070659309626" lon="8.389854412525892">
        <ele>1846.8299999999999</ele>
        <time>2015-08-08T08:02:15Z</time>
      </trkpt>
      <trkpt lat="46.431132853031158" lon="8.389724744483829">
        <ele>1847.3099999999999</ele>
        <time>2015-08-08T08:02:25Z</time>
      </trkpt>
      <trkpt lat="46.431224551051855" lon="8.389551322907209">
        <ele>1848.27</ele>
        <time>2015-08-08T08:02:37Z</time>
      </trkpt>
      <trkpt lat="46.431314321234822" lon="8.389377817511559">
        <ele>1848.75</ele>
        <time>2015-08-08T08:02:49Z</time>
      </trkpt>
      <trkpt lat="46.431405181065202" lon="8.389231050387025">
        <ele>1849.23</ele>
        <time>2015-08-08T08:03:00Z</time>
      </trkpt>
      <trkpt lat="46.431423705071211" lon="8.389191823080182">
        <ele>1849.23</ele>
        <time>2015-08-08T08:03:03Z</time>
      </trkpt>
      <trkpt lat="46.431474667042494" lon="8.389118984341621">
        <ele>1849.71</ele>
        <time>2015-08-08T08:03:09Z</time>
      </trkpt>
      <trkpt lat="46.43149109557271" lon="8.389056203886867">
        <ele>1850.1900000000001</ele>
        <time>2015-08-08T08:03:13Z</time>
      </trkpt>
      <trkpt lat="46.431547421962023" lon="8.388935839757323">
        <ele>1850.1900000000001</ele>
        <time>2015-08-08T08:03:21Z</time>
      </trkpt>
      <trkpt lat="46.431598216295242" lon="8.388836095109582">
        <ele>1850.6800000000001</ele>
        <time>2015-08-08T08:03:28Z</time>
      </trkpt>
      <trkpt lat="46.431687567383051" lon="8.388693351298571">
        <ele>1851.1600000000001</ele>
        <time>2015-08-08T08:03:39Z</time>
      </trkpt>
      <trkpt lat="46.431712042540312" lon="8.388660410419107">
        <ele>1851.6400000000001</ele>
        <time>2015-08-08T08:03:42Z</time>
      </trkpt>
      <trkpt lat="46.431774320080876" lon="8.388497633859515">
        <ele>1851.6400000000001</ele>
        <time>2015-08-08T08:03:52Z</time>
      </trkpt>
      <trkpt lat="46.431809524074197" lon="8.388417921960354">
        <ele>1851.6400000000001</ele>
        <time>2015-08-08T08:03:58Z</time>
      </trkpt>
      <trkpt lat="46.431871969252825" lon="8.388237291947007">
        <ele>1852.5999999999999</ele>
        <time>2015-08-08T08:04:10Z</time>
      </trkpt>
      <trkpt lat="46.431907759979367" lon="8.38820468634367">
        <ele>1852.5999999999999</ele>
        <time>2015-08-08T08:04:13Z</time>
      </trkpt>
      <trkpt lat="46.431945562362671" lon="8.388158334419131">
        <ele>1852.5999999999999</ele>
        <time>2015-08-08T08:04:17Z</time>
      </trkpt>
      <trkpt lat="46.432027369737625" lon="8.388048950582743">
        <ele>1853.0799999999999</ele>
        <time>2015-08-08T08:04:26Z</time>
      </trkpt>
      <trkpt lat="46.432053185999393" lon="8.388000587001443">
        <ele>1853.0799999999999</ele>
        <time>2015-08-08T08:04:30Z</time>
      </trkpt>
      <trkpt lat="46.432152846828103" lon="8.387909643352032">
        <ele>1853.5599999999999</ele>
        <time>2015-08-08T08:04:41Z</time>
      </trkpt>
      <trkpt lat="46.432181848213077" lon="8.387941578403115">
        <ele>1853.5599999999999</ele>
        <time>2015-08-08T08:04:52Z</time>
      </trkpt>
      <trkpt lat="46.432143459096551" lon="8.387921461835504">
        <ele>1853.5599999999999</ele>
        <time>2015-08-08T08:05:13Z</time>
      </trkpt>
      <trkpt lat="46.432134741917253" lon="8.387907547876239">
        <ele>1853.5599999999999</ele>
        <time>2015-08-08T08:05:23Z</time>
      </trkpt>
      <trkpt lat="46.432100711390376" lon="8.387885922566056">
        <ele>1853.0799999999999</ele>
        <time>2015-08-08T08:05:33Z</time>
      </trkpt>
      <trkpt lat="46.432104147970676" lon="8.387893466278911">
        <ele>1853.5599999999999</ele>
        <time>2015-08-08T08:05:42Z</time>
      </trkpt>
      <trkpt lat="46.432116720825434" lon="8.38791785761714">
        <ele>1853.0799999999999</ele>
        <time>2015-08-08T08:05:49Z</time>
      </trkpt>
      <trkpt lat="46.432136669754982" lon="8.387911403551698">
        <ele>1853.0799999999999</ele>
        <time>2015-08-08T08:06:02Z</time>
      </trkpt>
      <trkpt lat="46.43214832060039" lon="8.387894472107291">
        <ele>1852.5999999999999</ele>
        <time>2015-08-08T08:06:13Z</time>
      </trkpt>
      <trkpt lat="46.432169694453478" lon="8.387893633916974">
        <ele>1853.5599999999999</ele>
        <time>2015-08-08T08:06:23Z</time>
      </trkpt>
      <trkpt lat="46.432155696675181" lon="8.387917270883918">
        <ele>1853.0799999999999</ele>
        <time>2015-08-08T08:06:36Z</time>
      </trkpt>
      <trkpt lat="46.432152092456818" lon="8.38790905661881">
        <ele>1853.0799999999999</ele>
        <time>2015-08-08T08:06:49Z</time>
      </trkpt>
      <trkpt lat="46.43214974552393" lon="8.387916516512632">
        <ele>1853.0799999999999</ele>
        <time>2015-08-08T08:07:01Z</time>
      </trkpt>
      <trkpt lat="46.43214974552393" lon="8.387922132387757">
        <ele>1853.5599999999999</ele>
        <time>2015-08-08T08:07:15Z</time>
      </trkpt>
      <trkpt lat="46.432143040001392" lon="8.387938477098942">
        <ele>1853.5599999999999</ele>
        <time>2015-08-08T08:07:33Z</time>
      </trkpt>
      <trkpt lat="46.43214144743979" lon="8.38793302886188">
        <ele>1853.5599999999999</ele>
        <time>2015-08-08T08:07:51Z</time>
      </trkpt>
      <trkpt lat="46.432148823514581" lon="8.387925317510963">
        <ele>1853.5599999999999</ele>
        <time>2015-08-08T08:08:03Z</time>
      </trkpt>
      <trkpt lat="46.432141615077853" lon="8.387939902022481">
        <ele>1853.5599999999999</ele>
        <time>2015-08-08T08:08:16Z</time>
      </trkpt>
      <trkpt lat="46.432144464924932" lon="8.38789195753634">
        <ele>1853.5599999999999</ele>
        <time>2015-08-08T08:08:20Z</time>
      </trkpt>
      <trkpt lat="46.432224260643125" lon="8.387700179591775">
        <ele>1854.52</ele>
        <time>2015-08-08T08:08:33Z</time>
      </trkpt>
      <trkpt lat="46.432254184037447" lon="8.387604206800461">
        <ele>1854.52</ele>
        <time>2015-08-08T08:08:40Z</time>
      </trkpt>
      <trkpt lat="46.432322664186358" lon="8.387358533218503">
        <ele>1852.5999999999999</ele>
        <time>2015-08-08T08:08:54Z</time>
      </trkpt>
      <trkpt lat="46.432340014725924" lon="8.387302123010159">
        <ele>1852.1199999999999</ele>
        <time>2015-08-08T08:08:57Z</time>
      </trkpt>
      <trkpt lat="46.432374464347959" lon="8.38711160235107">
        <ele>1850.6800000000001</ele>
        <time>2015-08-08T08:09:08Z</time>
      </trkpt>
      <trkpt lat="46.432397849857807" lon="8.386907922104001">
        <ele>1850.6800000000001</ele>
        <time>2015-08-08T08:09:19Z</time>
      </trkpt>
      <trkpt lat="46.43243950791657" lon="8.386676162481308">
        <ele>1851.1600000000001</ele>
        <time>2015-08-08T08:09:32Z</time>
      </trkpt>
      <trkpt lat="46.432444201782346" lon="8.386662667617202">
        <ele>1850.6800000000001</ele>
        <time>2015-08-08T08:09:33Z</time>
      </trkpt>
      <trkpt lat="46.432474041357636" lon="8.386519588530064">
        <ele>1849.71</ele>
        <time>2015-08-08T08:09:41Z</time>
      </trkpt>
      <trkpt lat="46.43254310823977" lon="8.386297049000859">
        <ele>1846.8299999999999</ele>
        <time>2015-08-08T08:09:54Z</time>
      </trkpt>
      <trkpt lat="46.432592980563641" lon="8.386062355712056">
        <ele>1845.3900000000001</ele>
        <time>2015-08-08T08:10:07Z</time>
      </trkpt>
      <trkpt lat="46.432593651115894" lon="8.386043915525079">
        <ele>1844.9100000000001</ele>
        <time>2015-08-08T08:10:08Z</time>
      </trkpt>
      <trkpt lat="46.432661209255457" lon="8.385787848383188">
        <ele>1844.4300000000001</ele>
        <time>2015-08-08T08:10:23Z</time>
      </trkpt>
      <trkpt lat="46.432756930589676" lon="8.385560447350144">
        <ele>1842.02</ele>
        <time>2015-08-08T08:10:37Z</time>
      </trkpt>
      <trkpt lat="46.432879390195012" lon="8.385418457910419">
        <ele>1840.5799999999999</ele>
        <time>2015-08-08T08:10:49Z</time>
      </trkpt>
      <trkpt lat="46.432916857302189" lon="8.385280659422278">
        <ele>1840.5799999999999</ele>
        <time>2015-08-08T08:10:58Z</time>
      </trkpt>
      <trkpt lat="46.432937895879149" lon="8.38524310849607">
        <ele>1841.0599999999999</ele>
        <time>2015-08-08T08:11:02Z</time>
      </trkpt>
      <trkpt lat="46.432930771261454" lon="8.385239504277706">
        <ele>1841.0599999999999</ele>
        <time>2015-08-08T08:11:10Z</time>
      </trkpt>
      <trkpt lat="46.432912331074476" lon="8.385165827348828">
        <ele>1840.0999999999999</ele>
        <time>2015-08-08T08:11:14Z</time>
      </trkpt>
      <trkpt lat="46.432891041040421" lon="8.384988298639655">
        <ele>1841.54</ele>
        <time>2015-08-08T08:11:25Z</time>
      </trkpt>
      <trkpt lat="46.432887353003025" lon="8.384948149323463">
        <ele>1841.54</ele>
        <time>2015-08-08T08:11:27Z</time>
      </trkpt>
      <trkpt lat="46.432892130687833" lon="8.384892828762531">
        <ele>1842.5</ele>
        <time>2015-08-08T08:11:31Z</time>
      </trkpt>
      <trkpt lat="46.432941751554608" lon="8.384841196238995">
        <ele>1842.98</ele>
        <time>2015-08-08T08:11:37Z</time>
      </trkpt>
      <trkpt lat="46.433009225875139" lon="8.384763328358531">
        <ele>1843.47</ele>
        <time>2015-08-08T08:11:44Z</time>
      </trkpt>
      <trkpt lat="46.433081477880478" lon="8.384639192372561">
        <ele>1844.9100000000001</ele>
        <time>2015-08-08T08:11:55Z</time>
      </trkpt>
      <trkpt lat="46.433120789006352" lon="8.384448336437345">
        <ele>1844.9100000000001</ele>
        <time>2015-08-08T08:12:07Z</time>
      </trkpt>
      <trkpt lat="46.433137804269791" lon="8.384403996169567">
        <ele>1844.9100000000001</ele>
        <time>2015-08-08T08:12:10Z</time>
      </trkpt>
      <trkpt lat="46.43313679844141" lon="8.384343981742859">
        <ele>1845.3900000000001</ele>
        <time>2015-08-08T08:12:14Z</time>
      </trkpt>
      <trkpt lat="46.433147024363279" lon="8.384239543229342">
        <ele>1845.3900000000001</ele>
        <time>2015-08-08T08:12:25Z</time>
      </trkpt>
      <trkpt lat="46.433132020756602" lon="8.384236106649041">
        <ele>1846.3499999999999</ele>
        <time>2015-08-08T08:12:28Z</time>
      </trkpt>
      <trkpt lat="46.43311575986445" lon="8.384227305650711">
        <ele>1845.8699999999999</ele>
        <time>2015-08-08T08:12:30Z</time>
      </trkpt>
      <trkpt lat="46.433097738772631" lon="8.384192269295454">
        <ele>1846.3499999999999</ele>
        <time>2015-08-08T08:12:37Z</time>
      </trkpt>
      <trkpt lat="46.433103857561946" lon="8.384091686457396">
        <ele>1847.79</ele>
        <time>2015-08-08T08:12:44Z</time>
      </trkpt>
      <trkpt lat="46.433138139545918" lon="8.383940644562244">
        <ele>1848.75</ele>
        <time>2015-08-08T08:12:54Z</time>
      </trkpt>
      <trkpt lat="46.433184407651424" lon="8.383827740326524">
        <ele>1850.1900000000001</ele>
        <time>2015-08-08T08:13:05Z</time>
      </trkpt>
      <trkpt lat="46.433217683807015" lon="8.383713159710169">
        <ele>1850.6800000000001</ele>
        <time>2015-08-08T08:13:13Z</time>
      </trkpt>
      <trkpt lat="46.433248864486814" lon="8.383670495823026">
        <ele>1851.1600000000001</ele>
        <time>2015-08-08T08:13:17Z</time>
      </trkpt>
      <trkpt lat="46.433251798152924" lon="8.383579216897488">
        <ele>1851.1600000000001</ele>
        <time>2015-08-08T08:13:24Z</time>
      </trkpt>
      <trkpt lat="46.433247523382306" lon="8.383505707606673">
        <ele>1851.6400000000001</ele>
        <time>2015-08-08T08:13:30Z</time>
      </trkpt>
      <trkpt lat="46.433226820081472" lon="8.383349636569619">
        <ele>1852.5999999999999</ele>
        <time>2015-08-08T08:13:41Z</time>
      </trkpt>
      <trkpt lat="46.433232519775629" lon="8.383313762024045">
        <ele>1852.5999999999999</ele>
        <time>2015-08-08T08:13:44Z</time>
      </trkpt>
      <trkpt lat="46.43322765827179" lon="8.383283084258437">
        <ele>1852.5999999999999</ele>
        <time>2015-08-08T08:13:46Z</time>
      </trkpt>
      <trkpt lat="46.433239644393325" lon="8.383131874725223">
        <ele>1854.52</ele>
        <time>2015-08-08T08:13:56Z</time>
      </trkpt>
      <trkpt lat="46.433239812031388" lon="8.382961135357618">
        <ele>1855</ele>
        <time>2015-08-08T08:14:07Z</time>
      </trkpt>
      <trkpt lat="46.433261437341571" lon="8.382890056818724">
        <ele>1855.48</ele>
        <time>2015-08-08T08:14:16Z</time>
      </trkpt>
      <trkpt lat="46.433255150914192" lon="8.382807746529579">
        <ele>1856.4400000000001</ele>
        <time>2015-08-08T08:14:24Z</time>
      </trkpt>
      <trkpt lat="46.433238470926881" lon="8.382626110687852">
        <ele>1857.8900000000001</ele>
        <time>2015-08-08T08:14:36Z</time>
      </trkpt>
      <trkpt lat="46.433244757354259" lon="8.382465513423085">
        <ele>1858.3699999999999</ele>
        <time>2015-08-08T08:14:49Z</time>
      </trkpt>
      <trkpt lat="46.433266382664442" lon="8.382348082959652">
        <ele>1859.3299999999999</ele>
        <time>2015-08-08T08:14:58Z</time>
      </trkpt>
      <trkpt lat="46.433263029903173" lon="8.382301228120923">
        <ele>1860.29</ele>
        <time>2015-08-08T08:15:02Z</time>
      </trkpt>
      <trkpt lat="46.433210307732224" lon="8.382197627797723">
        <ele>1861.25</ele>
        <time>2015-08-08T08:15:11Z</time>
      </trkpt>
      <trkpt lat="46.433147359639406" lon="8.382064690813422">
        <ele>1862.6900000000001</ele>
        <time>2015-08-08T08:15:22Z</time>
      </trkpt>
      <trkpt lat="46.433135960251093" lon="8.381952624768019">
        <ele>1864.1300000000001</ele>
        <time>2015-08-08T08:15:32Z</time>
      </trkpt>
      <trkpt lat="46.433120369911194" lon="8.381826896220446">
        <ele>1865.5799999999999</ele>
        <time>2015-08-08T08:15:44Z</time>
      </trkpt>
      <trkpt lat="46.433117603883147" lon="8.381703849881887">
        <ele>1867.02</ele>
        <time>2015-08-08T08:15:54Z</time>
      </trkpt>
      <trkpt lat="46.433124309405684" lon="8.381643835455179">
        <ele>1868.9400000000001</ele>
        <time>2015-08-08T08:16:05Z</time>
      </trkpt>
      <trkpt lat="46.433147359639406" lon="8.381612654775381">
        <ele>1870.8599999999999</ele>
        <time>2015-08-08T08:16:14Z</time>
      </trkpt>
      <trkpt lat="46.43312799744308" lon="8.381568817421794">
        <ele>1872.79</ele>
        <time>2015-08-08T08:16:24Z</time>
      </trkpt>
      <trkpt lat="46.433128584176302" lon="8.38151391595602">
        <ele>1874.23</ele>
        <time>2015-08-08T08:16:33Z</time>
      </trkpt>
      <trkpt lat="46.433108299970627" lon="8.381528584286571">
        <ele>1875.1900000000001</ele>
        <time>2015-08-08T08:16:43Z</time>
      </trkpt>
      <trkpt lat="46.433119364082813" lon="8.381445519626141">
        <ele>1877.1099999999999</ele>
        <time>2015-08-08T08:16:52Z</time>
      </trkpt>
      <trkpt lat="46.433124477043748" lon="8.381394306197763">
        <ele>1878.0699999999999</ele>
        <time>2015-08-08T08:17:02Z</time>
      </trkpt>
      <trkpt lat="46.433119950816035" lon="8.381371591240168">
        <ele>1880</ele>
        <time>2015-08-08T08:17:11Z</time>
      </trkpt>
      <trkpt lat="46.433088183403015" lon="8.381345439702272">
        <ele>1881.4400000000001</ele>
        <time>2015-08-08T08:17:19Z</time>
      </trkpt>
      <trkpt lat="46.433041831478477" lon="8.38130671530962">
        <ele>1882.4000000000001</ele>
        <time>2015-08-08T08:17:28Z</time>
      </trkpt>
      <trkpt lat="46.432997575029731" lon="8.381240414455533">
        <ele>1884.3199999999999</ele>
        <time>2015-08-08T08:17:39Z</time>
      </trkpt>
      <trkpt lat="46.433010986074805" lon="8.381165061146021">
        <ele>1886.24</ele>
        <time>2015-08-08T08:17:49Z</time>
      </trkpt>
      <trkpt lat="46.432976620271802" lon="8.381114434450865">
        <ele>1888.6500000000001</ele>
        <time>2015-08-08T08:18:03Z</time>
      </trkpt>
      <trkpt lat="46.432943427935243" lon="8.381060035899282">
        <ele>1890.5699999999999</ele>
        <time>2015-08-08T08:18:14Z</time>
      </trkpt>
      <trkpt lat="46.432923814281821" lon="8.381037823855877">
        <ele>1891.53</ele>
        <time>2015-08-08T08:18:22Z</time>
      </trkpt>
      <trkpt lat="46.432904116809368" lon="8.380971774458885">
        <ele>1893.45</ele>
        <time>2015-08-08T08:18:33Z</time>
      </trkpt>
      <trkpt lat="46.43288123421371" lon="8.380915699526668">
        <ele>1894.9000000000001</ele>
        <time>2015-08-08T08:18:44Z</time>
      </trkpt>
      <trkpt lat="46.432890454307199" lon="8.380846465006471">
        <ele>1897.3</ele>
        <time>2015-08-08T08:18:55Z</time>
      </trkpt>
      <trkpt lat="46.432861369103193" lon="8.380808914080262">
        <ele>1898.74</ele>
        <time>2015-08-08T08:19:08Z</time>
      </trkpt>
      <trkpt lat="46.432851981371641" lon="8.380773290991783">
        <ele>1900.6600000000001</ele>
        <time>2015-08-08T08:19:19Z</time>
      </trkpt>
      <trkpt lat="46.432822393253446" lon="8.380766753107309">
        <ele>1901.6300000000001</ele>
        <time>2015-08-08T08:19:28Z</time>
      </trkpt>
      <trkpt lat="46.432795906439424" lon="8.380724508315325">
        <ele>1903.55</ele>
        <time>2015-08-08T08:19:39Z</time>
      </trkpt>
      <trkpt lat="46.432760283350945" lon="8.380713611841202">
        <ele>1905.47</ele>
        <time>2015-08-08T08:19:50Z</time>
      </trkpt>
      <trkpt lat="46.43274636939168" lon="8.380631133913994">
        <ele>1906.9100000000001</ele>
        <time>2015-08-08T08:20:01Z</time>
      </trkpt>
      <trkpt lat="46.4327073097229" lon="8.380581261590123">
        <ele>1908.3499999999999</ele>
        <time>2015-08-08T08:20:10Z</time>
      </trkpt>
      <trkpt lat="46.432750727981329" lon="8.380521079525352">
        <ele>1909.8</ele>
        <time>2015-08-08T08:20:20Z</time>
      </trkpt>
      <trkpt lat="46.432800348848104" lon="8.380457544699311">
        <ele>1911.24</ele>
        <time>2015-08-08T08:20:31Z</time>
      </trkpt>
      <trkpt lat="46.432795068249106" lon="8.380424771457911">
        <ele>1912.2</ele>
        <time>2015-08-08T08:20:41Z</time>
      </trkpt>
      <trkpt lat="46.432769419625401" lon="8.380434578284621">
        <ele>1913.1600000000001</ele>
        <time>2015-08-08T08:20:51Z</time>
      </trkpt>
      <trkpt lat="46.432735975831747" lon="8.380432818084955">
        <ele>1914.1199999999999</ele>
        <time>2015-08-08T08:20:59Z</time>
      </trkpt>
      <trkpt lat="46.432721810415387" lon="8.380392082035542">
        <ele>1915.5599999999999</ele>
        <time>2015-08-08T08:21:08Z</time>
      </trkpt>
      <trkpt lat="46.432690378278494" lon="8.380354279652238">
        <ele>1917.01</ele>
        <time>2015-08-08T08:21:17Z</time>
      </trkpt>
      <trkpt lat="46.432703034952283" lon="8.38029426522553">
        <ele>1918.9300000000001</ele>
        <time>2015-08-08T08:21:27Z</time>
      </trkpt>
      <trkpt lat="46.432707896456122" lon="8.380266856402159">
        <ele>1920.8499999999999</ele>
        <time>2015-08-08T08:21:37Z</time>
      </trkpt>
      <trkpt lat="46.432735808193684" lon="8.380219833925366">
        <ele>1922.29</ele>
        <time>2015-08-08T08:21:49Z</time>
      </trkpt>
      <trkpt lat="46.432730611413717" lon="8.380183121189475">
        <ele>1923.74</ele>
        <time>2015-08-08T08:21:59Z</time>
      </trkpt>
      <trkpt lat="46.432690629735589" lon="8.380175745114684">
        <ele>1925.6600000000001</ele>
        <time>2015-08-08T08:22:09Z</time>
      </trkpt>
      <trkpt lat="46.43266137689352" lon="8.380160154774785">
        <ele>1927.0999999999999</ele>
        <time>2015-08-08T08:22:19Z</time>
      </trkpt>
      <trkpt lat="46.432648804038763" lon="8.380098463967443">
        <ele>1929.02</ele>
        <time>2015-08-08T08:22:29Z</time>
      </trkpt>
      <trkpt lat="46.432616282254457" lon="8.380063846707344">
        <ele>1930.46</ele>
        <time>2015-08-08T08:22:39Z</time>
      </trkpt>
      <trkpt lat="46.432583928108215" lon="8.380029983818531">
        <ele>1932.3900000000001</ele>
        <time>2015-08-08T08:22:49Z</time>
      </trkpt>
      <trkpt lat="46.432570097967982" lon="8.380013471469283">
        <ele>1933.3499999999999</ele>
        <time>2015-08-08T08:22:58Z</time>
      </trkpt>
      <trkpt lat="46.432538917288184" lon="8.379994528368115">
        <ele>1934.79</ele>
        <time>2015-08-08T08:23:09Z</time>
      </trkpt>
      <trkpt lat="46.432557608932257" lon="8.379915487021208">
        <ele>1937.1900000000001</ele>
        <time>2015-08-08T08:23:22Z</time>
      </trkpt>
      <trkpt lat="46.432542856782675" lon="8.379885898903012">
        <ele>1938.6400000000001</ele>
        <time>2015-08-08T08:23:31Z</time>
      </trkpt>
      <trkpt lat="46.432519471272826" lon="8.379883971065283">
        <ele>1940.0799999999999</ele>
        <time>2015-08-08T08:23:40Z</time>
      </trkpt>
      <trkpt lat="46.432540593668818" lon="8.379934262484312">
        <ele>1940.0799999999999</ele>
        <time>2015-08-08T08:23:55Z</time>
      </trkpt>
      <trkpt lat="46.432549981400371" lon="8.379928814247251">
        <ele>1940.5599999999999</ele>
        <time>2015-08-08T08:24:07Z</time>
      </trkpt>
      <trkpt lat="46.432540928944945" lon="8.379888162016869">
        <ele>1940.5599999999999</ele>
        <time>2015-08-08T08:24:20Z</time>
      </trkpt>
      <trkpt lat="46.432548137381673" lon="8.379890006035566">
        <ele>1940.5599999999999</ele>
        <time>2015-08-08T08:24:43Z</time>
      </trkpt>
      <trkpt lat="46.432512514293194" lon="8.379881205037236">
        <ele>1941.04</ele>
        <time>2015-08-08T08:24:52Z</time>
      </trkpt>
      <trkpt lat="46.432524584233761" lon="8.379809707403183">
        <ele>1942.48</ele>
        <time>2015-08-08T08:25:01Z</time>
      </trkpt>
      <trkpt lat="46.432512179017067" lon="8.379764277487993">
        <ele>1943.9200000000001</ele>
        <time>2015-08-08T08:25:08Z</time>
      </trkpt>
      <trkpt lat="46.432495331391692" lon="8.37970937602222">
        <ele>1946.8099999999999</ele>
        <time>2015-08-08T08:25:20Z</time>
      </trkpt>
      <trkpt lat="46.432484267279506" lon="8.379690684378147">
        <ele>1947.77</ele>
        <time>2015-08-08T08:25:29Z</time>
      </trkpt>
      <trkpt lat="46.432475382462144" lon="8.379640560597181">
        <ele>1948.73</ele>
        <time>2015-08-08T08:25:42Z</time>
      </trkpt>
      <trkpt lat="46.432475298643112" lon="8.379540145397186">
        <ele>1950.6500000000001</ele>
        <time>2015-08-08T08:25:55Z</time>
      </trkpt>
      <trkpt lat="46.432474041357636" lon="8.379526566714048">
        <ele>1952.0899999999999</ele>
        <time>2015-08-08T08:26:04Z</time>
      </trkpt>
      <trkpt lat="46.43246348015964" lon="8.379496894776821">
        <ele>1953.54</ele>
        <time>2015-08-08T08:26:15Z</time>
      </trkpt>
      <trkpt lat="46.432462893426418" lon="8.379442831501365">
        <ele>1954.98</ele>
        <time>2015-08-08T08:26:25Z</time>
      </trkpt>
      <trkpt lat="46.432464402168989" lon="8.37942112237215">
        <ele>1955.46</ele>
        <time>2015-08-08T08:26:36Z</time>
      </trkpt>
      <trkpt lat="46.432472532615066" lon="8.379359683021903">
        <ele>1958.3399999999999</ele>
        <time>2015-08-08T08:26:47Z</time>
      </trkpt>
      <trkpt lat="46.432454008609056" lon="8.379300087690353">
        <ele>1959.78</ele>
        <time>2015-08-08T08:26:57Z</time>
      </trkpt>
      <trkpt lat="46.43245367333293" lon="8.379245353862643">
        <ele>1961.23</ele>
        <time>2015-08-08T08:27:05Z</time>
      </trkpt>
      <trkpt lat="46.432413356378675" lon="8.37920168414712">
        <ele>1962.1900000000001</ele>
        <time>2015-08-08T08:27:16Z</time>
      </trkpt>
      <trkpt lat="46.432373039424419" lon="8.37915332056582">
        <ele>1964.1099999999999</ele>
        <time>2015-08-08T08:27:27Z</time>
      </trkpt>
      <trkpt lat="46.432351246476173" lon="8.379121972247958">
        <ele>1965.0699999999999</ele>
        <time>2015-08-08T08:27:36Z</time>
      </trkpt>
      <trkpt lat="46.43234177492559" lon="8.379129013046622">
        <ele>1965.55</ele>
        <time>2015-08-08T08:27:47Z</time>
      </trkpt>
      <trkpt lat="46.432343116030097" lon="8.379107974469662">
        <ele>1966.03</ele>
        <time>2015-08-08T08:28:09Z</time>
      </trkpt>
      <trkpt lat="46.432310426607728" lon="8.379073860123754">
        <ele>1966.99</ele>
        <time>2015-08-08T08:28:22Z</time>
      </trkpt>
      <trkpt lat="46.432293998077512" lon="8.379038572311401">
        <ele>1968.9200000000001</ele>
        <time>2015-08-08T08:28:32Z</time>
      </trkpt>
      <trkpt lat="46.432247897610068" lon="8.378986939787865">
        <ele>1970.8399999999999</ele>
        <time>2015-08-08T08:28:44Z</time>
      </trkpt>
      <trkpt lat="46.432284358888865" lon="8.378952071070671">
        <ele>1972.76</ele>
        <time>2015-08-08T08:28:56Z</time>
      </trkpt>
      <trkpt lat="46.432283185422421" lon="8.37894662283361">
        <ele>1973.72</ele>
        <time>2015-08-08T08:29:07Z</time>
      </trkpt>
      <trkpt lat="46.432267595082521" lon="8.37888996116817">
        <ele>1976.1300000000001</ele>
        <time>2015-08-08T08:29:19Z</time>
      </trkpt>
      <trkpt lat="46.432302547618747" lon="8.37887579575181">
        <ele>1977.5699999999999</ele>
        <time>2015-08-08T08:29:29Z</time>
      </trkpt>
      <trkpt lat="46.432300619781017" lon="8.378845453262329">
        <ele>1979.01</ele>
        <time>2015-08-08T08:29:39Z</time>
      </trkpt>
      <trkpt lat="46.432282263413072" lon="8.378810500726104">
        <ele>1980.45</ele>
        <time>2015-08-08T08:29:49Z</time>
      </trkpt>
      <trkpt lat="46.432349653914571" lon="8.378823827952147">
        <ele>1981.9000000000001</ele>
        <time>2015-08-08T08:29:59Z</time>
      </trkpt>
      <trkpt lat="46.432322580367327" lon="8.378798430785537">
        <ele>1982.3800000000001</ele>
        <time>2015-08-08T08:30:08Z</time>
      </trkpt>
      <trkpt lat="46.432309169322252" lon="8.378775380551815">
        <ele>1983.8199999999999</ele>
        <time>2015-08-08T08:30:16Z</time>
      </trkpt>
      <trkpt lat="46.43227974884212" lon="8.378743110224605">
        <ele>1985.26</ele>
        <time>2015-08-08T08:30:24Z</time>
      </trkpt>
      <trkpt lat="46.432272037491202" lon="8.378701535984874">
        <ele>1986.7</ele>
        <time>2015-08-08T08:30:33Z</time>
      </trkpt>
      <trkpt lat="46.432251753285527" lon="8.378687622025609">
        <ele>1988.1400000000001</ele>
        <time>2015-08-08T08:30:43Z</time>
      </trkpt>
      <trkpt lat="46.432221829891205" lon="8.378631295636296">
        <ele>1990.0699999999999</ele>
        <time>2015-08-08T08:30:55Z</time>
      </trkpt>
      <trkpt lat="46.432231469079852" lon="8.378593074157834">
        <ele>1991.51</ele>
        <time>2015-08-08T08:31:05Z</time>
      </trkpt>
      <trkpt lat="46.432230714708567" lon="8.378558708354831">
        <ele>1992.47</ele>
        <time>2015-08-08T08:31:14Z</time>
      </trkpt>
      <trkpt lat="46.432239850983024" lon="8.378525683656335">
        <ele>1993.9100000000001</ele>
        <time>2015-08-08T08:31:24Z</time>
      </trkpt>
      <trkpt lat="46.432230211794376" lon="8.378466088324785">
        <ele>1995.8299999999999</ele>
        <time>2015-08-08T08:31:34Z</time>
      </trkpt>
      <trkpt lat="46.432218644768" lon="8.378405068069696">
        <ele>1996.3199999999999</ele>
        <time>2015-08-08T08:31:44Z</time>
      </trkpt>
      <trkpt lat="46.432276144623756" lon="8.378428788855672">
        <ele>1998.72</ele>
        <time>2015-08-08T08:31:56Z</time>
      </trkpt>
      <trkpt lat="46.432303637266159" lon="8.378455527126789">
        <ele>1999.6800000000001</ele>
        <time>2015-08-08T08:32:05Z</time>
      </trkpt>
      <trkpt lat="46.432278323918581" lon="8.378463741391897">
        <ele>1998.72</ele>
        <time>2015-08-08T08:32:19Z</time>
      </trkpt>
      <trkpt lat="46.432287879288197" lon="8.378476481884718">
        <ele>1999.6800000000001</ele>
        <time>2015-08-08T08:32:32Z</time>
      </trkpt>
      <trkpt lat="46.432297015562654" lon="8.378460137173533">
        <ele>1999.6800000000001</ele>
        <time>2015-08-08T08:32:51Z</time>
      </trkpt>
      <trkpt lat="46.43229441717267" lon="8.378457874059677">
        <ele>1999.6800000000001</ele>
        <time>2015-08-08T08:33:08Z</time>
      </trkpt>
      <trkpt lat="46.432281257584691" lon="8.378464244306088">
        <ele>1999.6800000000001</ele>
        <time>2015-08-08T08:33:24Z</time>
      </trkpt>
      <trkpt lat="46.43228268250823" lon="8.378456952050328">
        <ele>2000.1600000000001</ele>
        <time>2015-08-08T08:33:36Z</time>
      </trkpt>
      <trkpt lat="46.432308414950967" lon="8.378414874896407">
        <ele>2001.5999999999999</ele>
        <time>2015-08-08T08:33:45Z</time>
      </trkpt>
      <trkpt lat="46.432269103825092" lon="8.378343544900417">
        <ele>2002.5599999999999</ele>
        <time>2015-08-08T08:33:56Z</time>
      </trkpt>
      <trkpt lat="46.432240437716246" lon="8.378264252096415">
        <ele>2004.49</ele>
        <time>2015-08-08T08:34:08Z</time>
      </trkpt>
      <trkpt lat="46.432243874296546" lon="8.378200549632311">
        <ele>2005.45</ele>
        <time>2015-08-08T08:34:19Z</time>
      </trkpt>
      <trkpt lat="46.432300871238112" lon="8.378233993425965">
        <ele>2006.8900000000001</ele>
        <time>2015-08-08T08:34:29Z</time>
      </trkpt>
      <trkpt lat="46.432260135188699" lon="8.378157131373882">
        <ele>2008.8099999999999</ele>
        <time>2015-08-08T08:34:39Z</time>
      </trkpt>
      <trkpt lat="46.43221328034997" lon="8.378092590719461">
        <ele>2010.25</ele>
        <time>2015-08-08T08:34:52Z</time>
      </trkpt>
      <trkpt lat="46.43218251876533" lon="8.378076162189245">
        <ele>2011.22</ele>
        <time>2015-08-08T08:35:04Z</time>
      </trkpt>
      <trkpt lat="46.432168437168002" lon="8.378030648455024">
        <ele>2013.1400000000001</ele>
        <time>2015-08-08T08:35:15Z</time>
      </trkpt>
      <trkpt lat="46.43215075135231" lon="8.377991169691086">
        <ele>2015.0599999999999</ele>
        <time>2015-08-08T08:35:25Z</time>
      </trkpt>
      <trkpt lat="46.432150080800056" lon="8.377944314852357">
        <ele>2016.5</ele>
        <time>2015-08-08T08:35:33Z</time>
      </trkpt>
      <trkpt lat="46.432140776887536" lon="8.377902405336499">
        <ele>2017.46</ele>
        <time>2015-08-08T08:35:42Z</time>
      </trkpt>
      <trkpt lat="46.432125438004732" lon="8.377871140837669">
        <ele>2019.8699999999999</ele>
        <time>2015-08-08T08:35:53Z</time>
      </trkpt>
      <trkpt lat="46.432126862928271" lon="8.377825375646353">
        <ele>2020.8299999999999</ele>
        <time>2015-08-08T08:36:01Z</time>
      </trkpt>
      <trkpt lat="46.432113451883197" lon="8.377764271572232">
        <ele>2022.27</ele>
        <time>2015-08-08T08:36:12Z</time>
      </trkpt>
      <trkpt lat="46.43209308385849" lon="8.377725379541516">
        <ele>2023.23</ele>
        <time>2015-08-08T08:36:22Z</time>
      </trkpt>
      <trkpt lat="46.432065591216087" lon="8.377694534137845">
        <ele>2025.1500000000001</ele>
        <time>2015-08-08T08:36:34Z</time>
      </trkpt>
      <trkpt lat="46.432045893743634" lon="8.377632340416312">
        <ele>2026.5999999999999</ele>
        <time>2015-08-08T08:36:43Z</time>
      </trkpt>
      <trkpt lat="46.432025609537959" lon="8.377598728984594">
        <ele>2027.0799999999999</ele>
        <time>2015-08-08T08:36:53Z</time>
      </trkpt>
      <trkpt lat="46.432031141594052" lon="8.377623287960887">
        <ele>2027.5599999999999</ele>
        <time>2015-08-08T08:37:00Z</time>
      </trkpt>
      <trkpt lat="46.432037008926272" lon="8.377605266869068">
        <ele>2027.5599999999999</ele>
        <time>2015-08-08T08:37:25Z</time>
      </trkpt>
      <trkpt lat="46.43203348852694" lon="8.377616163343191">
        <ele>2027.0799999999999</ele>
        <time>2015-08-08T08:37:37Z</time>
      </trkpt>
      <trkpt lat="46.432046731933951" lon="8.377612642943859">
        <ele>2027.0799999999999</ele>
        <time>2015-08-08T08:37:49Z</time>
      </trkpt>
      <trkpt lat="46.432034242898226" lon="8.377618342638016">
        <ele>2027.5599999999999</ele>
        <time>2015-08-08T08:38:08Z</time>
      </trkpt>
      <trkpt lat="46.432024352252483" lon="8.377606188878417">
        <ele>2027.5599999999999</ele>
        <time>2015-08-08T08:38:21Z</time>
      </trkpt>
      <trkpt lat="46.431996524333954" lon="8.37755304761231">
        <ele>2028.52</ele>
        <time>2015-08-08T08:38:31Z</time>
      </trkpt>
      <trkpt lat="46.432021167129278" lon="8.377475012093782">
        <ele>2029.96</ele>
        <time>2015-08-08T08:38:40Z</time>
      </trkpt>
      <trkpt lat="46.432020328938961" lon="8.377423044294119">
        <ele>2030.4400000000001</ele>
        <time>2015-08-08T08:38:50Z</time>
      </trkpt>
      <trkpt lat="46.43201638944447" lon="8.377378368750215">
        <ele>2032.3599999999999</ele>
        <time>2015-08-08T08:38:59Z</time>
      </trkpt>
      <trkpt lat="46.432006247341633" lon="8.377275774255395">
        <ele>2033.3299999999999</ele>
        <time>2015-08-08T08:39:10Z</time>
      </trkpt>
      <trkpt lat="46.432005576789379" lon="8.377195810899139">
        <ele>2035.73</ele>
        <time>2015-08-08T08:39:23Z</time>
      </trkpt>
      <trkpt lat="46.431999541819096" lon="8.377150967717171">
        <ele>2037.1700000000001</ele>
        <time>2015-08-08T08:39:34Z</time>
      </trkpt>
      <trkpt lat="46.431986046954989" lon="8.377106124535203">
        <ele>2037.6500000000001</ele>
        <time>2015-08-08T08:39:42Z</time>
      </trkpt>
      <trkpt lat="46.431983448565006" lon="8.377046529203653">
        <ele>2039.5699999999999</ele>
        <time>2015-08-08T08:39:52Z</time>
      </trkpt>
      <trkpt lat="46.431994093582034" lon="8.376978049054742">
        <ele>2041.02</ele>
        <time>2015-08-08T08:40:02Z</time>
      </trkpt>
      <trkpt lat="46.431997949257493" lon="8.376922309398651">
        <ele>2041.98</ele>
        <time>2015-08-08T08:40:13Z</time>
      </trkpt>
      <trkpt lat="46.431997865438461" lon="8.376882746815682">
        <ele>2043.9000000000001</ele>
        <time>2015-08-08T08:40:24Z</time>
      </trkpt>
      <trkpt lat="46.431973474100232" lon="8.376802699640393">
        <ele>2045.8199999999999</ele>
        <time>2015-08-08T08:40:35Z</time>
      </trkpt>
      <trkpt lat="46.431962661445141" lon="8.376738242805004">
        <ele>2047.26</ele>
        <time>2015-08-08T08:40:46Z</time>
      </trkpt>
      <trkpt lat="46.431960482150316" lon="8.376654256135225">
        <ele>2048.71</ele>
        <time>2015-08-08T08:40:55Z</time>
      </trkpt>
      <trkpt lat="46.43195629119873" lon="8.376604216173291">
        <ele>2049.6700000000001</ele>
        <time>2015-08-08T08:41:06Z</time>
      </trkpt>
      <trkpt lat="46.431943299248815" lon="8.376558031886816">
        <ele>2051.5900000000001</ele>
        <time>2015-08-08T08:41:20Z</time>
      </trkpt>
      <trkpt lat="46.431928463280201" lon="8.376486031338573">
        <ele>2053.5100000000002</ele>
        <time>2015-08-08T08:41:31Z</time>
      </trkpt>
      <trkpt lat="46.431916728615761" lon="8.376389890909195">
        <ele>2054.96</ele>
        <time>2015-08-08T08:41:43Z</time>
      </trkpt>
      <trkpt lat="46.431911950930953" lon="8.376358207315207">
        <ele>2055.9200000000001</ele>
        <time>2015-08-08T08:41:53Z</time>
      </trkpt>
      <trkpt lat="46.431894181296229" lon="8.376286290585995">
        <ele>2056.8800000000001</ele>
        <time>2015-08-08T08:42:01Z</time>
      </trkpt>
      <trkpt lat="46.431884290650487" lon="8.376194005832076">
        <ele>2059.7600000000002</ele>
        <time>2015-08-08T08:42:14Z</time>
      </trkpt>
      <trkpt lat="46.431887894868851" lon="8.3761927485466">
        <ele>2059.7600000000002</ele>
        <time>2015-08-08T08:42:15Z</time>
      </trkpt>
      <trkpt lat="46.431897869333625" lon="8.376154862344265">
        <ele>2060.7199999999998</ele>
        <time>2015-08-08T08:42:26Z</time>
      </trkpt>
      <trkpt lat="46.431926116347313" lon="8.376136757433415">
        <ele>2061.6799999999998</ele>
        <time>2015-08-08T08:42:35Z</time>
      </trkpt>
      <trkpt lat="46.431891079992056" lon="8.376050842925906">
        <ele>2064.0900000000001</ele>
        <time>2015-08-08T08:42:46Z</time>
      </trkpt>
      <trkpt lat="46.431872388347983" lon="8.375979764387012">
        <ele>2065.5300000000002</ele>
        <time>2015-08-08T08:42:57Z</time>
      </trkpt>
      <trkpt lat="46.431841040030122" lon="8.375869626179338">
        <ele>2066.9699999999998</ele>
        <time>2015-08-08T08:43:09Z</time>
      </trkpt>
      <trkpt lat="46.431833077222109" lon="8.375810449942946">
        <ele>2067.9299999999998</ele>
        <time>2015-08-08T08:43:19Z</time>
      </trkpt>
      <trkpt lat="46.431827126070857" lon="8.375709112733603">
        <ele>2069.8600000000001</ele>
        <time>2015-08-08T08:43:30Z</time>
      </trkpt>
      <trkpt lat="46.431827545166016" lon="8.375663934275508">
        <ele>2070.8200000000002</ele>
        <time>2015-08-08T08:43:38Z</time>
      </trkpt>
      <trkpt lat="46.431825030595064" lon="8.3756039198488">
        <ele>2071.7800000000002</ele>
        <time>2015-08-08T08:43:46Z</time>
      </trkpt>
      <trkpt lat="46.431805333122611" lon="8.375541809946299">
        <ele>2073.2199999999998</ele>
        <time>2015-08-08T08:43:55Z</time>
      </trkpt>
      <trkpt lat="46.431815391406417" lon="8.375475844368339">
        <ele>2074.1799999999998</ele>
        <time>2015-08-08T08:44:04Z</time>
      </trkpt>
      <trkpt lat="46.431795191019773" lon="8.375428318977356">
        <ele>2075.1399999999999</ele>
        <time>2015-08-08T08:44:12Z</time>
      </trkpt>
      <trkpt lat="46.431779013946652" lon="8.37536696344614">
        <ele>2076.5900000000001</ele>
        <time>2015-08-08T08:44:23Z</time>
      </trkpt>
      <trkpt lat="46.431757556274533" lon="8.375313822180033">
        <ele>2078.0300000000002</ele>
        <time>2015-08-08T08:44:34Z</time>
      </trkpt>
      <trkpt lat="46.431739451363683" lon="8.375267302617431">
        <ele>2079.9499999999998</ele>
        <time>2015-08-08T08:44:44Z</time>
      </trkpt>
      <trkpt lat="46.431751186028123" lon="8.37521499954164">
        <ele>2080.9099999999999</ele>
        <time>2015-08-08T08:44:52Z</time>
      </trkpt>
      <trkpt lat="46.431732075288892" lon="8.375144340097904">
        <ele>2082.8299999999999</ele>
        <time>2015-08-08T08:45:04Z</time>
      </trkpt>
      <trkpt lat="46.431722017005086" lon="8.375069741159678">
        <ele>2084.2800000000002</ele>
        <time>2015-08-08T08:45:15Z</time>
      </trkpt>
      <trkpt lat="46.431706678122282" lon="8.374969242140651">
        <ele>2085.7199999999998</ele>
        <time>2015-08-08T08:45:29Z</time>
      </trkpt>
      <trkpt lat="46.431715060025454" lon="8.374900342896581">
        <ele>2087.1599999999999</ele>
        <time>2015-08-08T08:45:39Z</time>
      </trkpt>
      <trkpt lat="46.431706510484219" lon="8.374797329306603">
        <ele>2089.0799999999999</ele>
        <time>2015-08-08T08:45:51Z</time>
      </trkpt>
      <trkpt lat="46.431681867688894" lon="8.374713258817792">
        <ele>2091</ele>
        <time>2015-08-08T08:46:03Z</time>
      </trkpt>
      <trkpt lat="46.431668121367693" lon="8.37462910450995">
        <ele>2091.9699999999998</ele>
        <time>2015-08-08T08:46:13Z</time>
      </trkpt>
      <trkpt lat="46.431679185479879" lon="8.374580154195428">
        <ele>2094.3699999999999</ele>
        <time>2015-08-08T08:46:24Z</time>
      </trkpt>
      <trkpt lat="46.431678095832467" lon="8.374529108405113">
        <ele>2095.8099999999999</ele>
        <time>2015-08-08T08:46:34Z</time>
      </trkpt>
      <trkpt lat="46.431694692000747" lon="8.374511506408453">
        <ele>2096.77</ele>
        <time>2015-08-08T08:46:44Z</time>
      </trkpt>
      <trkpt lat="46.431683544069529" lon="8.374495916068554">
        <ele>2098.21</ele>
        <time>2015-08-08T08:46:48Z</time>
      </trkpt>
      <trkpt lat="46.431665020063519" lon="8.374433219432831">
        <ele>2099.1799999999998</ele>
        <time>2015-08-08T08:46:57Z</time>
      </trkpt>
      <trkpt lat="46.431675581261516" lon="8.374358369037509">
        <ele>2100.6199999999999</ele>
        <time>2015-08-08T08:47:06Z</time>
      </trkpt>
      <trkpt lat="46.431711288169026" lon="8.374320901930332">
        <ele>2102.0599999999999</ele>
        <time>2015-08-08T08:47:16Z</time>
      </trkpt>
      <trkpt lat="46.431717993691564" lon="8.374314364045858">
        <ele>2102.0599999999999</ele>
        <time>2015-08-08T08:47:17Z</time>
      </trkpt>
      <trkpt lat="46.431697458028793" lon="8.374267173931003">
        <ele>2103.5</ele>
        <time>2015-08-08T08:47:26Z</time>
      </trkpt>
      <trkpt lat="46.431708689779043" lon="8.374158879742026">
        <ele>2105.4200000000001</ele>
        <time>2015-08-08T08:47:40Z</time>
      </trkpt>
      <trkpt lat="46.431677341461182" lon="8.374060476198793">
        <ele>2107.3499999999999</ele>
        <time>2015-08-08T08:47:52Z</time>
      </trkpt>
      <trkpt lat="46.431656889617443" lon="8.373944386839867">
        <ele>2109.27</ele>
        <time>2015-08-08T08:48:04Z</time>
      </trkpt>
      <trkpt lat="46.431656889617443" lon="8.373805582523346">
        <ele>2110.23</ele>
        <time>2015-08-08T08:48:18Z</time>
      </trkpt>
      <trkpt lat="46.431668205186725" lon="8.373669125139713">
        <ele>2111.1900000000001</ele>
        <time>2015-08-08T08:48:31Z</time>
      </trkpt>
      <trkpt lat="46.431635264307261" lon="8.373571308329701">
        <ele>2113.1199999999999</ele>
        <time>2015-08-08T08:48:43Z</time>
      </trkpt>
      <trkpt lat="46.43166309222579" lon="8.373493021354079">
        <ele>2115.04</ele>
        <time>2015-08-08T08:48:54Z</time>
      </trkpt>
      <trkpt lat="46.431654207408428" lon="8.373402496799827">
        <ele>2115.52</ele>
        <time>2015-08-08T08:49:04Z</time>
      </trkpt>
      <trkpt lat="46.431615734472871" lon="8.37331423535943">
        <ele>2116.96</ele>
        <time>2015-08-08T08:49:16Z</time>
      </trkpt>
      <trkpt lat="46.431638365611434" lon="8.373264614492655">
        <ele>2118.8800000000001</ele>
        <time>2015-08-08T08:49:26Z</time>
      </trkpt>
      <trkpt lat="46.431669127196074" lon="8.373261010274291">
        <ele>2119.8400000000001</ele>
        <time>2015-08-08T08:49:39Z</time>
      </trkpt>
      <trkpt lat="46.431714724749327" lon="8.373219771310687">
        <ele>2119.8400000000001</ele>
        <time>2015-08-08T08:50:00Z</time>
      </trkpt>
      <trkpt lat="46.431698799133301" lon="8.373163528740406">
        <ele>2121.77</ele>
        <time>2015-08-08T08:50:10Z</time>
      </trkpt>
      <trkpt lat="46.43164792098105" lon="8.373088091611862">
        <ele>2123.21</ele>
        <time>2015-08-08T08:50:20Z</time>
      </trkpt>
      <trkpt lat="46.431583631783724" lon="8.373056072741747">
        <ele>2125.1300000000001</ele>
        <time>2015-08-08T08:50:32Z</time>
      </trkpt>
      <trkpt lat="46.431571310386062" lon="8.373025478795171">
        <ele>2126.0900000000001</ele>
        <time>2015-08-08T08:50:43Z</time>
      </trkpt>
      <trkpt lat="46.431599138304591" lon="8.372998321428895">
        <ele>2127.0500000000002</ele>
        <time>2015-08-08T08:50:52Z</time>
      </trkpt>
      <trkpt lat="46.431613387539983" lon="8.37297267280519">
        <ele>2128.5</ele>
        <time>2015-08-08T08:51:01Z</time>
      </trkpt>
      <trkpt lat="46.431598886847496" lon="8.372925231233239">
        <ele>2129.9400000000001</ele>
        <time>2015-08-08T08:51:10Z</time>
      </trkpt>
      <trkpt lat="46.431639119982719" lon="8.372937384992838">
        <ele>2131.3800000000001</ele>
        <time>2015-08-08T08:51:20Z</time>
      </trkpt>
      <trkpt lat="46.431648675352335" lon="8.372869491577148">
        <ele>2132.8200000000002</ele>
        <time>2015-08-08T08:51:30Z</time>
      </trkpt>
      <trkpt lat="46.431641131639481" lon="8.372821127995849">
        <ele>2134.7399999999998</ele>
        <time>2015-08-08T08:51:41Z</time>
      </trkpt>
      <trkpt lat="46.431652782484889" lon="8.372737225145102">
        <ele>2136.1900000000001</ele>
        <time>2015-08-08T08:51:54Z</time>
      </trkpt>
      <trkpt lat="46.431657392531633" lon="8.372679390013218">
        <ele>2138.1100000000001</ele>
        <time>2015-08-08T08:52:06Z</time>
      </trkpt>
      <trkpt lat="46.431637359783053" lon="8.372588865458965">
        <ele>2139.0700000000002</ele>
        <time>2015-08-08T08:52:16Z</time>
      </trkpt>
      <trkpt lat="46.431689243763685" lon="8.372478978708386">
        <ele>2141.4699999999998</ele>
        <time>2015-08-08T08:52:31Z</time>
      </trkpt>
      <trkpt lat="46.431647334247828" lon="8.372345790266991">
        <ele>2142.9200000000001</ele>
        <time>2015-08-08T08:52:43Z</time>
      </trkpt>
      <trkpt lat="46.431650770828128" lon="8.3722157869488">
        <ele>2143.4000000000001</ele>
        <time>2015-08-08T08:52:54Z</time>
      </trkpt>
      <trkpt lat="46.431685471907258" lon="8.372098356485367">
        <ele>2144.8400000000001</ele>
        <time>2015-08-08T08:53:07Z</time>
      </trkpt>
      <trkpt lat="46.431660074740648" lon="8.372006407007575">
        <ele>2145.8000000000002</ele>
        <time>2015-08-08T08:53:16Z</time>
      </trkpt>
      <trkpt lat="46.431627636775374" lon="8.37190599180758">
        <ele>2147.2399999999998</ele>
        <time>2015-08-08T08:53:29Z</time>
      </trkpt>
      <trkpt lat="46.431604335084558" lon="8.37175746448338">
        <ele>2148.1999999999998</ele>
        <time>2015-08-08T08:53:43Z</time>
      </trkpt>
      <trkpt lat="46.43160299398005" lon="8.371751429513097">
        <ele>2148.1999999999998</ele>
        <time>2015-08-08T08:53:44Z</time>
      </trkpt>
      <trkpt lat="46.43155756406486" lon="8.371609775349498">
        <ele>2149.6500000000001</ele>
        <time>2015-08-08T08:53:57Z</time>
      </trkpt>
      <trkpt lat="46.431511463597417" lon="8.371514137834311">
        <ele>2151.0900000000001</ele>
        <time>2015-08-08T08:54:09Z</time>
      </trkpt>
      <trkpt lat="46.431478271260858" lon="8.371408022940159">
        <ele>2153.4899999999998</ele>
        <time>2015-08-08T08:54:22Z</time>
      </trkpt>
      <trkpt lat="46.431457987055182" lon="8.371328059583902">
        <ele>2154.9299999999998</ele>
        <time>2015-08-08T08:54:34Z</time>
      </trkpt>
      <trkpt lat="46.431451365351677" lon="8.37123166769743">
        <ele>2156.3699999999999</ele>
        <time>2015-08-08T08:54:46Z</time>
      </trkpt>
      <trkpt lat="46.431438121944666" lon="8.371168468147516">
        <ele>2157.3400000000001</ele>
        <time>2015-08-08T08:54:56Z</time>
      </trkpt>
      <trkpt lat="46.431433511897922" lon="8.371105771511793">
        <ele>2159.2600000000002</ele>
        <time>2015-08-08T08:55:07Z</time>
      </trkpt>
      <trkpt lat="46.431422280147672" lon="8.371058078482747">
        <ele>2161.1799999999998</ele>
        <time>2015-08-08T08:55:17Z</time>
      </trkpt>
      <trkpt lat="46.431422950699925" lon="8.371038381010294">
        <ele>2161.6599999999999</ele>
        <time>2015-08-08T08:55:30Z</time>
      </trkpt>
      <trkpt lat="46.43138992600143" lon="8.370999488979578">
        <ele>2163.0999999999999</ele>
        <time>2015-08-08T08:55:41Z</time>
      </trkpt>
      <trkpt lat="46.431356063112617" lon="8.37096001021564">
        <ele>2165.0300000000002</ele>
        <time>2015-08-08T08:55:54Z</time>
      </trkpt>
      <trkpt lat="46.431342735886574" lon="8.370898738503456">
        <ele>2166.9499999999998</ele>
        <time>2015-08-08T08:56:05Z</time>
      </trkpt>
      <trkpt lat="46.431322870776057" lon="8.370841993018985">
        <ele>2168.3899999999999</ele>
        <time>2015-08-08T08:56:16Z</time>
      </trkpt>
      <trkpt lat="46.431310884654522" lon="8.370767729356885">
        <ele>2169.8299999999999</ele>
        <time>2015-08-08T08:56:28Z</time>
      </trkpt>
      <trkpt lat="46.43129613250494" lon="8.370680473744869">
        <ele>2171.7600000000002</ele>
        <time>2015-08-08T08:56:40Z</time>
      </trkpt>
      <trkpt lat="46.431280793622136" lon="8.37061551399529">
        <ele>2174.1599999999999</ele>
        <time>2015-08-08T08:56:51Z</time>
      </trkpt>
      <trkpt lat="46.431276183575392" lon="8.370577124878764">
        <ele>2175.1199999999999</ele>
        <time>2015-08-08T08:57:03Z</time>
      </trkpt>
      <trkpt lat="46.431315410882235" lon="8.370525827631354">
        <ele>2176.0799999999999</ele>
        <time>2015-08-08T08:57:13Z</time>
      </trkpt>
      <trkpt lat="46.431310717016459" lon="8.370457096025348">
        <ele>2178</ele>
        <time>2015-08-08T08:57:23Z</time>
      </trkpt>
      <trkpt lat="46.431309962645173" lon="8.370371935889125">
        <ele>2179.4499999999998</ele>
        <time>2015-08-08T08:57:35Z</time>
      </trkpt>
      <trkpt lat="46.431285236030817" lon="8.370309406891465">
        <ele>2180.8899999999999</ele>
        <time>2015-08-08T08:57:47Z</time>
      </trkpt>
      <trkpt lat="46.431292612105608" lon="8.370237909257412">
        <ele>2182.8099999999999</ele>
        <time>2015-08-08T08:57:59Z</time>
      </trkpt>
      <trkpt lat="46.431280877441168" lon="8.370166998356581">
        <ele>2184.73</ele>
        <time>2015-08-08T08:58:12Z</time>
      </trkpt>
      <trkpt lat="46.431296300143003" lon="8.370147803798318">
        <ele>2185.21</ele>
        <time>2015-08-08T08:58:15Z</time>
      </trkpt>
      <trkpt lat="46.431318512186408" lon="8.370104469358921">
        <ele>2186.1799999999998</ele>
        <time>2015-08-08T08:58:26Z</time>
      </trkpt>
      <trkpt lat="46.431343238800764" lon="8.370094913989306">
        <ele>2186.6599999999999</ele>
        <time>2015-08-08T08:58:34Z</time>
      </trkpt>
      <trkpt lat="46.431334186345339" lon="8.370046131312847">
        <ele>2187.6199999999999</ele>
        <time>2015-08-08T08:58:44Z</time>
      </trkpt>
      <trkpt lat="46.431278362870216" lon="8.369937082752585">
        <ele>2189.0599999999999</ele>
        <time>2015-08-08T08:58:57Z</time>
      </trkpt>
      <trkpt lat="46.431281631812453" lon="8.36992166005075">
        <ele>2189.0599999999999</ele>
        <time>2015-08-08T08:58:59Z</time>
      </trkpt>
      <trkpt lat="46.431285571306944" lon="8.369913529604673">
        <ele>2189.0599999999999</ele>
        <time>2015-08-08T08:59:01Z</time>
      </trkpt>
      <trkpt lat="46.431269645690918" lon="8.369869776070118">
        <ele>2189.0599999999999</ele>
        <time>2015-08-08T08:59:10Z</time>
      </trkpt>
      <trkpt lat="46.431270148605108" lon="8.3698396012187">
        <ele>2190.5</ele>
        <time>2015-08-08T08:59:16Z</time>
      </trkpt>
      <trkpt lat="46.431248020380735" lon="8.369739605113864">
        <ele>2191.46</ele>
        <time>2015-08-08T08:59:24Z</time>
      </trkpt>
      <trkpt lat="46.431215163320303" lon="8.369584875181317">
        <ele>2191.46</ele>
        <time>2015-08-08T08:59:35Z</time>
      </trkpt>
      <trkpt lat="46.431214325129986" lon="8.369554532691836">
        <ele>2191.46</ele>
        <time>2015-08-08T08:59:37Z</time>
      </trkpt>
      <trkpt lat="46.431202422827482" lon="8.369476497173309">
        <ele>2191.9400000000001</ele>
        <time>2015-08-08T08:59:43Z</time>
      </trkpt>
      <trkpt lat="46.431193454191089" lon="8.369366275146604">
        <ele>2193.3899999999999</ele>
        <time>2015-08-08T08:59:53Z</time>
      </trkpt>
      <trkpt lat="46.431185659021139" lon="8.36923417635262">
        <ele>2194.8299999999999</ele>
        <time>2015-08-08T09:00:06Z</time>
      </trkpt>
      <trkpt lat="46.431145258247852" lon="8.369090426713228">
        <ele>2196.27</ele>
        <time>2015-08-08T09:00:18Z</time>
      </trkpt>
      <trkpt lat="46.431155567988753" lon="8.369009206071496">
        <ele>2197.23</ele>
        <time>2015-08-08T09:00:26Z</time>
      </trkpt>
      <trkpt lat="46.431172331795096" lon="8.36891507729888">
        <ele>2198.1900000000001</ele>
        <time>2015-08-08T09:00:35Z</time>
      </trkpt>
      <trkpt lat="46.43120476976037" lon="8.368803095072508">
        <ele>2199.6300000000001</ele>
        <time>2015-08-08T09:00:45Z</time>
      </trkpt>
      <trkpt lat="46.431209379807115" lon="8.368767555803061">
        <ele>2200.1100000000001</ele>
        <time>2015-08-08T09:00:48Z</time>
      </trkpt>
      <trkpt lat="46.431222036480904" lon="8.368638977408409">
        <ele>2202.52</ele>
        <time>2015-08-08T09:01:02Z</time>
      </trkpt>
      <trkpt lat="46.431221533566713" lon="8.368555828928947">
        <ele>2204.4400000000001</ele>
        <time>2015-08-08T09:01:15Z</time>
      </trkpt>
      <trkpt lat="46.431229999288917" lon="8.368486007675529">
        <ele>2205.8800000000001</ele>
        <time>2015-08-08T09:01:24Z</time>
      </trkpt>
      <trkpt lat="46.431205775588751" lon="8.368442254140973">
        <ele>2207.3200000000002</ele>
        <time>2015-08-08T09:01:34Z</time>
      </trkpt>
      <trkpt lat="46.431188676506281" lon="8.368395483121276">
        <ele>2208.77</ele>
        <time>2015-08-08T09:01:43Z</time>
      </trkpt>
      <trkpt lat="46.431168057024479" lon="8.368341503664851">
        <ele>2210.6900000000001</ele>
        <time>2015-08-08T09:01:53Z</time>
      </trkpt>
      <trkpt lat="46.431150957942009" lon="8.36826229467988">
        <ele>2212.1300000000001</ele>
        <time>2015-08-08T09:02:04Z</time>
      </trkpt>
      <trkpt lat="46.431146850809455" lon="8.368274280801415">
        <ele>2212.1300000000001</ele>
        <time>2015-08-08T09:02:12Z</time>
      </trkpt>
      <trkpt lat="46.431132769212127" lon="8.368202950805426">
        <ele>2211.6500000000001</ele>
        <time>2015-08-08T09:02:16Z</time>
      </trkpt>
      <trkpt lat="46.431110724806786" lon="8.368165567517281">
        <ele>2212.1300000000001</ele>
        <time>2015-08-08T09:02:19Z</time>
      </trkpt>
      <trkpt lat="46.431127237156034" lon="8.368079485371709">
        <ele>2212.6100000000001</ele>
        <time>2015-08-08T09:02:28Z</time>
      </trkpt>
      <trkpt lat="46.431116675958037" lon="8.368093986064196">
        <ele>2213.0900000000001</ele>
        <time>2015-08-08T09:02:37Z</time>
      </trkpt>
      <trkpt lat="46.431099157780409" lon="8.368100104853511">
        <ele>2213.0900000000001</ele>
        <time>2015-08-08T09:02:45Z</time>
      </trkpt>
      <trkpt lat="46.431107288226485" lon="8.368097841739655">
        <ele>2212.6100000000001</ele>
        <time>2015-08-08T09:03:03Z</time>
      </trkpt>
      <trkpt lat="46.43109337426722" lon="8.368120724335313">
        <ele>2212.6100000000001</ele>
        <time>2015-08-08T09:03:33Z</time>
      </trkpt>
      <trkpt lat="46.431104186922312" lon="8.368142517283559">
        <ele>2212.6100000000001</ele>
        <time>2015-08-08T09:03:49Z</time>
      </trkpt>
      <trkpt lat="46.43112606368959" lon="8.368138326331973">
        <ele>2213.0900000000001</ele>
        <time>2015-08-08T09:04:09Z</time>
      </trkpt>
      <trkpt lat="46.431104522198439" lon="8.368148719891906">
        <ele>2213.0900000000001</ele>
        <time>2015-08-08T09:04:19Z</time>
      </trkpt>
      <trkpt lat="46.431093290448189" lon="8.368160203099251">
        <ele>2213.0900000000001</ele>
        <time>2015-08-08T09:04:37Z</time>
      </trkpt>
      <trkpt lat="46.431095553562045" lon="8.368134554475546">
        <ele>2213.5700000000002</ele>
        <time>2015-08-08T09:04:54Z</time>
      </trkpt>
      <trkpt lat="46.431071162223816" lon="8.368115108460188">
        <ele>2213.5700000000002</ele>
        <time>2015-08-08T09:05:23Z</time>
      </trkpt>
      <trkpt lat="46.431066719815135" lon="8.368116449564695">
        <ele>2214.0500000000002</ele>
        <time>2015-08-08T09:05:50Z</time>
      </trkpt>
      <trkpt lat="46.431059176102281" lon="8.368128351867199">
        <ele>2214.0500000000002</ele>
        <time>2015-08-08T09:06:19Z</time>
      </trkpt>
      <trkpt lat="46.431071162223816" lon="8.368107983842492">
        <ele>2214.5300000000002</ele>
        <time>2015-08-08T09:06:54Z</time>
      </trkpt>
      <trkpt lat="46.43106596544385" lon="8.368135308846831">
        <ele>2214.5300000000002</ele>
        <time>2015-08-08T09:07:29Z</time>
      </trkpt>
      <trkpt lat="46.431066635996103" lon="8.36813623085618">
        <ele>2215.0100000000002</ele>
        <time>2015-08-08T09:08:04Z</time>
      </trkpt>
      <trkpt lat="46.43104593269527" lon="8.36814645677805">
        <ele>2215.98</ele>
        <time>2015-08-08T09:08:21Z</time>
      </trkpt>
      <trkpt lat="46.431093709543347" lon="8.368144864216447">
        <ele>2215.98</ele>
        <time>2015-08-08T09:08:44Z</time>
      </trkpt>
      <trkpt lat="46.431042747572064" lon="8.368135141208768">
        <ele>2215.0100000000002</ele>
        <time>2015-08-08T09:09:02Z</time>
      </trkpt>
      <trkpt lat="46.4310806337744" lon="8.368086609989405">
        <ele>2215.5</ele>
        <time>2015-08-08T09:09:38Z</time>
      </trkpt>
      <trkpt lat="46.431040735915303" lon="8.368119969964027">
        <ele>2215.98</ele>
        <time>2015-08-08T09:10:14Z</time>
      </trkpt>
      <trkpt lat="46.431086333468556" lon="8.368111252784729">
        <ele>2216.46</ele>
        <time>2015-08-08T09:10:46Z</time>
      </trkpt>
      <trkpt lat="46.431095134466887" lon="8.368115276098251">
        <ele>2217.4200000000001</ele>
        <time>2015-08-08T09:10:58Z</time>
      </trkpt>
      <trkpt lat="46.431093625724316" lon="8.368123825639486">
        <ele>2215.98</ele>
        <time>2015-08-08T09:11:00Z</time>
      </trkpt>
      <trkpt lat="46.431076359003782" lon="8.368107480928302">
        <ele>2216.46</ele>
        <time>2015-08-08T09:11:28Z</time>
      </trkpt>
      <trkpt lat="46.431071497499943" lon="8.368115862831473">
        <ele>2216.46</ele>
        <time>2015-08-08T09:12:05Z</time>
      </trkpt>
      <trkpt lat="46.431081555783749" lon="8.368117874488235">
        <ele>2216.9400000000001</ele>
        <time>2015-08-08T09:12:35Z</time>
      </trkpt>
      <trkpt lat="46.431079125031829" lon="8.368144109845161">
        <ele>2217.4200000000001</ele>
        <time>2015-08-08T09:13:00Z</time>
      </trkpt>
      <trkpt lat="46.43107183277607" lon="8.368103373795748">
        <ele>2217.9000000000001</ele>
        <time>2015-08-08T09:13:32Z</time>
      </trkpt>
      <trkpt lat="46.431115251034498" lon="8.368080826476216">
        <ele>2217.9000000000001</ele>
        <time>2015-08-08T09:13:56Z</time>
      </trkpt>
      <trkpt lat="46.431111982092261" lon="8.368091052398086">
        <ele>2218.3800000000001</ele>
        <time>2015-08-08T09:14:33Z</time>
      </trkpt>
      <trkpt lat="46.431102845817804" lon="8.36808392778039">
        <ele>2218.3800000000001</ele>
        <time>2015-08-08T09:15:05Z</time>
      </trkpt>
      <trkpt lat="46.43112656660378" lon="8.368052579462528">
        <ele>2218.8600000000001</ele>
        <time>2015-08-08T09:15:37Z</time>
      </trkpt>
      <trkpt lat="46.431124974042177" lon="8.368057524785399">
        <ele>2218.8600000000001</ele>
        <time>2015-08-08T09:16:05Z</time>
      </trkpt>
      <trkpt lat="46.431121872738004" lon="8.368072612211108">
        <ele>2219.3400000000001</ele>
        <time>2015-08-08T09:16:42Z</time>
      </trkpt>
      <trkpt lat="46.431129919365048" lon="8.36806682869792">
        <ele>2219.3400000000001</ele>
        <time>2015-08-08T09:17:13Z</time>
      </trkpt>
      <trkpt lat="46.431120028719306" lon="8.368087029084563">
        <ele>2219.3400000000001</ele>
        <time>2015-08-08T09:17:46Z</time>
      </trkpt>
      <trkpt lat="46.431098319590092" lon="8.368100607767701">
        <ele>2219.3400000000001</ele>
        <time>2015-08-08T09:18:13Z</time>
      </trkpt>
      <trkpt lat="46.431107372045517" lon="8.368092980235815">
        <ele>2219.3400000000001</ele>
        <time>2015-08-08T09:18:44Z</time>
      </trkpt>
      <trkpt lat="46.431105528026819" lon="8.368085771799088">
        <ele>2219.3400000000001</ele>
        <time>2015-08-08T09:19:12Z</time>
      </trkpt>
      <trkpt lat="46.431108629330993" lon="8.368083173409104">
        <ele>2219.3400000000001</ele>
        <time>2015-08-08T09:19:29Z</time>
      </trkpt>
      <trkpt lat="46.431096475571394" lon="8.368109492585063">
        <ele>2219.3400000000001</ele>
        <time>2015-08-08T09:20:02Z</time>
      </trkpt>
      <trkpt lat="46.431100163608789" lon="8.36810790002346">
        <ele>2219.3400000000001</ele>
        <time>2015-08-08T09:20:33Z</time>
      </trkpt>
      <trkpt lat="46.431128829717636" lon="8.368109744042158">
        <ele>2219.3400000000001</ele>
        <time>2015-08-08T09:20:51Z</time>
      </trkpt>
      <trkpt lat="46.431098906323314" lon="8.368081161752343">
        <ele>2220.3000000000002</ele>
        <time>2015-08-08T09:21:10Z</time>
      </trkpt>
      <trkpt lat="46.431111479178071" lon="8.368033636361361">
        <ele>2220.7800000000002</ele>
        <time>2015-08-08T09:21:19Z</time>
      </trkpt>
      <trkpt lat="46.431129248812795" lon="8.368048975244165">
        <ele>2220.7800000000002</ele>
        <time>2015-08-08T09:21:42Z</time>
      </trkpt>
      <trkpt lat="46.431075353175402" lon="8.36800673045218">
        <ele>2221.2600000000002</ele>
        <time>2015-08-08T09:22:07Z</time>
      </trkpt>
      <trkpt lat="46.431083399802446" lon="8.368052747100592">
        <ele>2220.7800000000002</ele>
        <time>2015-08-08T09:22:21Z</time>
      </trkpt>
      <trkpt lat="46.4310840703547" lon="8.368063308298588">
        <ele>2220.7800000000002</ele>
        <time>2015-08-08T09:22:35Z</time>
      </trkpt>
      <trkpt lat="46.431099073961377" lon="8.36808929219842">
        <ele>2221.2600000000002</ele>
        <time>2015-08-08T09:22:46Z</time>
      </trkpt>
      <trkpt lat="46.4311099704355" lon="8.368063140660524">
        <ele>2221.2600000000002</ele>
        <time>2015-08-08T09:23:01Z</time>
      </trkpt>
      <trkpt lat="46.431097397580743" lon="8.368055932223797">
        <ele>2220.7800000000002</ele>
        <time>2015-08-08T09:23:13Z</time>
      </trkpt>
      <trkpt lat="46.431103767827153" lon="8.368052914738655">
        <ele>2220.7800000000002</ele>
        <time>2015-08-08T09:23:28Z</time>
      </trkpt>
      <trkpt lat="46.431105276569724" lon="8.367993570864201">
        <ele>2221.2600000000002</ele>
        <time>2015-08-08T09:23:38Z</time>
      </trkpt>
      <trkpt lat="46.431134445592761" lon="8.367863148450851">
        <ele>2222.2199999999998</ele>
        <time>2015-08-08T09:23:49Z</time>
      </trkpt>
      <trkpt lat="46.431115753948689" lon="8.367748651653528">
        <ele>2222.71</ele>
        <time>2015-08-08T09:23:59Z</time>
      </trkpt>
      <trkpt lat="46.431102678179741" lon="8.367644129320979">
        <ele>2223.6700000000001</ele>
        <time>2015-08-08T09:24:10Z</time>
      </trkpt>
      <trkpt lat="46.431071413680911" lon="8.36754010990262">
        <ele>2225.1100000000001</ele>
        <time>2015-08-08T09:24:22Z</time>
      </trkpt>
      <trkpt lat="46.431017015129328" lon="8.367410525679588">
        <ele>2226.0700000000002</ele>
        <time>2015-08-08T09:24:35Z</time>
      </trkpt>
      <trkpt lat="46.431028917431831" lon="8.367277253419161">
        <ele>2227.0300000000002</ele>
        <time>2015-08-08T09:24:45Z</time>
      </trkpt>
      <trkpt lat="46.431010309606791" lon="8.367167785763741">
        <ele>2227.9899999999998</ele>
        <time>2015-08-08T09:24:56Z</time>
      </trkpt>
      <trkpt lat="46.430980134755373" lon="8.367076506838203">
        <ele>2229.9200000000001</ele>
        <time>2015-08-08T09:25:06Z</time>
      </trkpt>
      <trkpt lat="46.430942751467228" lon="8.366946252062917">
        <ele>2229.9200000000001</ele>
        <time>2015-08-08T09:25:16Z</time>
      </trkpt>
      <trkpt lat="46.430897070094943" lon="8.366831671446562">
        <ele>2229.4299999999998</ele>
        <time>2015-08-08T09:25:25Z</time>
      </trkpt>
      <trkpt lat="46.430803276598454" lon="8.366697644814849">
        <ele>2228.4699999999998</ele>
        <time>2015-08-08T09:25:39Z</time>
      </trkpt>
      <trkpt lat="46.430787267163396" lon="8.366559343412519">
        <ele>2227.9899999999998</ele>
        <time>2015-08-08T09:25:51Z</time>
      </trkpt>
      <trkpt lat="46.430736389011145" lon="8.36655305698514">
        <ele>2226.0700000000002</ele>
        <time>2015-08-08T09:26:01Z</time>
      </trkpt>
      <trkpt lat="46.430758098140359" lon="8.366518523544073">
        <ele>2225.5900000000001</ele>
        <time>2015-08-08T09:26:09Z</time>
      </trkpt>
      <trkpt lat="46.430760864168406" lon="8.366507291793823">
        <ele>2225.5900000000001</ele>
        <time>2015-08-08T09:26:18Z</time>
      </trkpt>
      <trkpt lat="46.430755080655217" lon="8.366510896012187">
        <ele>2225.5900000000001</ele>
        <time>2015-08-08T09:26:30Z</time>
      </trkpt>
      <trkpt lat="46.430739909410477" lon="8.366524139419198">
        <ele>2225.1100000000001</ele>
        <time>2015-08-08T09:26:51Z</time>
      </trkpt>
      <trkpt lat="46.430758181959391" lon="8.366523468866944">
        <ele>2225.1100000000001</ele>
        <time>2015-08-08T09:27:26Z</time>
      </trkpt>
      <trkpt lat="46.430781986564398" lon="8.366526905447245">
        <ele>2225.1100000000001</ele>
        <time>2015-08-08T09:27:46Z</time>
      </trkpt>
      <trkpt lat="46.430743094533682" lon="8.366512740030885">
        <ele>2225.1100000000001</ele>
        <time>2015-08-08T09:28:11Z</time>
      </trkpt>
      <trkpt lat="46.430760696530342" lon="8.366511147469282">
        <ele>2225.5900000000001</ele>
        <time>2015-08-08T09:28:39Z</time>
      </trkpt>
      <trkpt lat="46.430797660723329" lon="8.366527995094657">
        <ele>2225.1100000000001</ele>
        <time>2015-08-08T09:29:04Z</time>
      </trkpt>
      <trkpt lat="46.430776035413146" lon="8.366504441946745">
        <ele>2226.0700000000002</ele>
        <time>2015-08-08T09:29:22Z</time>
      </trkpt>
      <trkpt lat="46.430774023756385" lon="8.366498574614525">
        <ele>2226.0700000000002</ele>
        <time>2015-08-08T09:29:30Z</time>
      </trkpt>
      <trkpt lat="46.430767234414816" lon="8.366492288187146">
        <ele>2226.5500000000002</ele>
        <time>2015-08-08T09:29:43Z</time>
      </trkpt>
      <trkpt lat="46.430744351819158" lon="8.366510979831219">
        <ele>2226.0700000000002</ele>
        <time>2015-08-08T09:29:53Z</time>
      </trkpt>
      <trkpt lat="46.430690540000796" lon="8.366535874083638">
        <ele>2226.5500000000002</ele>
        <time>2015-08-08T09:30:03Z</time>
      </trkpt>
      <trkpt lat="46.430621221661568" lon="8.366507040336728">
        <ele>2227.0300000000002</ele>
        <time>2015-08-08T09:30:14Z</time>
      </trkpt>
      <trkpt lat="46.430587945505977" lon="8.366541909053922">
        <ele>2227.9899999999998</ele>
        <time>2015-08-08T09:30:22Z</time>
      </trkpt>
      <trkpt lat="46.430554836988449" lon="8.366518188267946">
        <ele>2228.9499999999998</ele>
        <time>2015-08-08T09:30:31Z</time>
      </trkpt>
      <trkpt lat="46.430527428165078" lon="8.366503519937396">
        <ele>2230.8800000000001</ele>
        <time>2015-08-08T09:30:40Z</time>
      </trkpt>
      <trkpt lat="46.430500186979771" lon="8.366445852443576">
        <ele>2232.3200000000002</ele>
        <time>2015-08-08T09:30:51Z</time>
      </trkpt>
      <trkpt lat="46.430426426231861" lon="8.366467980667949">
        <ele>2233.7600000000002</ele>
        <time>2015-08-08T09:31:01Z</time>
      </trkpt>
      <trkpt lat="46.43038971349597" lon="8.366430345922709">
        <ele>2235.6799999999998</ele>
        <time>2015-08-08T09:31:13Z</time>
      </trkpt>
      <trkpt lat="46.430341182276607" lon="8.366385670378804">
        <ele>2237.6100000000001</ele>
        <time>2015-08-08T09:31:25Z</time>
      </trkpt>
      <trkpt lat="46.430319640785456" lon="8.366304282099009">
        <ele>2239.0500000000002</ele>
        <time>2015-08-08T09:31:35Z</time>
      </trkpt>
      <trkpt lat="46.430295584723353" lon="8.366199173033238">
        <ele>2240.0100000000002</ele>
        <time>2015-08-08T09:31:45Z</time>
      </trkpt>
      <trkpt lat="46.43026658333838" lon="8.366116778925061">
        <ele>2241.4499999999998</ele>
        <time>2015-08-08T09:31:57Z</time>
      </trkpt>
      <trkpt lat="46.430220985785127" lon="8.366072690114379">
        <ele>2243.3699999999999</ele>
        <time>2015-08-08T09:32:08Z</time>
      </trkpt>
      <trkpt lat="46.43015518784523" lon="8.366082329303026">
        <ele>2245.3000000000002</ele>
        <time>2015-08-08T09:32:20Z</time>
      </trkpt>
      <trkpt lat="46.430095005780458" lon="8.366047209128737">
        <ele>2247.2199999999998</ele>
        <time>2015-08-08T09:32:32Z</time>
      </trkpt>
      <trkpt lat="46.430048486217856" lon="8.366012340411544">
        <ele>2248.6599999999999</ele>
        <time>2015-08-08T09:32:43Z</time>
      </trkpt>
      <trkpt lat="46.429989393800497" lon="8.366013513877988">
        <ele>2250.0999999999999</ele>
        <time>2015-08-08T09:32:58Z</time>
      </trkpt>
      <trkpt lat="46.429931642487645" lon="8.366012843325734">
        <ele>2252.5100000000002</ele>
        <time>2015-08-08T09:33:08Z</time>
      </trkpt>
      <trkpt lat="46.429866263642907" lon="8.366032959893346">
        <ele>2253.4699999999998</ele>
        <time>2015-08-08T09:33:20Z</time>
      </trkpt>
      <trkpt lat="46.429820917546749" lon="8.366019800305367">
        <ele>2254.9099999999999</ele>
        <time>2015-08-08T09:33:29Z</time>
      </trkpt>
      <trkpt lat="46.429761322215199" lon="8.366041593253613">
        <ele>2256.3499999999999</ele>
        <time>2015-08-08T09:33:40Z</time>
      </trkpt>
      <trkpt lat="46.429710108786821" lon="8.366017788648605">
        <ele>2258.27</ele>
        <time>2015-08-08T09:33:50Z</time>
      </trkpt>
      <trkpt lat="46.429654201492667" lon="8.366036312654614">
        <ele>2259.7199999999998</ele>
        <time>2015-08-08T09:34:02Z</time>
      </trkpt>
      <trkpt lat="46.4296196680516" lon="8.366016028448939">
        <ele>2261.1599999999999</ele>
        <time>2015-08-08T09:34:12Z</time>
      </trkpt>
      <trkpt lat="46.429602485150099" lon="8.365990044549108">
        <ele>2263.0799999999999</ele>
        <time>2015-08-08T09:34:20Z</time>
      </trkpt>
      <trkpt lat="46.429565772414207" lon="8.36598333902657">
        <ele>2264.04</ele>
        <time>2015-08-08T09:34:29Z</time>
      </trkpt>
      <trkpt lat="46.42950726673007" lon="8.3659593667835">
        <ele>2265.48</ele>
        <time>2015-08-08T09:34:39Z</time>
      </trkpt>
      <trkpt lat="46.429473320022225" lon="8.365964479744434">
        <ele>2266.4499999999998</ele>
        <time>2015-08-08T09:34:49Z</time>
      </trkpt>
      <trkpt lat="46.429403079673648" lon="8.365933215245605">
        <ele>2268.8499999999999</ele>
        <time>2015-08-08T09:35:01Z</time>
      </trkpt>
      <trkpt lat="46.429367959499359" lon="8.365903710946441">
        <ele>2270.77</ele>
        <time>2015-08-08T09:35:12Z</time>
      </trkpt>
      <trkpt lat="46.429321020841599" lon="8.365816036239266">
        <ele>2272.6900000000001</ele>
        <time>2015-08-08T09:35:24Z</time>
      </trkpt>
      <trkpt lat="46.429274082183838" lon="8.365763816982508">
        <ele>2274.1399999999999</ele>
        <time>2015-08-08T09:35:34Z</time>
      </trkpt>
      <trkpt lat="46.429253043606877" lon="8.365733390673995">
        <ele>2274.1399999999999</ele>
        <time>2015-08-08T09:35:38Z</time>
      </trkpt>
      <trkpt lat="46.429215576499701" lon="8.365614200010896">
        <ele>2275.0999999999999</ele>
        <time>2015-08-08T09:35:50Z</time>
      </trkpt>
      <trkpt lat="46.429174924269319" lon="8.365539936348796">
        <ele>2276.54</ele>
        <time>2015-08-08T09:36:01Z</time>
      </trkpt>
      <trkpt lat="46.429112311452627" lon="8.365489477291703">
        <ele>2277.5</ele>
        <time>2015-08-08T09:36:11Z</time>
      </trkpt>
      <trkpt lat="46.429076520726085" lon="8.365401215851307">
        <ele>2278.9400000000001</ele>
        <time>2015-08-08T09:36:21Z</time>
      </trkpt>
      <trkpt lat="46.429041316732764" lon="8.365319157019258">
        <ele>2279.9000000000001</ele>
        <time>2015-08-08T09:36:31Z</time>
      </trkpt>
      <trkpt lat="46.429021367803216" lon="8.365203235298395">
        <ele>2280.8699999999999</ele>
        <time>2015-08-08T09:36:43Z</time>
      </trkpt>
      <trkpt lat="46.429016003385186" lon="8.365141795948148">
        <ele>2281.3499999999999</ele>
        <time>2015-08-08T09:36:53Z</time>
      </trkpt>
      <trkpt lat="46.429010974243283" lon="8.365065436810255">
        <ele>2282.79</ele>
        <time>2015-08-08T09:37:04Z</time>
      </trkpt>
      <trkpt lat="46.429027318954468" lon="8.364991173148155">
        <ele>2284.23</ele>
        <time>2015-08-08T09:37:14Z</time>
      </trkpt>
      <trkpt lat="46.429052129387856" lon="8.364968625828624">
        <ele>2285.6700000000001</ele>
        <time>2015-08-08T09:37:27Z</time>
      </trkpt>
      <trkpt lat="46.429061936214566" lon="8.364893104881048">
        <ele>2288.0799999999999</ele>
        <time>2015-08-08T09:37:41Z</time>
      </trkpt>
      <trkpt lat="46.429050117731094" lon="8.364858319982886">
        <ele>2289.04</ele>
        <time>2015-08-08T09:37:51Z</time>
      </trkpt>
      <trkpt lat="46.429041065275669" lon="8.364786319434643">
        <ele>2291.4400000000001</ele>
        <time>2015-08-08T09:38:02Z</time>
      </trkpt>
      <trkpt lat="46.429000245407224" lon="8.36474952287972">
        <ele>2293.3600000000001</ele>
        <time>2015-08-08T09:38:13Z</time>
      </trkpt>
      <trkpt lat="46.428957330062985" lon="8.364776512607932">
        <ele>2293.8400000000001</ele>
        <time>2015-08-08T09:38:24Z</time>
      </trkpt>
      <trkpt lat="46.428905026987195" lon="8.364747762680054">
        <ele>2295.77</ele>
        <time>2015-08-08T09:38:36Z</time>
      </trkpt>
      <trkpt lat="46.4289082121104" lon="8.364678528159857">
        <ele>2297.21</ele>
        <time>2015-08-08T09:38:46Z</time>
      </trkpt>
      <trkpt lat="46.428908295929432" lon="8.36455699056387">
        <ele>2299.6100000000001</ele>
        <time>2015-08-08T09:38:58Z</time>
      </trkpt>
      <trkpt lat="46.428878456354141" lon="8.364456659182906">
        <ele>2300.5700000000002</ele>
        <time>2015-08-08T09:39:09Z</time>
      </trkpt>
      <trkpt lat="46.42885054461658" lon="8.364323554560542">
        <ele>2300.5700000000002</ele>
        <time>2015-08-08T09:39:19Z</time>
      </trkpt>
      <trkpt lat="46.428787596523762" lon="8.364219618961215">
        <ele>2301.0500000000002</ele>
        <time>2015-08-08T09:39:30Z</time>
      </trkpt>
      <trkpt lat="46.428725905716419" lon="8.364065643399954">
        <ele>2302.0100000000002</ele>
        <time>2015-08-08T09:39:43Z</time>
      </trkpt>
      <trkpt lat="46.428714506328106" lon="8.363837990909815">
        <ele>2302.0100000000002</ele>
        <time>2015-08-08T09:39:56Z</time>
      </trkpt>
      <trkpt lat="46.428655246272683" lon="8.363680662587285">
        <ele>2302.4899999999998</ele>
        <time>2015-08-08T09:40:08Z</time>
      </trkpt>
      <trkpt lat="46.428625909611583" lon="8.363506067544222">
        <ele>2302.0100000000002</ele>
        <time>2015-08-08T09:40:19Z</time>
      </trkpt>
      <trkpt lat="46.428608056157827" lon="8.363320576027036">
        <ele>2302.0100000000002</ele>
        <time>2015-08-08T09:40:31Z</time>
      </trkpt>
      <trkpt lat="46.428624484688044" lon="8.363142628222704">
        <ele>2302.98</ele>
        <time>2015-08-08T09:40:42Z</time>
      </trkpt>
      <trkpt lat="46.428596908226609" lon="8.363059228286147">
        <ele>2304.9000000000001</ele>
        <time>2015-08-08T09:40:52Z</time>
      </trkpt>
      <trkpt lat="46.42857545055449" lon="8.363002985715866">
        <ele>2307.3000000000002</ele>
        <time>2015-08-08T09:41:01Z</time>
      </trkpt>
      <trkpt lat="46.42856128513813" lon="8.36294112727046">
        <ele>2308.7399999999998</ele>
        <time>2015-08-08T09:41:11Z</time>
      </trkpt>
      <trkpt lat="46.428570756688714" lon="8.362834174185991">
        <ele>2309.6999999999998</ele>
        <time>2015-08-08T09:41:20Z</time>
      </trkpt>
      <trkpt lat="46.428557680919766" lon="8.362777596339583">
        <ele>2310.6700000000001</ele>
        <time>2015-08-08T09:41:30Z</time>
      </trkpt>
      <trkpt lat="46.428547371178865" lon="8.362692855298519">
        <ele>2311.6300000000001</ele>
        <time>2015-08-08T09:41:40Z</time>
      </trkpt>
      <trkpt lat="46.428529350087047" lon="8.362613143399358">
        <ele>2314.0300000000002</ele>
        <time>2015-08-08T09:41:50Z</time>
      </trkpt>
      <trkpt lat="46.428508143872023" lon="8.362543405964971">
        <ele>2314.9899999999998</ele>
        <time>2015-08-08T09:42:01Z</time>
      </trkpt>
      <trkpt lat="46.428470257669687" lon="8.362559750676155">
        <ele>2317.4000000000001</ele>
        <time>2015-08-08T09:42:11Z</time>
      </trkpt>
      <trkpt lat="46.428441423922777" lon="8.362536784261465">
        <ele>2319.3200000000002</ele>
        <time>2015-08-08T09:42:20Z</time>
      </trkpt>
      <trkpt lat="46.428419798612595" lon="8.362489426508546">
        <ele>2321.7199999999998</ele>
        <time>2015-08-08T09:42:29Z</time>
      </trkpt>
      <trkpt lat="46.428384007886052" lon="8.362411558628082">
        <ele>2323.1599999999999</ele>
        <time>2015-08-08T09:42:42Z</time>
      </trkpt>
      <trkpt lat="46.428348552435637" lon="8.362349951639772">
        <ele>2325.0900000000001</ele>
        <time>2015-08-08T09:42:55Z</time>
      </trkpt>
      <trkpt lat="46.428284598514438" lon="8.362325811758637">
        <ele>2327.0100000000002</ele>
        <time>2015-08-08T09:43:06Z</time>
      </trkpt>
      <trkpt lat="46.428262386471033" lon="8.362288009375334">
        <ele>2327.4899999999998</ele>
        <time>2015-08-08T09:43:11Z</time>
      </trkpt>
      <trkpt lat="46.428197426721454" lon="8.362188516184688">
        <ele>2328.9299999999998</ele>
        <time>2015-08-08T09:43:25Z</time>
      </trkpt>
      <trkpt lat="46.428163312375546" lon="8.362100422382355">
        <ele>2331.8099999999999</ele>
        <time>2015-08-08T09:43:36Z</time>
      </trkpt>
      <trkpt lat="46.428110087290406" lon="8.362003024667501">
        <ele>2333.2600000000002</ele>
        <time>2015-08-08T09:43:49Z</time>
      </trkpt>
      <trkpt lat="46.428075470030308" lon="8.361887773498893">
        <ele>2335.1799999999998</ele>
        <time>2015-08-08T09:44:01Z</time>
      </trkpt>
      <trkpt lat="46.428059041500092" lon="8.361783670261502">
        <ele>2336.6199999999999</ele>
        <time>2015-08-08T09:44:11Z</time>
      </trkpt>
      <trkpt lat="46.428060382604599" lon="8.361728265881538">
        <ele>2338.0599999999999</ele>
        <time>2015-08-08T09:44:23Z</time>
      </trkpt>
      <trkpt lat="46.428072284907103" lon="8.361701527610421">
        <ele>2338.0599999999999</ele>
        <time>2015-08-08T09:44:40Z</time>
      </trkpt>
      <trkpt lat="46.428032889962196" lon="8.361669508740306">
        <ele>2338.54</ele>
        <time>2015-08-08T09:44:55Z</time>
      </trkpt>
      <trkpt lat="46.427993578836322" lon="8.361620977520943">
        <ele>2341.9099999999999</ele>
        <time>2015-08-08T09:45:06Z</time>
      </trkpt>
      <trkpt lat="46.427991902455688" lon="8.361602704972029">
        <ele>2342.8699999999999</ele>
        <time>2015-08-08T09:45:08Z</time>
      </trkpt>
      <trkpt lat="46.427942868322134" lon="8.361537326127291">
        <ele>2343.8299999999999</ele>
        <time>2015-08-08T09:45:19Z</time>
      </trkpt>
      <trkpt lat="46.427907664328814" lon="8.361487537622452">
        <ele>2345.27</ele>
        <time>2015-08-08T09:45:35Z</time>
      </trkpt>
      <trkpt lat="46.427867766469717" lon="8.36141562089324">
        <ele>2347.1999999999998</ele>
        <time>2015-08-08T09:45:48Z</time>
      </trkpt>
      <trkpt lat="46.427840776741505" lon="8.361298022791743">
        <ele>2349.5999999999999</ele>
        <time>2015-08-08T09:46:02Z</time>
      </trkpt>
      <trkpt lat="46.427843878045678" lon="8.36118989624083">
        <ele>2351.52</ele>
        <time>2015-08-08T09:46:15Z</time>
      </trkpt>
      <trkpt lat="46.427829209715128" lon="8.361115381121635">
        <ele>2353.9299999999998</ele>
        <time>2015-08-08T09:46:26Z</time>
      </trkpt>
      <trkpt lat="46.427820660173893" lon="8.361017145216465">
        <ele>2355.8499999999999</ele>
        <time>2015-08-08T09:46:39Z</time>
      </trkpt>
      <trkpt lat="46.427801214158535" lon="8.360902480781078">
        <ele>2358.25</ele>
        <time>2015-08-08T09:46:52Z</time>
      </trkpt>
      <trkpt lat="46.427789311856031" lon="8.360801646485925">
        <ele>2360.1700000000001</ele>
        <time>2015-08-08T09:47:03Z</time>
      </trkpt>
      <trkpt lat="46.427778247743845" lon="8.360697291791439">
        <ele>2361.6199999999999</ele>
        <time>2015-08-08T09:47:14Z</time>
      </trkpt>
      <trkpt lat="46.427757628262043" lon="8.360611377283931">
        <ele>2363.54</ele>
        <time>2015-08-08T09:47:27Z</time>
      </trkpt>
      <trkpt lat="46.427736841142178" lon="8.360561169683933">
        <ele>2365.46</ele>
        <time>2015-08-08T09:47:38Z</time>
      </trkpt>
      <trkpt lat="46.427722927182913" lon="8.360534934327006">
        <ele>2366.9000000000001</ele>
        <time>2015-08-08T09:47:42Z</time>
      </trkpt>
      <trkpt lat="46.427708677947521" lon="8.360445499420166">
        <ele>2368.3499999999999</ele>
        <time>2015-08-08T09:47:55Z</time>
      </trkpt>
      <trkpt lat="46.427686298266053" lon="8.360373917967081">
        <ele>2370.27</ele>
        <time>2015-08-08T09:48:08Z</time>
      </trkpt>
      <trkpt lat="46.42764899879694" lon="8.360297307372093">
        <ele>2372.6700000000001</ele>
        <time>2015-08-08T09:48:20Z</time>
      </trkpt>
      <trkpt lat="46.427599294111133" lon="8.360266294330359">
        <ele>2374.5900000000001</ele>
        <time>2015-08-08T09:48:32Z</time>
      </trkpt>
      <trkpt lat="46.427551601082087" lon="8.360152468085289">
        <ele>2376.52</ele>
        <time>2015-08-08T09:48:46Z</time>
      </trkpt>
      <trkpt lat="46.427522180601954" lon="8.360130926594138">
        <ele>2377.48</ele>
        <time>2015-08-08T09:48:57Z</time>
      </trkpt>
      <trkpt lat="46.42752536572516" lon="8.360071750357747">
        <ele>2377.96</ele>
        <time>2015-08-08T09:49:10Z</time>
      </trkpt>
      <trkpt lat="46.427490497007966" lon="8.359939986839891">
        <ele>2378.9200000000001</ele>
        <time>2015-08-08T09:49:22Z</time>
      </trkpt>
      <trkpt lat="46.427470464259386" lon="8.359810402616859">
        <ele>2381.8000000000002</ele>
        <time>2015-08-08T09:49:35Z</time>
      </trkpt>
      <trkpt lat="46.427424531430006" lon="8.359735468402505">
        <ele>2384.21</ele>
        <time>2015-08-08T09:49:49Z</time>
      </trkpt>
      <trkpt lat="46.427377676591277" lon="8.359693894162774">
        <ele>2385.6500000000001</ele>
        <time>2015-08-08T09:50:00Z</time>
      </trkpt>
      <trkpt lat="46.427346663549542" lon="8.359624575823546">
        <ele>2387.5700000000002</ele>
        <time>2015-08-08T09:50:10Z</time>
      </trkpt>
      <trkpt lat="46.427325792610645" lon="8.35951485671103">
        <ele>2389.4899999999998</ele>
        <time>2015-08-08T09:50:23Z</time>
      </trkpt>
      <trkpt lat="46.427300730720162" lon="8.359384685754776">
        <ele>2391.9000000000001</ele>
        <time>2015-08-08T09:50:36Z</time>
      </trkpt>
      <trkpt lat="46.427298802882433" lon="8.359358115121722">
        <ele>2391.9000000000001</ele>
        <time>2015-08-08T09:50:39Z</time>
      </trkpt>
      <trkpt lat="46.427306346595287" lon="8.359331293031573">
        <ele>2392.3800000000001</ele>
        <time>2015-08-08T09:50:41Z</time>
      </trkpt>
      <trkpt lat="46.42726443707943" lon="8.359216041862965">
        <ele>2394.3000000000002</ele>
        <time>2015-08-08T09:50:54Z</time>
      </trkpt>
      <trkpt lat="46.427255552262068" lon="8.35917379707098">
        <ele>2395.2600000000002</ele>
        <time>2015-08-08T09:50:57Z</time>
      </trkpt>
      <trkpt lat="46.427210625261068" lon="8.359053516760469">
        <ele>2396.2199999999998</ele>
        <time>2015-08-08T09:51:10Z</time>
      </trkpt>
      <trkpt lat="46.427160166203976" lon="8.358953101560473">
        <ele>2398.1500000000001</ele>
        <time>2015-08-08T09:51:23Z</time>
      </trkpt>
      <trkpt lat="46.427109707146883" lon="8.358837012201548">
        <ele>2400.5500000000002</ele>
        <time>2015-08-08T09:51:35Z</time>
      </trkpt>
      <trkpt lat="46.427093697711825" lon="8.358734585344791">
        <ele>2401.9899999999998</ele>
        <time>2015-08-08T09:51:46Z</time>
      </trkpt>
      <trkpt lat="46.427042651921511" lon="8.358627632260323">
        <ele>2404.3899999999999</ele>
        <time>2015-08-08T09:52:00Z</time>
      </trkpt>
      <trkpt lat="46.427014153450727" lon="8.358546830713749">
        <ele>2406.3200000000002</ele>
        <time>2015-08-08T09:52:12Z</time>
      </trkpt>
      <trkpt lat="46.426989259198308" lon="8.358486732468009">
        <ele>2408.2399999999998</ele>
        <time>2015-08-08T09:52:22Z</time>
      </trkpt>
      <trkpt lat="46.426945338025689" lon="8.358383215963841">
        <ele>2410.1599999999999</ele>
        <time>2015-08-08T09:52:34Z</time>
      </trkpt>
      <trkpt lat="46.426925975829363" lon="8.358323536813259">
        <ele>2411.1199999999999</ele>
        <time>2015-08-08T09:52:46Z</time>
      </trkpt>
      <trkpt lat="46.426929831504822" lon="8.358314651995897">
        <ele>2410.6399999999999</ele>
        <time>2015-08-08T09:53:03Z</time>
      </trkpt>
      <trkpt lat="46.426947433501482" lon="8.358299899846315">
        <ele>2411.5999999999999</ele>
        <time>2015-08-08T09:53:28Z</time>
      </trkpt>
      <trkpt lat="46.426920527592301" lon="8.358315657824278">
        <ele>2411.1199999999999</ele>
        <time>2015-08-08T09:53:46Z</time>
      </trkpt>
      <trkpt lat="46.426914157345891" lon="8.358319094404578">
        <ele>2411.5999999999999</ele>
        <time>2015-08-08T09:54:03Z</time>
      </trkpt>
      <trkpt lat="46.426911475136876" lon="8.358339546248317">
        <ele>2411.5999999999999</ele>
        <time>2015-08-08T09:54:21Z</time>
      </trkpt>
      <trkpt lat="46.426892867311835" lon="8.358304258435965">
        <ele>2412.0900000000001</ele>
        <time>2015-08-08T09:54:41Z</time>
      </trkpt>
      <trkpt lat="46.426856322214007" lon="8.358157491311431">
        <ele>2414.4899999999998</ele>
        <time>2015-08-08T09:54:54Z</time>
      </trkpt>
      <trkpt lat="46.42681784927845" lon="8.358045173808932">
        <ele>2416.8899999999999</ele>
        <time>2015-08-08T09:55:07Z</time>
      </trkpt>
      <trkpt lat="46.426791194826365" lon="8.357905028387904">
        <ele>2417.8499999999999</ele>
        <time>2015-08-08T09:55:18Z</time>
      </trkpt>
      <trkpt lat="46.426771162077785" lon="8.357802014797926">
        <ele>2419.3000000000002</ele>
        <time>2015-08-08T09:55:29Z</time>
      </trkpt>
      <trkpt lat="46.426746184006333" lon="8.357752477750182">
        <ele>2420.7399999999998</ele>
        <time>2015-08-08T09:55:38Z</time>
      </trkpt>
      <trkpt lat="46.426749620586634" lon="8.357653403654695">
        <ele>2422.6599999999999</ele>
        <time>2015-08-08T09:55:50Z</time>
      </trkpt>
      <trkpt lat="46.426716595888138" lon="8.357588360086083">
        <ele>2424.5799999999999</ele>
        <time>2015-08-08T09:56:01Z</time>
      </trkpt>
      <trkpt lat="46.426711147651076" lon="8.357518874108791">
        <ele>2426.5</ele>
        <time>2015-08-08T09:56:10Z</time>
      </trkpt>
      <trkpt lat="46.426685331389308" lon="8.357457183301449">
        <ele>2427.9499999999998</ele>
        <time>2015-08-08T09:56:18Z</time>
      </trkpt>
      <trkpt lat="46.426677787676454" lon="8.35738685913384">
        <ele>2429.3899999999999</ele>
        <time>2015-08-08T09:56:27Z</time>
      </trkpt>
      <trkpt lat="46.4266771171242" lon="8.357242774218321">
        <ele>2430.3499999999999</ele>
        <time>2015-08-08T09:56:38Z</time>
      </trkpt>
      <trkpt lat="46.426650462672114" lon="8.357118386775255">
        <ele>2430.8299999999999</ele>
        <time>2015-08-08T09:56:46Z</time>
      </trkpt>
      <trkpt lat="46.42663411796093" lon="8.357030963525176">
        <ele>2430.3499999999999</ele>
        <time>2015-08-08T09:56:52Z</time>
      </trkpt>
      <trkpt lat="46.426631938666105" lon="8.356989976018667">
        <ele>2430.3499999999999</ele>
        <time>2015-08-08T09:56:56Z</time>
      </trkpt>
      <trkpt lat="46.426612492650747" lon="8.356928955763578">
        <ele>2430.3499999999999</ele>
        <time>2015-08-08T09:57:01Z</time>
      </trkpt>
      <trkpt lat="46.426609307527542" lon="8.356858044862747">
        <ele>2430.3499999999999</ele>
        <time>2015-08-08T09:57:06Z</time>
      </trkpt>
      <trkpt lat="46.42660821788013" lon="8.356830133125186">
        <ele>2430.3499999999999</ele>
        <time>2015-08-08T09:57:08Z</time>
      </trkpt>
      <trkpt lat="46.426592627540231" lon="8.356751343235374">
        <ele>2430.8299999999999</ele>
        <time>2015-08-08T09:57:19Z</time>
      </trkpt>
      <trkpt lat="46.426580054685473" lon="8.356677666306496">
        <ele>2432.27</ele>
        <time>2015-08-08T09:57:29Z</time>
      </trkpt>
      <trkpt lat="46.426547365263104" lon="8.356546489521861">
        <ele>2432.75</ele>
        <time>2015-08-08T09:57:41Z</time>
      </trkpt>
      <trkpt lat="46.426520543172956" lon="8.356357980519533">
        <ele>2433.23</ele>
        <time>2015-08-08T09:57:54Z</time>
      </trkpt>
      <trkpt lat="46.426471844315529" lon="8.356226049363613">
        <ele>2435.6399999999999</ele>
        <time>2015-08-08T09:58:06Z</time>
      </trkpt>
      <trkpt lat="46.426441334187984" lon="8.356086071580648">
        <ele>2437.5599999999999</ele>
        <time>2015-08-08T09:58:18Z</time>
      </trkpt>
      <trkpt lat="46.426435299217701" lon="8.355970568954945">
        <ele>2440.9200000000001</ele>
        <time>2015-08-08T09:58:29Z</time>
      </trkpt>
      <trkpt lat="46.426434796303511" lon="8.355962187051773">
        <ele>2440.9200000000001</ele>
        <time>2015-08-08T09:58:30Z</time>
      </trkpt>
      <trkpt lat="46.426401101052761" lon="8.355828747153282">
        <ele>2442.8499999999999</ele>
        <time>2015-08-08T09:58:42Z</time>
      </trkpt>
      <trkpt lat="46.426368076354265" lon="8.35567862726748">
        <ele>2443.8099999999999</ele>
        <time>2015-08-08T09:58:53Z</time>
      </trkpt>
      <trkpt lat="46.426320048049092" lon="8.355492884293199">
        <ele>2443.3299999999999</ele>
        <time>2015-08-08T09:59:06Z</time>
      </trkpt>
      <trkpt lat="46.426317533478141" lon="8.355349386110902">
        <ele>2444.29</ele>
        <time>2015-08-08T09:59:18Z</time>
      </trkpt>
      <trkpt lat="46.426325831562281" lon="8.355358187109232">
        <ele>2444.77</ele>
        <time>2015-08-08T09:59:33Z</time>
      </trkpt>
      <trkpt lat="46.42630822956562" lon="8.355304375290871">
        <ele>2445.25</ele>
        <time>2015-08-08T09:59:48Z</time>
      </trkpt>
      <trkpt lat="46.426284508779645" lon="8.355222903192043">
        <ele>2447.1700000000001</ele>
        <time>2015-08-08T09:59:58Z</time>
      </trkpt>
      <trkpt lat="46.426235055550933" lon="8.355126427486539">
        <ele>2449.0999999999999</ele>
        <time>2015-08-08T10:00:11Z</time>
      </trkpt>
      <trkpt lat="46.426215609535575" lon="8.355012601241469">
        <ele>2451.5</ele>
        <time>2015-08-08T10:00:23Z</time>
      </trkpt>
      <trkpt lat="46.426171101629734" lon="8.354935320094228">
        <ele>2453.4200000000001</ele>
        <time>2015-08-08T10:00:35Z</time>
      </trkpt>
      <trkpt lat="46.426131203770638" lon="8.354853512719274">
        <ele>2454.8600000000001</ele>
        <time>2015-08-08T10:00:47Z</time>
      </trkpt>
      <trkpt lat="46.426044031977654" lon="8.354812609031797">
        <ele>2455.8200000000002</ele>
        <time>2015-08-08T10:00:59Z</time>
      </trkpt>
      <trkpt lat="46.425920566543937" lon="8.354733902961016">
        <ele>2455.8200000000002</ele>
        <time>2015-08-08T10:01:12Z</time>
      </trkpt>
      <trkpt lat="46.425819480791688" lon="8.354625608772039">
        <ele>2455.8200000000002</ele>
        <time>2015-08-08T10:01:23Z</time>
      </trkpt>
      <trkpt lat="46.425810679793358" lon="8.354611108079553">
        <ele>2455.8200000000002</ele>
        <time>2015-08-08T10:01:24Z</time>
      </trkpt>
      <trkpt lat="46.425759131088853" lon="8.354456210508943">
        <ele>2457.27</ele>
        <time>2015-08-08T10:01:36Z</time>
      </trkpt>
      <trkpt lat="46.425757957622409" lon="8.354446236044169">
        <ele>2457.27</ele>
        <time>2015-08-08T10:01:37Z</time>
      </trkpt>
      <trkpt lat="46.425718227401376" lon="8.35427038371563">
        <ele>2458.71</ele>
        <time>2015-08-08T10:01:50Z</time>
      </trkpt>
      <trkpt lat="46.425713030621409" lon="8.354246830567718">
        <ele>2458.23</ele>
        <time>2015-08-08T10:01:52Z</time>
      </trkpt>
      <trkpt lat="46.425671204924583" lon="8.354129903018475">
        <ele>2458.71</ele>
        <time>2015-08-08T10:02:02Z</time>
      </trkpt>
      <trkpt lat="46.425624685361981" lon="8.354035187512636">
        <ele>2458.71</ele>
        <time>2015-08-08T10:02:10Z</time>
      </trkpt>
      <trkpt lat="46.425551762804389" lon="8.353884648531675">
        <ele>2459.1900000000001</ele>
        <time>2015-08-08T10:02:22Z</time>
      </trkpt>
      <trkpt lat="46.425546817481518" lon="8.35386143065989">
        <ele>2459.1900000000001</ele>
        <time>2015-08-08T10:02:34Z</time>
      </trkpt>
      <trkpt lat="46.425524856895208" lon="8.35385799407959">
        <ele>2459.6700000000001</ele>
        <time>2015-08-08T10:02:44Z</time>
      </trkpt>
      <trkpt lat="46.425436176359653" lon="8.353834021836519">
        <ele>2460.6300000000001</ele>
        <time>2015-08-08T10:02:57Z</time>
      </trkpt>
      <trkpt lat="46.425383286550641" lon="8.353801416233182">
        <ele>2463.04</ele>
        <time>2015-08-08T10:03:10Z</time>
      </trkpt>
      <trkpt lat="46.42532704398036" lon="8.353736624121666">
        <ele>2465.4400000000001</ele>
        <time>2015-08-08T10:03:22Z</time>
      </trkpt>
      <trkpt lat="46.425265688449144" lon="8.353650709614158">
        <ele>2467.3600000000001</ele>
        <time>2015-08-08T10:03:35Z</time>
      </trkpt>
      <trkpt lat="46.425238363444805" lon="8.353580301627517">
        <ele>2469.7600000000002</ele>
        <time>2015-08-08T10:03:44Z</time>
      </trkpt>
      <trkpt lat="46.425181701779366" lon="8.353522550314665">
        <ele>2471.21</ele>
        <time>2015-08-08T10:03:53Z</time>
      </trkpt>
      <trkpt lat="46.425129398703575" lon="8.353429762646556">
        <ele>2473.1300000000001</ele>
        <time>2015-08-08T10:04:05Z</time>
      </trkpt>
      <trkpt lat="46.425090255215764" lon="8.353401934728026">
        <ele>2474.0900000000001</ele>
        <time>2015-08-08T10:04:15Z</time>
      </trkpt>
      <trkpt lat="46.425062762573361" lon="8.353358348831534">
        <ele>2476.0100000000002</ele>
        <time>2015-08-08T10:04:26Z</time>
      </trkpt>
      <trkpt lat="46.425022110342979" lon="8.35328483954072">
        <ele>2477.9400000000001</ele>
        <time>2015-08-08T10:04:38Z</time>
      </trkpt>
      <trkpt lat="46.424999898299575" lon="8.353252066299319">
        <ele>2479.8600000000001</ele>
        <time>2015-08-08T10:04:51Z</time>
      </trkpt>
      <trkpt lat="46.424993863329291" lon="8.353230021893978">
        <ele>2480.8200000000002</ele>
        <time>2015-08-08T10:04:53Z</time>
      </trkpt>
      <trkpt lat="46.42494005151093" lon="8.353155590593815">
        <ele>2482.2600000000002</ele>
        <time>2015-08-08T10:05:03Z</time>
      </trkpt>
      <trkpt lat="46.42489361576736" lon="8.353149387985468">
        <ele>2483.6999999999998</ele>
        <time>2015-08-08T10:05:13Z</time>
      </trkpt>
      <trkpt lat="46.424835696816444" lon="8.353121811524034">
        <ele>2485.6300000000001</ele>
        <time>2015-08-08T10:05:25Z</time>
      </trkpt>
      <trkpt lat="46.424786411225796" lon="8.353093815967441">
        <ele>2486.1100000000001</ele>
        <time>2015-08-08T10:05:35Z</time>
      </trkpt>
      <trkpt lat="46.424721283838153" lon="8.353062886744738">
        <ele>2487.5500000000002</ele>
        <time>2015-08-08T10:05:45Z</time>
      </trkpt>
      <trkpt lat="46.424634195864201" lon="8.353012427687645">
        <ele>2488.9899999999998</ele>
        <time>2015-08-08T10:05:58Z</time>
      </trkpt>
      <trkpt lat="46.424612486734986" lon="8.35296431556344">
        <ele>2490.9099999999999</ele>
        <time>2015-08-08T10:06:11Z</time>
      </trkpt>
      <trkpt lat="46.424559345468879" lon="8.352951826527715">
        <ele>2491.8699999999999</ele>
        <time>2015-08-08T10:06:22Z</time>
      </trkpt>
      <trkpt lat="46.424523470923305" lon="8.352884938940406">
        <ele>2493.8000000000002</ele>
        <time>2015-08-08T10:06:32Z</time>
      </trkpt>
      <trkpt lat="46.424475107342005" lon="8.352813273668289">
        <ele>2495.2399999999998</ele>
        <time>2015-08-08T10:06:44Z</time>
      </trkpt>
      <trkpt lat="46.42442305572331" lon="8.352742027491331">
        <ele>2497.6399999999999</ele>
        <time>2015-08-08T10:06:55Z</time>
      </trkpt>
      <trkpt lat="46.42440939322114" lon="8.352729538455606">
        <ele>2498.1199999999999</ele>
        <time>2015-08-08T10:06:57Z</time>
      </trkpt>
      <trkpt lat="46.424373937770724" lon="8.352667093276978">
        <ele>2500.0500000000002</ele>
        <time>2015-08-08T10:07:09Z</time>
      </trkpt>
      <trkpt lat="46.424349630251527" lon="8.352663489058614">
        <ele>2501.4899999999998</ele>
        <time>2015-08-08T10:07:23Z</time>
      </trkpt>
      <trkpt lat="46.424321802332997" lon="8.352648904547095">
        <ele>2502.4499999999998</ele>
        <time>2015-08-08T10:07:38Z</time>
      </trkpt>
      <trkpt lat="46.424281233921647" lon="8.352707326412201">
        <ele>2502.9299999999998</ele>
        <time>2015-08-08T10:07:49Z</time>
      </trkpt>
      <trkpt lat="46.424211664125323" lon="8.352679330855608">
        <ele>2504.8499999999999</ele>
        <time>2015-08-08T10:08:01Z</time>
      </trkpt>
      <trkpt lat="46.424146117642522" lon="8.352662902325392">
        <ele>2506.77</ele>
        <time>2015-08-08T10:08:13Z</time>
      </trkpt>
      <trkpt lat="46.424070512875915" lon="8.352685868740082">
        <ele>2509.1799999999998</ele>
        <time>2015-08-08T10:08:26Z</time>
      </trkpt>
      <trkpt lat="46.424061795696616" lon="8.35272828117013">
        <ele>2510.6199999999999</ele>
        <time>2015-08-08T10:08:38Z</time>
      </trkpt>
      <trkpt lat="46.424069004133344" lon="8.352822326123714">
        <ele>2512.54</ele>
        <time>2015-08-08T10:08:49Z</time>
      </trkpt>
      <trkpt lat="46.424042768776417" lon="8.352870186790824">
        <ele>2514.4699999999998</ele>
        <time>2015-08-08T10:08:59Z</time>
      </trkpt>
      <trkpt lat="46.423955680802464" lon="8.352810423821211">
        <ele>2515.9099999999999</ele>
        <time>2015-08-08T10:09:12Z</time>
      </trkpt>
      <trkpt lat="46.423883009701967" lon="8.352772453799844">
        <ele>2517.3499999999999</ele>
        <time>2015-08-08T10:09:23Z</time>
      </trkpt>
      <trkpt lat="46.423850152641535" lon="8.352815872058272">
        <ele>2516.8699999999999</ele>
        <time>2015-08-08T10:09:34Z</time>
      </trkpt>
      <trkpt lat="46.423817463219166" lon="8.352898852899671">
        <ele>2518.79</ele>
        <time>2015-08-08T10:09:45Z</time>
      </trkpt>
      <trkpt lat="46.42375954426825" lon="8.352874629199505">
        <ele>2520.71</ele>
        <time>2015-08-08T10:09:52Z</time>
      </trkpt>
      <trkpt lat="46.423717299476266" lon="8.352876473218203">
        <ele>2521.6799999999998</ele>
        <time>2015-08-08T10:10:04Z</time>
      </trkpt>
      <trkpt lat="46.423687292262912" lon="8.352866247296333">
        <ele>2523.1199999999999</ele>
        <time>2015-08-08T10:10:14Z</time>
      </trkpt>
      <trkpt lat="46.423637755215168" lon="8.352769603952766">
        <ele>2525.52</ele>
        <time>2015-08-08T10:10:25Z</time>
      </trkpt>
      <trkpt lat="46.423589894548059" lon="8.352702045813203">
        <ele>2527.4400000000001</ele>
        <time>2015-08-08T10:10:40Z</time>
      </trkpt>
      <trkpt lat="46.42354354262352" lon="8.352580089122057">
        <ele>2527.4400000000001</ele>
        <time>2015-08-08T10:10:54Z</time>
      </trkpt>
      <trkpt lat="46.423484869301319" lon="8.352485541254282">
        <ele>2527.9200000000001</ele>
        <time>2015-08-08T10:11:05Z</time>
      </trkpt>
      <trkpt lat="46.423405827954412" lon="8.352466765791178">
        <ele>2528.8899999999999</ele>
        <time>2015-08-08T10:11:17Z</time>
      </trkpt>
      <trkpt lat="46.423332234844565" lon="8.352447906509042">
        <ele>2531.29</ele>
        <time>2015-08-08T10:11:30Z</time>
      </trkpt>
      <trkpt lat="46.423289738595486" lon="8.352409601211548">
        <ele>2532.73</ele>
        <time>2015-08-08T10:11:40Z</time>
      </trkpt>
      <trkpt lat="46.423280937597156" lon="8.352400297299027">
        <ele>2533.6900000000001</ele>
        <time>2015-08-08T10:11:52Z</time>
      </trkpt>
      <trkpt lat="46.423223856836557" lon="8.352367524057627">
        <ele>2534.6500000000001</ele>
        <time>2015-08-08T10:12:03Z</time>
      </trkpt>
      <trkpt lat="46.423158477991819" lon="8.352406499907374">
        <ele>2536.5799999999999</ele>
        <time>2015-08-08T10:12:14Z</time>
      </trkpt>
      <trkpt lat="46.423108270391822" lon="8.352447990328074">
        <ele>2538.5</ele>
        <time>2015-08-08T10:12:25Z</time>
      </trkpt>
      <trkpt lat="46.423095529899001" lon="8.352514542639256">
        <ele>2539.9400000000001</ele>
        <time>2015-08-08T10:12:36Z</time>
      </trkpt>
      <trkpt lat="46.423080023378134" lon="8.35266231559217">
        <ele>2540.4200000000001</ele>
        <time>2015-08-08T10:12:47Z</time>
      </trkpt>
      <trkpt lat="46.423083627596498" lon="8.35276541300118">
        <ele>2541.8600000000001</ele>
        <time>2015-08-08T10:12:57Z</time>
      </trkpt>
      <trkpt lat="46.423057308420539" lon="8.352860296145082">
        <ele>2544.27</ele>
        <time>2015-08-08T10:13:10Z</time>
      </trkpt>
      <trkpt lat="46.423039203509688" lon="8.352895248681307">
        <ele>2545.23</ele>
        <time>2015-08-08T10:13:16Z</time>
      </trkpt>
      <trkpt lat="46.422952534630895" lon="8.352915281429887">
        <ele>2546.1900000000001</ele>
        <time>2015-08-08T10:13:27Z</time>
      </trkpt>
      <trkpt lat="46.422869972884655" lon="8.352861050516367">
        <ele>2548.5900000000001</ele>
        <time>2015-08-08T10:13:40Z</time>
      </trkpt>
      <trkpt lat="46.42288682051003" lon="8.352956520393491">
        <ele>2548.1100000000001</ele>
        <time>2015-08-08T10:13:49Z</time>
      </trkpt>
      <trkpt lat="46.422868715599179" lon="8.353050062432885">
        <ele>2550.0300000000002</ele>
        <time>2015-08-08T10:14:00Z</time>
      </trkpt>
      <trkpt lat="46.422822196036577" lon="8.353009661659598">
        <ele>2551.96</ele>
        <time>2015-08-08T10:14:07Z</time>
      </trkpt>
      <trkpt lat="46.422747513279319" lon="8.3529301173985">
        <ele>2553.4000000000001</ele>
        <time>2015-08-08T10:14:18Z</time>
      </trkpt>
      <trkpt lat="46.422700742259622" lon="8.352891393005848">
        <ele>2555.3200000000002</ele>
        <time>2015-08-08T10:14:30Z</time>
      </trkpt>
      <trkpt lat="46.4226327650249" lon="8.352889716625214">
        <ele>2557.2399999999998</ele>
        <time>2015-08-08T10:14:41Z</time>
      </trkpt>
      <trkpt lat="46.422576522454619" lon="8.352851746603847">
        <ele>2558.6900000000001</ele>
        <time>2015-08-08T10:14:51Z</time>
      </trkpt>
      <trkpt lat="46.422536205500364" lon="8.352756528183818">
        <ele>2560.1300000000001</ele>
        <time>2015-08-08T10:15:01Z</time>
      </trkpt>
      <trkpt lat="46.422455655410886" lon="8.352643623948097">
        <ele>2560.6100000000001</ele>
        <time>2015-08-08T10:15:15Z</time>
      </trkpt>
      <trkpt lat="46.422401843592525" lon="8.352561481297016">
        <ele>2560.6100000000001</ele>
        <time>2015-08-08T10:15:25Z</time>
      </trkpt>
      <trkpt lat="46.422348199412227" lon="8.352476572617889">
        <ele>2562.0500000000002</ele>
        <time>2015-08-08T10:15:36Z</time>
      </trkpt>
      <trkpt lat="46.422258680686355" lon="8.352378085255623">
        <ele>2564.4499999999998</ele>
        <time>2015-08-08T10:15:50Z</time>
      </trkpt>
      <trkpt lat="46.422220040112734" lon="8.352302983403206">
        <ele>2564.4499999999998</ele>
        <time>2015-08-08T10:16:01Z</time>
      </trkpt>
      <trkpt lat="46.422203108668327" lon="8.352310359477997">
        <ele>2564.4499999999998</ele>
        <time>2015-08-08T10:16:17Z</time>
      </trkpt>
      <trkpt lat="46.422202689573169" lon="8.352303821593523">
        <ele>2564.9299999999998</ele>
        <time>2015-08-08T10:16:29Z</time>
      </trkpt>
      <trkpt lat="46.422177460044622" lon="8.352303151041269">
        <ele>2564.9299999999998</ele>
        <time>2015-08-08T10:16:40Z</time>
      </trkpt>
      <trkpt lat="46.422178884968162" lon="8.35230759344995">
        <ele>2564.9299999999998</ele>
        <time>2015-08-08T10:16:45Z</time>
      </trkpt>
      <trkpt lat="46.422164048999548" lon="8.352313796058297">
        <ele>2564.9299999999998</ele>
        <time>2015-08-08T10:16:56Z</time>
      </trkpt>
      <trkpt lat="46.422141417860985" lon="8.352279094979167">
        <ele>2564.9299999999998</ele>
        <time>2015-08-08T10:17:09Z</time>
      </trkpt>
      <trkpt lat="46.422131611034274" lon="8.35225872695446">
        <ele>2564.4499999999998</ele>
        <time>2015-08-08T10:17:18Z</time>
      </trkpt>
      <trkpt lat="46.422127168625593" lon="8.352275658398867">
        <ele>2564.9299999999998</ele>
        <time>2015-08-08T10:17:43Z</time>
      </trkpt>
      <trkpt lat="46.422116691246629" lon="8.352308934554458">
        <ele>2565.4200000000001</ele>
        <time>2015-08-08T10:17:55Z</time>
      </trkpt>
      <trkpt lat="46.422114511951804" lon="8.352307509630919">
        <ele>2564.9299999999998</ele>
        <time>2015-08-08T10:17:58Z</time>
      </trkpt>
      <trkpt lat="46.422077296301723" lon="8.35231295786798">
        <ele>2564.4499999999998</ele>
        <time>2015-08-08T10:18:06Z</time>
      </trkpt>
      <trkpt lat="46.422079643234611" lon="8.352285046130419">
        <ele>2564.9299999999998</ele>
        <time>2015-08-08T10:18:16Z</time>
      </trkpt>
      <trkpt lat="46.422065561637282" lon="8.352230228483677">
        <ele>2564.9299999999998</ele>
        <time>2015-08-08T10:18:20Z</time>
      </trkpt>
      <trkpt lat="46.422073021531105" lon="8.352203574031591">
        <ele>2563.9699999999998</ele>
        <time>2015-08-08T10:18:32Z</time>
      </trkpt>
      <trkpt lat="46.4220732729882" lon="8.352208435535431">
        <ele>2563.9699999999998</ele>
        <time>2015-08-08T10:18:53Z</time>
      </trkpt>
      <trkpt lat="46.42207570374012" lon="8.352218326181173">
        <ele>2563.9699999999998</ele>
        <time>2015-08-08T10:19:12Z</time>
      </trkpt>
      <trkpt lat="46.42207033932209" lon="8.352225283160806">
        <ele>2563.9699999999998</ele>
        <time>2015-08-08T10:19:36Z</time>
      </trkpt>
      <trkpt lat="46.422055251896381" lon="8.352213799953461">
        <ele>2564.4499999999998</ele>
        <time>2015-08-08T10:20:05Z</time>
      </trkpt>
      <trkpt lat="46.422071177512407" lon="8.352216146886349">
        <ele>2564.9299999999998</ele>
        <time>2015-08-08T10:20:26Z</time>
      </trkpt>
      <trkpt lat="46.422060281038284" lon="8.352199131622911">
        <ele>2564.9299999999998</ele>
        <time>2015-08-08T10:20:45Z</time>
      </trkpt>
      <trkpt lat="46.42207226715982" lon="8.352197958156467">
        <ele>2564.4499999999998</ele>
        <time>2015-08-08T10:21:04Z</time>
      </trkpt>
      <trkpt lat="46.422080900520086" lon="8.35219519212842">
        <ele>2564.9299999999998</ele>
        <time>2015-08-08T10:21:23Z</time>
      </trkpt>
      <trkpt lat="46.422076961025596" lon="8.35218689404428">
        <ele>2564.4499999999998</ele>
        <time>2015-08-08T10:21:44Z</time>
      </trkpt>
      <trkpt lat="46.422071177512407" lon="8.352185636758804">
        <ele>2564.9299999999998</ele>
        <time>2015-08-08T10:22:03Z</time>
      </trkpt>
      <trkpt lat="46.422069417312741" lon="8.35218052379787">
        <ele>2564.9299999999998</ele>
        <time>2015-08-08T10:22:23Z</time>
      </trkpt>
      <trkpt lat="46.422080816701055" lon="8.352182535454631">
        <ele>2564.9299999999998</ele>
        <time>2015-08-08T10:22:46Z</time>
      </trkpt>
      <trkpt lat="46.422075117006898" lon="8.352195108309388">
        <ele>2564.9299999999998</ele>
        <time>2015-08-08T10:23:05Z</time>
      </trkpt>
      <trkpt lat="46.422073524445295" lon="8.35219519212842">
        <ele>2565.4200000000001</ele>
        <time>2015-08-08T10:23:18Z</time>
      </trkpt>
      <trkpt lat="46.422072434797883" lon="8.352185804396868">
        <ele>2565.4200000000001</ele>
        <time>2015-08-08T10:23:41Z</time>
      </trkpt>
      <trkpt lat="46.422058688476682" lon="8.352189240977168">
        <ele>2565.9000000000001</ele>
        <time>2015-08-08T10:23:52Z</time>
      </trkpt>
      <trkpt lat="46.422070423141122" lon="8.352213799953461">
        <ele>2566.8600000000001</ele>
        <time>2015-08-08T10:24:02Z</time>
      </trkpt>
      <trkpt lat="46.422074530273676" lon="8.352236682549119">
        <ele>2566.8600000000001</ele>
        <time>2015-08-08T10:24:16Z</time>
      </trkpt>
      <trkpt lat="46.421998925507069" lon="8.352276748046279">
        <ele>2566.3800000000001</ele>
        <time>2015-08-08T10:24:27Z</time>
      </trkpt>
      <trkpt lat="46.421982077881694" lon="8.352284375578165">
        <ele>2566.3800000000001</ele>
        <time>2015-08-08T10:24:29Z</time>
      </trkpt>
      <trkpt lat="46.421943018212914" lon="8.352312790229917">
        <ele>2566.8600000000001</ele>
        <time>2015-08-08T10:24:33Z</time>
      </trkpt>
      <trkpt lat="46.42180597409606" lon="8.352293763309717">
        <ele>2566.8600000000001</ele>
        <time>2015-08-08T10:24:46Z</time>
      </trkpt>
      <trkpt lat="46.421751491725445" lon="8.352292086929083">
        <ele>2566.3800000000001</ele>
        <time>2015-08-08T10:24:51Z</time>
      </trkpt>
      <trkpt lat="46.421668259426951" lon="8.352330308407545">
        <ele>2566.3800000000001</ele>
        <time>2015-08-08T10:24:59Z</time>
      </trkpt>
      <trkpt lat="46.42155141569674" lon="8.352421838790178">
        <ele>2566.3800000000001</ele>
        <time>2015-08-08T10:25:12Z</time>
      </trkpt>
      <trkpt lat="46.42141068354249" lon="8.352530300617218">
        <ele>2566.3800000000001</ele>
        <time>2015-08-08T10:25:26Z</time>
      </trkpt>
      <trkpt lat="46.421376066282392" lon="8.352560978382826">
        <ele>2566.3800000000001</ele>
        <time>2015-08-08T10:25:30Z</time>
      </trkpt>
      <trkpt lat="46.421313872560859" lon="8.35258461534977">
        <ele>2566.3800000000001</ele>
        <time>2015-08-08T10:25:36Z</time>
      </trkpt>
      <trkpt lat="46.42115562222898" lon="8.352679833769798">
        <ele>2566.8600000000001</ele>
        <time>2015-08-08T10:25:51Z</time>
      </trkpt>
      <trkpt lat="46.42105596140027" lon="8.352745547890663">
        <ele>2566.8600000000001</ele>
        <time>2015-08-08T10:26:01Z</time>
      </trkpt>
      <trkpt lat="46.42091765999794" lon="8.352799359709024">
        <ele>2566.8600000000001</ele>
        <time>2015-08-08T10:26:14Z</time>
      </trkpt>
      <trkpt lat="46.420841887593269" lon="8.352842777967453">
        <ele>2566.8600000000001</ele>
        <time>2015-08-08T10:26:22Z</time>
      </trkpt>
      <trkpt lat="46.420735772699118" lon="8.352891393005848">
        <ele>2566.8600000000001</ele>
        <time>2015-08-08T10:26:32Z</time>
      </trkpt>
      <trkpt lat="46.420710291713476" lon="8.352910922840238">
        <ele>2566.8600000000001</ele>
        <time>2015-08-08T10:26:35Z</time>
      </trkpt>
      <trkpt lat="46.420613396912813" lon="8.352988455444574">
        <ele>2566.8600000000001</ele>
        <time>2015-08-08T10:26:46Z</time>
      </trkpt>
      <trkpt lat="46.42054483294487" lon="8.353037824854255">
        <ele>2567.3400000000001</ele>
        <time>2015-08-08T10:26:57Z</time>
      </trkpt>
      <trkpt lat="46.420551035553217" lon="8.35303614847362">
        <ele>2566.8600000000001</ele>
        <time>2015-08-08T10:27:05Z</time>
      </trkpt>
      <trkpt lat="46.420553801581264" lon="8.353043524548411">
        <ele>2566.8600000000001</ele>
        <time>2015-08-08T10:27:17Z</time>
      </trkpt>
      <trkpt lat="46.420536702498794" lon="8.353017205372453">
        <ele>2566.8600000000001</ele>
        <time>2015-08-08T10:27:41Z</time>
      </trkpt>
      <trkpt lat="46.420525806024671" lon="8.353022066876292">
        <ele>2567.3400000000001</ele>
        <time>2015-08-08T10:28:07Z</time>
      </trkpt>
      <trkpt lat="46.420523039996624" lon="8.353019133210182">
        <ele>2567.3400000000001</ele>
        <time>2015-08-08T10:28:31Z</time>
      </trkpt>
      <trkpt lat="46.420531757175922" lon="8.353020641952753">
        <ele>2567.8200000000002</ele>
        <time>2015-08-08T10:28:55Z</time>
      </trkpt>
      <trkpt lat="46.420550281181931" lon="8.35300873965025">
        <ele>2567.3400000000001</ele>
        <time>2015-08-08T10:29:20Z</time>
      </trkpt>
      <trkpt lat="46.420554555952549" lon="8.353024246171117">
        <ele>2567.8200000000002</ele>
        <time>2015-08-08T10:29:45Z</time>
      </trkpt>
      <trkpt lat="46.420549945905805" lon="8.352998849004507">
        <ele>2568.3000000000002</ele>
        <time>2015-08-08T10:30:14Z</time>
      </trkpt>
      <trkpt lat="46.420533433556557" lon="8.352989796549082">
        <ele>2568.3000000000002</ele>
        <time>2015-08-08T10:30:42Z</time>
      </trkpt>
      <trkpt lat="46.420529074966908" lon="8.35296574048698">
        <ele>2568.3000000000002</ele>
        <time>2015-08-08T10:31:11Z</time>
      </trkpt>
      <trkpt lat="46.420527566224337" lon="8.352974876761437">
        <ele>2568.3000000000002</ele>
        <time>2015-08-08T10:31:40Z</time>
      </trkpt>
      <trkpt lat="46.420511640608311" lon="8.352955346927047">
        <ele>2568.7800000000002</ele>
        <time>2015-08-08T10:32:13Z</time>
      </trkpt>
      <trkpt lat="46.420535026118159" lon="8.352965405210853">
        <ele>2569.2600000000002</ele>
        <time>2015-08-08T10:32:44Z</time>
      </trkpt>
      <trkpt lat="46.420523291453719" lon="8.35298384539783">
        <ele>2569.2600000000002</ele>
        <time>2015-08-08T10:33:01Z</time>
      </trkpt>
      <trkpt lat="46.420536702498794" lon="8.352987701073289">
        <ele>2569.2600000000002</ele>
        <time>2015-08-08T10:33:18Z</time>
      </trkpt>
      <trkpt lat="46.420531505718827" lon="8.352995244786143">
        <ele>2569.2600000000002</ele>
        <time>2015-08-08T10:33:38Z</time>
      </trkpt>
      <trkpt lat="46.420530835166574" lon="8.352988036349416">
        <ele>2569.7399999999998</ele>
        <time>2015-08-08T10:34:02Z</time>
      </trkpt>
      <trkpt lat="46.42051943577826" lon="8.352981666103005">
        <ele>2569.7399999999998</ele>
        <time>2015-08-08T10:34:25Z</time>
      </trkpt>
      <trkpt lat="46.420510467141867" lon="8.352973535656929">
        <ele>2569.7399999999998</ele>
        <time>2015-08-08T10:34:42Z</time>
      </trkpt>
      <trkpt lat="46.420516334474087" lon="8.352973619475961">
        <ele>2570.6999999999998</ele>
        <time>2015-08-08T10:34:56Z</time>
      </trkpt>
      <trkpt lat="46.420525051653385" lon="8.353003794327378">
        <ele>2570.2199999999998</ele>
        <time>2015-08-08T10:35:09Z</time>
      </trkpt>
      <trkpt lat="46.420523626729846" lon="8.352992227301002">
        <ele>2570.2199999999998</ele>
        <time>2015-08-08T10:35:29Z</time>
      </trkpt>
      <trkpt lat="46.420515077188611" lon="8.35297797806561">
        <ele>2570.6999999999998</ele>
        <time>2015-08-08T10:35:54Z</time>
      </trkpt>
      <trkpt lat="46.420506862923503" lon="8.352967835962772">
        <ele>2570.6999999999998</ele>
        <time>2015-08-08T10:36:18Z</time>
      </trkpt>
      <trkpt lat="46.420515580102801" lon="8.352982420474291">
        <ele>2570.6999999999998</ele>
        <time>2015-08-08T10:36:43Z</time>
      </trkpt>
      <trkpt lat="46.420521279796958" lon="8.352988539263606">
        <ele>2571.1799999999998</ele>
        <time>2015-08-08T10:37:08Z</time>
      </trkpt>
      <trkpt lat="46.420523794367909" lon="8.353002285584807">
        <ele>2571.6599999999999</ele>
        <time>2015-08-08T10:37:33Z</time>
      </trkpt>
      <trkpt lat="46.42056779935956" lon="8.353008069097996">
        <ele>2571.6599999999999</ele>
        <time>2015-08-08T10:37:52Z</time>
      </trkpt>
      <trkpt lat="46.420564949512482" lon="8.353004632517695">
        <ele>2571.6599999999999</ele>
        <time>2015-08-08T10:38:10Z</time>
      </trkpt>
      <trkpt lat="46.420567883178592" lon="8.352988874539733">
        <ele>2571.6599999999999</ele>
        <time>2015-08-08T10:38:28Z</time>
      </trkpt>
      <trkpt lat="46.420563021674752" lon="8.352998932823539">
        <ele>2572.1399999999999</ele>
        <time>2015-08-08T10:38:49Z</time>
      </trkpt>
      <trkpt lat="46.420571571215987" lon="8.353000860661268">
        <ele>2572.1399999999999</ele>
        <time>2015-08-08T10:39:04Z</time>
      </trkpt>
      <trkpt lat="46.420585066080093" lon="8.352996166795492">
        <ele>2572.1399999999999</ele>
        <time>2015-08-08T10:39:20Z</time>
      </trkpt>
      <trkpt lat="46.420553885400295" lon="8.353020809590817">
        <ele>2572.1399999999999</ele>
        <time>2015-08-08T10:39:43Z</time>
      </trkpt>
      <trkpt lat="46.420546257868409" lon="8.353030197322369">
        <ele>2572.6300000000001</ele>
        <time>2015-08-08T10:39:59Z</time>
      </trkpt>
      <trkpt lat="46.420550532639027" lon="8.353022066876292">
        <ele>2572.6300000000001</ele>
        <time>2015-08-08T10:40:19Z</time>
      </trkpt>
      <trkpt lat="46.420540474355221" lon="8.353013265877962">
        <ele>2572.6300000000001</ele>
        <time>2015-08-08T10:40:43Z</time>
      </trkpt>
      <trkpt lat="46.420534607023001" lon="8.353011338040233">
        <ele>2573.1100000000001</ele>
        <time>2015-08-08T10:41:09Z</time>
      </trkpt>
      <trkpt lat="46.420528655871749" lon="8.35298627614975">
        <ele>2573.1100000000001</ele>
        <time>2015-08-08T10:41:33Z</time>
      </trkpt>
      <trkpt lat="46.420525470748544" lon="8.352985940873623">
        <ele>2573.1100000000001</ele>
        <time>2015-08-08T10:42:02Z</time>
      </trkpt>
      <trkpt lat="46.42052186653018" lon="8.352976469323039">
        <ele>2574.0700000000002</ele>
        <time>2015-08-08T10:42:33Z</time>
      </trkpt>
      <trkpt lat="46.420529829338193" lon="8.352990634739399">
        <ele>2574.0700000000002</ele>
        <time>2015-08-08T10:43:01Z</time>
      </trkpt>
      <trkpt lat="46.420536199584603" lon="8.353007901459932">
        <ele>2574.0700000000002</ele>
        <time>2015-08-08T10:43:24Z</time>
      </trkpt>
      <trkpt lat="46.420540390536189" lon="8.353002537041903">
        <ele>2574.0700000000002</ele>
        <time>2015-08-08T10:43:56Z</time>
      </trkpt>
      <trkpt lat="46.420539300888777" lon="8.353002201765776">
        <ele>2574.0700000000002</ele>
        <time>2015-08-08T10:44:20Z</time>
      </trkpt>
      <trkpt lat="46.420539217069745" lon="8.352992311120033">
        <ele>2574.5500000000002</ele>
        <time>2015-08-08T10:44:40Z</time>
      </trkpt>
      <trkpt lat="46.42054483294487" lon="8.353004800155759">
        <ele>2574.5500000000002</ele>
        <time>2015-08-08T10:45:03Z</time>
      </trkpt>
      <trkpt lat="46.420549275353551" lon="8.352998346090317">
        <ele>2575.0300000000002</ele>
        <time>2015-08-08T10:45:29Z</time>
      </trkpt>
      <trkpt lat="46.420533852651715" lon="8.352988874539733">
        <ele>2575.0300000000002</ele>
        <time>2015-08-08T10:45:59Z</time>
      </trkpt>
      <trkpt lat="46.42053360119462" lon="8.352977726608515">
        <ele>2575.5100000000002</ele>
        <time>2015-08-08T10:46:29Z</time>
      </trkpt>
      <trkpt lat="46.420528823509812" lon="8.352989880368114">
        <ele>2575.5100000000002</ele>
        <time>2015-08-08T10:47:00Z</time>
      </trkpt>
      <trkpt lat="46.420507784932852" lon="8.352978983893991">
        <ele>2575.9899999999998</ele>
        <time>2015-08-08T10:47:29Z</time>
      </trkpt>
      <trkpt lat="46.420498732477427" lon="8.352981666103005">
        <ele>2575.9899999999998</ele>
        <time>2015-08-08T10:47:59Z</time>
      </trkpt>
      <trkpt lat="46.420500241219997" lon="8.352972948923707">
        <ele>2576.4699999999998</ele>
        <time>2015-08-08T10:48:30Z</time>
      </trkpt>
      <trkpt lat="46.420496804639697" lon="8.352971104905009">
        <ele>2576.4699999999998</ele>
        <time>2015-08-08T10:48:58Z</time>
      </trkpt>
      <trkpt lat="46.420499151572585" lon="8.352960962802172">
        <ele>2576.9499999999998</ele>
        <time>2015-08-08T10:49:27Z</time>
      </trkpt>
      <trkpt lat="46.420502839609981" lon="8.35295207798481">
        <ele>2577.4299999999998</ele>
        <time>2015-08-08T10:49:51Z</time>
      </trkpt>
      <trkpt lat="46.42049940302968" lon="8.352935565635562">
        <ele>2577.4299999999998</ele>
        <time>2015-08-08T10:50:26Z</time>
      </trkpt>
      <trkpt lat="46.420494876801968" lon="8.352942606434226">
        <ele>2577.9099999999999</ele>
        <time>2015-08-08T10:50:57Z</time>
      </trkpt>
      <trkpt lat="46.420508371666074" lon="8.352947048842907">
        <ele>2578.3899999999999</ele>
        <time>2015-08-08T10:51:30Z</time>
      </trkpt>
      <trkpt lat="46.42051700502634" lon="8.352966662496328">
        <ele>2578.3899999999999</ele>
        <time>2015-08-08T10:51:54Z</time>
      </trkpt>
      <trkpt lat="46.420530751347542" lon="8.352985354140401">
        <ele>2578.8699999999999</ele>
        <time>2015-08-08T10:52:25Z</time>
      </trkpt>
      <trkpt lat="46.420542066916823" lon="8.353001363575459">
        <ele>2578.8699999999999</ele>
        <time>2015-08-08T10:52:57Z</time>
      </trkpt>
      <trkpt lat="46.420535109937191" lon="8.353017875924707">
        <ele>2579.3499999999999</ele>
        <time>2015-08-08T10:53:22Z</time>
      </trkpt>
      <trkpt lat="46.420538043603301" lon="8.353015864267945">
        <ele>2579.3499999999999</ele>
        <time>2015-08-08T10:53:49Z</time>
      </trkpt>
      <trkpt lat="46.420538546517491" lon="8.353029694408178">
        <ele>2578.8699999999999</ele>
        <time>2015-08-08T10:54:07Z</time>
      </trkpt>
      <trkpt lat="46.420536367222667" lon="8.353029610589147">
        <ele>2579.3499999999999</ele>
        <time>2015-08-08T10:54:33Z</time>
      </trkpt>
      <trkpt lat="46.420542066916823" lon="8.353034052997828">
        <ele>2579.3499999999999</ele>
        <time>2015-08-08T10:54:58Z</time>
      </trkpt>
      <trkpt lat="46.420546090230346" lon="8.353034220635891">
        <ele>2579.3499999999999</ele>
        <time>2015-08-08T10:55:19Z</time>
      </trkpt>
      <trkpt lat="46.420547347515821" lon="8.353033717721701">
        <ele>2579.8400000000001</ele>
        <time>2015-08-08T10:55:41Z</time>
      </trkpt>
      <trkpt lat="46.420546844601631" lon="8.353040423244238">
        <ele>2579.3499999999999</ele>
        <time>2015-08-08T10:56:08Z</time>
      </trkpt>
      <trkpt lat="46.420548772439361" lon="8.353036902844906">
        <ele>2579.8400000000001</ele>
        <time>2015-08-08T10:56:32Z</time>
      </trkpt>
      <trkpt lat="46.420534523203969" lon="8.353018295019865">
        <ele>2579.8400000000001</ele>
        <time>2015-08-08T10:57:09Z</time>
      </trkpt>
      <trkpt lat="46.420536870136857" lon="8.353021228685975">
        <ele>2579.8400000000001</ele>
        <time>2015-08-08T10:57:33Z</time>
      </trkpt>
      <trkpt lat="46.420529410243034" lon="8.353025084361434">
        <ele>2579.8400000000001</ele>
        <time>2015-08-08T10:57:54Z</time>
      </trkpt>
      <trkpt lat="46.42052723094821" lon="8.353025754913688">
        <ele>2580.3200000000002</ele>
        <time>2015-08-08T10:58:20Z</time>
      </trkpt>
      <trkpt lat="46.420514238998294" lon="8.353020390495658">
        <ele>2580.3200000000002</ele>
        <time>2015-08-08T10:58:45Z</time>
      </trkpt>
      <trkpt lat="46.420516669750214" lon="8.353019468486309">
        <ele>2580.3200000000002</ele>
        <time>2015-08-08T10:59:10Z</time>
      </trkpt>
      <trkpt lat="46.420512311160564" lon="8.353027598932385">
        <ele>2580.3200000000002</ele>
        <time>2015-08-08T10:59:31Z</time>
      </trkpt>
      <trkpt lat="46.420512311160564" lon="8.353027598932385">
        <ele>2580.3200000000002</ele>
        <time>2015-08-08T10:59:31Z</time>
      </trkpt>
      <trkpt lat="46.42053653486073" lon="8.352988371625543">
        <ele>2580.3200000000002</ele>
        <time>2015-08-08T10:59:56Z</time>
      </trkpt>
      <trkpt lat="46.420541564002633" lon="8.35300731472671">
        <ele>2580.8000000000002</ele>
        <time>2015-08-08T11:00:22Z</time>
      </trkpt>
      <trkpt lat="46.420571403577924" lon="8.353002201765776">
        <ele>2580.8000000000002</ele>
        <time>2015-08-08T11:00:49Z</time>
      </trkpt>
      <trkpt lat="46.420558243989944" lon="8.352994490414858">
        <ele>2580.8000000000002</ele>
        <time>2015-08-08T11:01:15Z</time>
      </trkpt>
      <trkpt lat="46.420556232333183" lon="8.353002285584807">
        <ele>2580.8000000000002</ele>
        <time>2015-08-08T11:01:49Z</time>
      </trkpt>
      <trkpt lat="46.420554807409644" lon="8.353006727993488">
        <ele>2580.8000000000002</ele>
        <time>2015-08-08T11:02:17Z</time>
      </trkpt>
      <trkpt lat="46.420563943684101" lon="8.353001363575459">
        <ele>2581.2800000000002</ele>
        <time>2015-08-08T11:02:46Z</time>
      </trkpt>
      <trkpt lat="46.420556986704469" lon="8.352988455444574">
        <ele>2581.2800000000002</ele>
        <time>2015-08-08T11:03:14Z</time>
      </trkpt>
      <trkpt lat="46.420565200969577" lon="8.352975798770785">
        <ele>2580.8000000000002</ele>
        <time>2015-08-08T11:03:39Z</time>
      </trkpt>
      <trkpt lat="46.420566374436021" lon="8.352987365797162">
        <ele>2581.2800000000002</ele>
        <time>2015-08-08T11:04:07Z</time>
      </trkpt>
      <trkpt lat="46.42056193202734" lon="8.352990970015526">
        <ele>2581.2800000000002</ele>
        <time>2015-08-08T11:04:33Z</time>
      </trkpt>
      <trkpt lat="46.420566709712148" lon="8.353003710508347">
        <ele>2581.2800000000002</ele>
        <time>2015-08-08T11:05:00Z</time>
      </trkpt>
      <trkpt lat="46.420562937855721" lon="8.353006057441235">
        <ele>2581.7600000000002</ele>
        <time>2015-08-08T11:05:22Z</time>
      </trkpt>
      <trkpt lat="46.420561764389277" lon="8.353008404374123">
        <ele>2581.7600000000002</ele>
        <time>2015-08-08T11:05:47Z</time>
      </trkpt>
      <trkpt lat="46.420558579266071" lon="8.353021983057261">
        <ele>2581.7600000000002</ele>
        <time>2015-08-08T11:06:15Z</time>
      </trkpt>
      <trkpt lat="46.420566039159894" lon="8.353039668872953">
        <ele>2581.7600000000002</ele>
        <time>2015-08-08T11:06:41Z</time>
      </trkpt>
      <trkpt lat="46.420567044988275" lon="8.353041680529714">
        <ele>2581.7600000000002</ele>
        <time>2015-08-08T11:07:00Z</time>
      </trkpt>
      <trkpt lat="46.420569643378258" lon="8.35304050706327">
        <ele>2581.7600000000002</ele>
        <time>2015-08-08T11:07:30Z</time>
      </trkpt>
      <trkpt lat="46.420559165999293" lon="8.353026425465941">
        <ele>2581.7600000000002</ele>
        <time>2015-08-08T11:07:58Z</time>
      </trkpt>
      <trkpt lat="46.420544413849711" lon="8.353004967793822">
        <ele>2581.7600000000002</ele>
        <time>2015-08-08T11:08:30Z</time>
      </trkpt>
      <trkpt lat="46.420541647821665" lon="8.352982504293323">
        <ele>2581.7600000000002</ele>
        <time>2015-08-08T11:08:54Z</time>
      </trkpt>
      <trkpt lat="46.420534020289779" lon="8.352962974458933">
        <ele>2582.2399999999998</ele>
        <time>2015-08-08T11:09:17Z</time>
      </trkpt>
      <trkpt lat="46.420535361394286" lon="8.352958280593157">
        <ele>2582.2399999999998</ele>
        <time>2015-08-08T11:09:47Z</time>
      </trkpt>
      <trkpt lat="46.420533014461398" lon="8.35294621065259">
        <ele>2582.2399999999998</ele>
        <time>2015-08-08T11:10:18Z</time>
      </trkpt>
      <trkpt lat="46.420532679185271" lon="8.352950820699334">
        <ele>2582.7199999999998</ele>
        <time>2015-08-08T11:10:46Z</time>
      </trkpt>
      <trkpt lat="46.42053653486073" lon="8.352982336655259">
        <ele>2583.1999999999998</ele>
        <time>2015-08-08T11:11:17Z</time>
      </trkpt>
      <trkpt lat="46.420544078573585" lon="8.35298040881753">
        <ele>2583.1999999999998</ele>
        <time>2015-08-08T11:11:37Z</time>
      </trkpt>
      <trkpt lat="46.420543659478426" lon="8.352999100461602">
        <ele>2583.6799999999998</ele>
        <time>2015-08-08T11:12:04Z</time>
      </trkpt>
      <trkpt lat="46.420526392757893" lon="8.352993233129382">
        <ele>2584.1599999999999</ele>
        <time>2015-08-08T11:12:37Z</time>
      </trkpt>
      <trkpt lat="46.420530499890447" lon="8.353002453222871">
        <ele>2584.1599999999999</ele>
        <time>2015-08-08T11:12:58Z</time>
      </trkpt>
      <trkpt lat="46.420543994754553" lon="8.353012511506677">
        <ele>2584.1599999999999</ele>
        <time>2015-08-08T11:13:31Z</time>
      </trkpt>
      <trkpt lat="46.420545252040029" lon="8.352997004985809">
        <ele>2583.6799999999998</ele>
        <time>2015-08-08T11:13:52Z</time>
      </trkpt>
      <trkpt lat="46.420542569831014" lon="8.353011170402169">
        <ele>2584.1599999999999</ele>
        <time>2015-08-08T11:14:19Z</time>
      </trkpt>
      <trkpt lat="46.420550951734185" lon="8.353001698851585">
        <ele>2584.1599999999999</ele>
        <time>2015-08-08T11:14:43Z</time>
      </trkpt>
      <trkpt lat="46.420546425506473" lon="8.353001531213522">
        <ele>2584.1599999999999</ele>
        <time>2015-08-08T11:15:04Z</time>
      </trkpt>
      <trkpt lat="46.420560423284769" lon="8.35302047431469">
        <ele>2584.1599999999999</ele>
        <time>2015-08-08T11:15:32Z</time>
      </trkpt>
      <trkpt lat="46.420565033331513" lon="8.353022066876292">
        <ele>2584.6399999999999</ele>
        <time>2015-08-08T11:15:59Z</time>
      </trkpt>
      <trkpt lat="46.420564111322165" lon="8.353035477921367">
        <ele>2584.6399999999999</ele>
        <time>2015-08-08T11:16:22Z</time>
      </trkpt>
      <trkpt lat="46.420558160170913" lon="8.35302441380918">
        <ele>2584.6399999999999</ele>
        <time>2015-08-08T11:16:53Z</time>
      </trkpt>
      <trkpt lat="46.42055656760931" lon="8.35300731472671">
        <ele>2585.1199999999999</ele>
        <time>2015-08-08T11:17:21Z</time>
      </trkpt>
      <trkpt lat="46.420565787702799" lon="8.352999184280634">
        <ele>2585.1199999999999</ele>
        <time>2015-08-08T11:17:52Z</time>
      </trkpt>
      <trkpt lat="46.420573499053717" lon="8.353004548698664">
        <ele>2585.5999999999999</ele>
        <time>2015-08-08T11:18:13Z</time>
      </trkpt>
      <trkpt lat="46.420569224283099" lon="8.35301611572504">
        <ele>2586.5599999999999</ele>
        <time>2015-08-08T11:18:37Z</time>
      </trkpt>
      <trkpt lat="46.420571738854051" lon="8.353013852611184">
        <ele>2585.5999999999999</ele>
        <time>2015-08-08T11:18:54Z</time>
      </trkpt>
      <trkpt lat="46.420565955340862" lon="8.353034220635891">
        <ele>2585.5999999999999</ele>
        <time>2015-08-08T11:19:14Z</time>
      </trkpt>
      <trkpt lat="46.420545671135187" lon="8.353067664429545">
        <ele>2585.5999999999999</ele>
        <time>2015-08-08T11:19:34Z</time>
      </trkpt>
      <trkpt lat="46.420536618679762" lon="8.3530786447227">
        <ele>2585.5999999999999</ele>
        <time>2015-08-08T11:20:03Z</time>
      </trkpt>
      <trkpt lat="46.420531505718827" lon="8.35304444655776">
        <ele>2586.0799999999999</ele>
        <time>2015-08-08T11:20:24Z</time>
      </trkpt>
      <trkpt lat="46.420531757175922" lon="8.353032795712352">
        <ele>2586.0799999999999</ele>
        <time>2015-08-08T11:20:49Z</time>
      </trkpt>
      <trkpt lat="46.42053066752851" lon="8.353018462657929">
        <ele>2586.5599999999999</ele>
        <time>2015-08-08T11:21:17Z</time>
      </trkpt>
      <trkpt lat="46.420529577881098" lon="8.353002704679966">
        <ele>2587.04</ele>
        <time>2015-08-08T11:21:46Z</time>
      </trkpt>
      <trkpt lat="46.420559333637357" lon="8.353008404374123">
        <ele>2587.04</ele>
        <time>2015-08-08T11:22:13Z</time>
      </trkpt>
      <trkpt lat="46.420559752732515" lon="8.352999100461602">
        <ele>2587.5300000000002</ele>
        <time>2015-08-08T11:22:40Z</time>
      </trkpt>
      <trkpt lat="46.420567044988275" lon="8.352999184280634">
        <ele>2587.5300000000002</ele>
        <time>2015-08-08T11:22:58Z</time>
      </trkpt>
      <trkpt lat="46.420571068301797" lon="8.353014020249248">
        <ele>2587.5300000000002</ele>
        <time>2015-08-08T11:23:21Z</time>
      </trkpt>
      <trkpt lat="46.420573499053717" lon="8.353021312505007">
        <ele>2587.5300000000002</ele>
        <time>2015-08-08T11:23:42Z</time>
      </trkpt>
      <trkpt lat="46.420565117150545" lon="8.352997675538063">
        <ele>2587.5300000000002</ele>
        <time>2015-08-08T11:24:08Z</time>
      </trkpt>
      <trkpt lat="46.42056142911315" lon="8.352941097691655">
        <ele>2587.5300000000002</ele>
        <time>2015-08-08T11:24:24Z</time>
      </trkpt>
      <trkpt lat="46.420554975047708" lon="8.353051571175456">
        <ele>2587.5300000000002</ele>
        <time>2015-08-08T11:24:39Z</time>
      </trkpt>
      <trkpt lat="46.420568134635687" lon="8.353095995262265">
        <ele>2588.0100000000002</ele>
        <time>2015-08-08T11:24:55Z</time>
      </trkpt>
      <trkpt lat="46.420582132413983" lon="8.353061713278294">
        <ele>2588.0100000000002</ele>
        <time>2015-08-08T11:25:16Z</time>
      </trkpt>
      <trkpt lat="46.420576516538858" lon="8.353044111281633">
        <ele>2587.5300000000002</ele>
        <time>2015-08-08T11:25:21Z</time>
      </trkpt>
      <trkpt lat="46.420565452426672" lon="8.353018295019865">
        <ele>2588.4899999999998</ele>
        <time>2015-08-08T11:25:29Z</time>
      </trkpt>
      <trkpt lat="46.420576265081763" lon="8.353017037734389">
        <ele>2588.9699999999998</ele>
        <time>2015-08-08T11:25:43Z</time>
      </trkpt>
      <trkpt lat="46.420569056645036" lon="8.353019719943404">
        <ele>2588.4899999999998</ele>
        <time>2015-08-08T11:25:52Z</time>
      </trkpt>
      <trkpt lat="46.420567547902465" lon="8.353026676923037">
        <ele>2588.4899999999998</ele>
        <time>2015-08-08T11:26:09Z</time>
      </trkpt>
      <trkpt lat="46.420621694996953" lon="8.352978564798832">
        <ele>2588.9699999999998</ele>
        <time>2015-08-08T11:26:26Z</time>
      </trkpt>
      <trkpt lat="46.420644158497453" lon="8.352957777678967">
        <ele>2588.9699999999998</ele>
        <time>2015-08-08T11:26:37Z</time>
      </trkpt>
      <trkpt lat="46.420649439096451" lon="8.352952664718032">
        <ele>2588.9699999999998</ele>
        <time>2015-08-08T11:26:45Z</time>
      </trkpt>
      <trkpt lat="46.420652875676751" lon="8.352946881204844">
        <ele>2588.9699999999998</ele>
        <time>2015-08-08T11:26:53Z</time>
      </trkpt>
      <trkpt lat="46.420774664729834" lon="8.35284361615777">
        <ele>2588.9699999999998</ele>
        <time>2015-08-08T11:27:05Z</time>
      </trkpt>
      <trkpt lat="46.420906512066722" lon="8.35277765057981">
        <ele>2589.4499999999998</ele>
        <time>2015-08-08T11:27:17Z</time>
      </trkpt>
      <trkpt lat="46.421020841225982" lon="8.352726101875305">
        <ele>2588.9699999999998</ele>
        <time>2015-08-08T11:27:27Z</time>
      </trkpt>
      <trkpt lat="46.421148916706443" lon="8.352647311985493">
        <ele>2588.9699999999998</ele>
        <time>2015-08-08T11:27:39Z</time>
      </trkpt>
      <trkpt lat="46.421225946396589" lon="8.352619232609868">
        <ele>2588.9699999999998</ele>
        <time>2015-08-08T11:27:46Z</time>
      </trkpt>
      <trkpt lat="46.421239273622632" lon="8.352604396641254">
        <ele>2588.9699999999998</ele>
        <time>2015-08-08T11:27:47Z</time>
      </trkpt>
      <trkpt lat="46.421285709366202" lon="8.352576233446598">
        <ele>2588.9699999999998</ele>
        <time>2015-08-08T11:27:51Z</time>
      </trkpt>
      <trkpt lat="46.421405570581555" lon="8.35250255651772">
        <ele>2588.9699999999998</ele>
        <time>2015-08-08T11:28:01Z</time>
      </trkpt>
      <trkpt lat="46.421546218916774" lon="8.352402476593852">
        <ele>2588.9699999999998</ele>
        <time>2015-08-08T11:28:14Z</time>
      </trkpt>
      <trkpt lat="46.421555355191231" lon="8.352390825748444">
        <ele>2588.9699999999998</ele>
        <time>2015-08-08T11:28:15Z</time>
      </trkpt>
      <trkpt lat="46.421591816470027" lon="8.35236769169569">
        <ele>2588.9699999999998</ele>
        <time>2015-08-08T11:28:18Z</time>
      </trkpt>
      <trkpt lat="46.421666163951159" lon="8.352328129112721">
        <ele>2588.9699999999998</ele>
        <time>2015-08-08T11:28:24Z</time>
      </trkpt>
      <trkpt lat="46.421766998246312" lon="8.352292589843273">
        <ele>2588.9699999999998</ele>
        <time>2015-08-08T11:28:33Z</time>
      </trkpt>
      <trkpt lat="46.421812679618597" lon="8.352294014766812">
        <ele>2588.9699999999998</ele>
        <time>2015-08-08T11:28:37Z</time>
      </trkpt>
      <trkpt lat="46.421954417601228" lon="8.352291248738766">
        <ele>2588.9699999999998</ele>
        <time>2015-08-08T11:28:48Z</time>
      </trkpt>
      <trkpt lat="46.422098753973842" lon="8.352282615378499">
        <ele>2588.9699999999998</ele>
        <time>2015-08-08T11:28:59Z</time>
      </trkpt>
      <trkpt lat="46.422200594097376" lon="8.352305414155126">
        <ele>2588.4899999999998</ele>
        <time>2015-08-08T11:29:07Z</time>
      </trkpt>
      <trkpt lat="46.422249209135771" lon="8.352320585399866">
        <ele>2589.4499999999998</ele>
        <time>2015-08-08T11:29:11Z</time>
      </trkpt>
      <trkpt lat="46.422286173328757" lon="8.352385042235255">
        <ele>2588.4899999999998</ele>
        <time>2015-08-08T11:29:16Z</time>
      </trkpt>
      <trkpt lat="46.422339901328087" lon="8.352419240400195">
        <ele>2588.0100000000002</ele>
        <time>2015-08-08T11:29:23Z</time>
      </trkpt>
      <trkpt lat="46.422381643205881" lon="8.352313963696361">
        <ele>2584.1599999999999</ele>
        <time>2015-08-08T11:29:33Z</time>
      </trkpt>
      <trkpt lat="46.422396395355463" lon="8.352305078878999">
        <ele>2583.6799999999998</ele>
        <time>2015-08-08T11:29:35Z</time>
      </trkpt>
      <trkpt lat="46.422465965151787" lon="8.352313628420234">
        <ele>2582.2399999999998</ele>
        <time>2015-08-08T11:29:41Z</time>
      </trkpt>
      <trkpt lat="46.422494547441602" lon="8.352291248738766">
        <ele>2581.7600000000002</ele>
        <time>2015-08-08T11:29:44Z</time>
      </trkpt>
      <trkpt lat="46.422559339553118" lon="8.352219834923744">
        <ele>2578.8699999999999</ele>
        <time>2015-08-08T11:29:55Z</time>
      </trkpt>
      <trkpt lat="46.422649277374148" lon="8.352193348109722">
        <ele>2575.5100000000002</ele>
        <time>2015-08-08T11:30:06Z</time>
      </trkpt>
      <trkpt lat="46.422676015645266" lon="8.352184630930424">
        <ele>2574.5500000000002</ele>
        <time>2015-08-08T11:30:10Z</time>
      </trkpt>
      <trkpt lat="46.422765953466296" lon="8.352171555161476">
        <ele>2572.1399999999999</ele>
        <time>2015-08-08T11:30:21Z</time>
      </trkpt>
      <trkpt lat="46.422830577939749" lon="8.352168956771493">
        <ele>2569.2600000000002</ele>
        <time>2015-08-08T11:30:29Z</time>
      </trkpt>
      <trkpt lat="46.422927556559443" lon="8.35215755738318">
        <ele>2566.3800000000001</ele>
        <time>2015-08-08T11:30:39Z</time>
      </trkpt>
      <trkpt lat="46.423015901818871" lon="8.352194353938103">
        <ele>2563.0100000000002</ele>
        <time>2015-08-08T11:30:51Z</time>
      </trkpt>
      <trkpt lat="46.423010705038905" lon="8.352080192416906">
        <ele>2560.6100000000001</ele>
        <time>2015-08-08T11:31:01Z</time>
      </trkpt>
      <trkpt lat="46.423001317307353" lon="8.35198312997818">
        <ele>2558.21</ele>
        <time>2015-08-08T11:31:11Z</time>
      </trkpt>
      <trkpt lat="46.423031827434897" lon="8.351914985105395">
        <ele>2554.8400000000001</ele>
        <time>2015-08-08T11:31:22Z</time>
      </trkpt>
      <trkpt lat="46.423048926517367" lon="8.351868968456984">
        <ele>2553.4000000000001</ele>
        <time>2015-08-08T11:31:33Z</time>
      </trkpt>
      <trkpt lat="46.423098295927048" lon="8.351904256269336">
        <ele>2552.9200000000001</ele>
        <time>2015-08-08T11:31:43Z</time>
      </trkpt>
      <trkpt lat="46.423175912350416" lon="8.351867292076349">
        <ele>2550.5100000000002</ele>
        <time>2015-08-08T11:31:55Z</time>
      </trkpt>
      <trkpt lat="46.423197537660599" lon="8.351864945143461">
        <ele>2550.0300000000002</ele>
        <time>2015-08-08T11:31:59Z</time>
      </trkpt>
      <trkpt lat="46.423232071101665" lon="8.35186586715281">
        <ele>2548.5900000000001</ele>
        <time>2015-08-08T11:32:02Z</time>
      </trkpt>
      <trkpt lat="46.423260821029544" lon="8.351861424744129">
        <ele>2547.1500000000001</ele>
        <time>2015-08-08T11:32:05Z</time>
      </trkpt>
      <trkpt lat="46.423275489360094" lon="8.351851366460323">
        <ele>2545.71</ele>
        <time>2015-08-08T11:32:08Z</time>
      </trkpt>
      <trkpt lat="46.423276411369443" lon="8.351822029799223">
        <ele>2543.3099999999999</ele>
        <time>2015-08-08T11:32:18Z</time>
      </trkpt>
      <trkpt lat="46.423272555693984" lon="8.351818677037954">
        <ele>2542.8200000000002</ele>
        <time>2015-08-08T11:32:27Z</time>
      </trkpt>
      <trkpt lat="46.423272723332047" lon="8.351648608222604">
        <ele>2539.46</ele>
        <time>2015-08-08T11:32:36Z</time>
      </trkpt>
      <trkpt lat="46.423240788280964" lon="8.351488346233964">
        <ele>2538.5</ele>
        <time>2015-08-08T11:32:46Z</time>
      </trkpt>
      <trkpt lat="46.423216061666608" lon="8.351469989866018">
        <ele>2538.02</ele>
        <time>2015-08-08T11:32:49Z</time>
      </trkpt>
      <trkpt lat="46.423173397779465" lon="8.351467894390225">
        <ele>2536.5799999999999</ele>
        <time>2015-08-08T11:32:53Z</time>
      </trkpt>
      <trkpt lat="46.423149341717362" lon="8.351464122533798">
        <ele>2536.0999999999999</ele>
        <time>2015-08-08T11:32:55Z</time>
      </trkpt>
      <trkpt lat="46.423089578747749" lon="8.351260861381888">
        <ele>2532.73</ele>
        <time>2015-08-08T11:33:09Z</time>
      </trkpt>
      <trkpt lat="46.423109443858266" lon="8.351125409826636">
        <ele>2530.3299999999999</ele>
        <time>2015-08-08T11:33:17Z</time>
      </trkpt>
      <trkpt lat="46.423164261505008" lon="8.350920137017965">
        <ele>2526.96</ele>
        <time>2015-08-08T11:33:30Z</time>
      </trkpt>
      <trkpt lat="46.423239363357425" lon="8.350767251104116">
        <ele>2526.48</ele>
        <time>2015-08-08T11:33:41Z</time>
      </trkpt>
      <trkpt lat="46.423240033909678" lon="8.350688880309463">
        <ele>2526</ele>
        <time>2015-08-08T11:33:46Z</time>
      </trkpt>
      <trkpt lat="46.423215558752418" lon="8.350643618032336">
        <ele>2525.52</ele>
        <time>2015-08-08T11:33:51Z</time>
      </trkpt>
      <trkpt lat="46.42311355099082" lon="8.350536832585931">
        <ele>2522.6399999999999</ele>
        <time>2015-08-08T11:34:02Z</time>
      </trkpt>
      <trkpt lat="46.423011962324381" lon="8.350426023826003">
        <ele>2519.27</ele>
        <time>2015-08-08T11:34:13Z</time>
      </trkpt>
      <trkpt lat="46.423001065850258" lon="8.350406493991613">
        <ele>2518.79</ele>
        <time>2015-08-08T11:34:15Z</time>
      </trkpt>
      <trkpt lat="46.422952450811863" lon="8.35036332719028">
        <ele>2517.8299999999999</ele>
        <time>2015-08-08T11:34:20Z</time>
      </trkpt>
      <trkpt lat="46.422840300947428" lon="8.350228127092123">
        <ele>2514.4699999999998</ele>
        <time>2015-08-08T11:34:34Z</time>
      </trkpt>
      <trkpt lat="46.422740388661623" lon="8.35011899471283">
        <ele>2511.0999999999999</ele>
        <time>2015-08-08T11:34:47Z</time>
      </trkpt>
      <trkpt lat="46.422637458890676" lon="8.350010700523853">
        <ele>2508.2199999999998</ele>
        <time>2015-08-08T11:34:59Z</time>
      </trkpt>
      <trkpt lat="46.422540312632918" lon="8.349898047745228">
        <ele>2505.3299999999999</ele>
        <time>2015-08-08T11:35:10Z</time>
      </trkpt>
      <trkpt lat="46.422391030937433" lon="8.349798135459423">
        <ele>2501.9699999999998</ele>
        <time>2015-08-08T11:35:25Z</time>
      </trkpt>
      <trkpt lat="46.422251556068659" lon="8.349762512370944">
        <ele>2499.5700000000002</ele>
        <time>2015-08-08T11:35:37Z</time>
      </trkpt>
      <trkpt lat="46.422127671539783" lon="8.349678441882134">
        <ele>2500.0500000000002</ele>
        <time>2015-08-08T11:35:49Z</time>
      </trkpt>
      <trkpt lat="46.422106213867664" lon="8.349674083292484">
        <ele>2497.1599999999999</ele>
        <time>2015-08-08T11:35:51Z</time>
      </trkpt>
      <trkpt lat="46.422094898298383" lon="8.349674418568611">
        <ele>2497.1599999999999</ele>
        <time>2015-08-08T11:35:52Z</time>
      </trkpt>
      <trkpt lat="46.422070004045963" lon="8.349672742187977">
        <ele>2496.1999999999998</ele>
        <time>2015-08-08T11:35:54Z</time>
      </trkpt>
      <trkpt lat="46.422000853344798" lon="8.349658492952585">
        <ele>2494.7600000000002</ele>
        <time>2015-08-08T11:36:01Z</time>
      </trkpt>
      <trkpt lat="46.421983921900392" lon="8.34964357316494">
        <ele>2494.2800000000002</ele>
        <time>2015-08-08T11:36:03Z</time>
      </trkpt>
      <trkpt lat="46.421976881101727" lon="8.34961473941803">
        <ele>2494.2800000000002</ele>
        <time>2015-08-08T11:36:05Z</time>
      </trkpt>
      <trkpt lat="46.422029351815581" lon="8.349433857947588">
        <ele>2492.8400000000001</ele>
        <time>2015-08-08T11:36:16Z</time>
      </trkpt>
      <trkpt lat="46.422084923833609" lon="8.349344758316875">
        <ele>2491.3899999999999</ele>
        <time>2015-08-08T11:36:24Z</time>
      </trkpt>
      <trkpt lat="46.422167485579848" lon="8.349349033087492">
        <ele>2489.9499999999998</ele>
        <time>2015-08-08T11:36:31Z</time>
      </trkpt>
      <trkpt lat="46.422295644879341" lon="8.349413741379976">
        <ele>2487.5500000000002</ele>
        <time>2015-08-08T11:36:43Z</time>
      </trkpt>
      <trkpt lat="46.422349289059639" lon="8.349231015890837">
        <ele>2487.5500000000002</ele>
        <time>2015-08-08T11:36:55Z</time>
      </trkpt>
      <trkpt lat="46.422354485839605" lon="8.349220119416714">
        <ele>2488.0300000000002</ele>
        <time>2015-08-08T11:36:56Z</time>
      </trkpt>
      <trkpt lat="46.422413075342774" lon="8.349048541858792">
        <ele>2487.5500000000002</ele>
        <time>2015-08-08T11:37:08Z</time>
      </trkpt>
      <trkpt lat="46.422425480559468" lon="8.349062371999025">
        <ele>2487.5500000000002</ele>
        <time>2015-08-08T11:37:26Z</time>
      </trkpt>
      <trkpt lat="46.4224549010396" lon="8.34897075779736">
        <ele>2487.5500000000002</ele>
        <time>2015-08-08T11:37:38Z</time>
      </trkpt>
      <trkpt lat="46.422491949051619" lon="8.348826672881842">
        <ele>2487.0700000000002</ele>
        <time>2015-08-08T11:37:48Z</time>
      </trkpt>
      <trkpt lat="46.422543581575155" lon="8.348680241033435">
        <ele>2487.0700000000002</ele>
        <time>2015-08-08T11:37:58Z</time>
      </trkpt>
      <trkpt lat="46.422604182735085" lon="8.348497683182359">
        <ele>2486.5900000000001</ele>
        <time>2015-08-08T11:38:10Z</time>
      </trkpt>
      <trkpt lat="46.422616923227906" lon="8.348456779494882">
        <ele>2486.5900000000001</ele>
        <time>2015-08-08T11:38:13Z</time>
      </trkpt>
      <trkpt lat="46.422667633742094" lon="8.348277239128947">
        <ele>2487.0700000000002</ele>
        <time>2015-08-08T11:38:24Z</time>
      </trkpt>
      <trkpt lat="46.422732677310705" lon="8.348103733733296">
        <ele>2486.5900000000001</ele>
        <time>2015-08-08T11:38:35Z</time>
      </trkpt>
      <trkpt lat="46.422785231843591" lon="8.347951015457511">
        <ele>2486.1100000000001</ele>
        <time>2015-08-08T11:38:45Z</time>
      </trkpt>
      <trkpt lat="46.422827308997512" lon="8.347823778167367">
        <ele>2486.1100000000001</ele>
        <time>2015-08-08T11:38:53Z</time>
      </trkpt>
      <trkpt lat="46.422879109159112" lon="8.347637029364705">
        <ele>2485.6300000000001</ele>
        <time>2015-08-08T11:39:04Z</time>
      </trkpt>
      <trkpt lat="46.42288388684392" lon="8.347623534500599">
        <ele>2486.1100000000001</ele>
        <time>2015-08-08T11:39:05Z</time>
      </trkpt>
      <trkpt lat="46.422943565994501" lon="8.347446843981743">
        <ele>2485.6300000000001</ele>
        <time>2015-08-08T11:39:16Z</time>
      </trkpt>
      <trkpt lat="46.422989834100008" lon="8.347275601699948">
        <ele>2485.1500000000001</ele>
        <time>2015-08-08T11:39:26Z</time>
      </trkpt>
      <trkpt lat="46.423055212944746" lon="8.347081895917654">
        <ele>2485.1500000000001</ele>
        <time>2015-08-08T11:39:38Z</time>
      </trkpt>
      <trkpt lat="46.423082873225212" lon="8.347007045522332">
        <ele>2485.1500000000001</ele>
        <time>2015-08-08T11:39:43Z</time>
      </trkpt>
      <trkpt lat="46.423121346160769" lon="8.346883915364742">
        <ele>2485.1500000000001</ele>
        <time>2015-08-08T11:39:51Z</time>
      </trkpt>
      <trkpt lat="46.42319661565125" lon="8.34665609523654">
        <ele>2484.6599999999999</ele>
        <time>2015-08-08T11:40:05Z</time>
      </trkpt>
      <trkpt lat="46.423261575400829" lon="8.346465574577451">
        <ele>2484.6599999999999</ele>
        <time>2015-08-08T11:40:17Z</time>
      </trkpt>
      <trkpt lat="46.423301473259926" lon="8.346347976475954">
        <ele>2484.6599999999999</ele>
        <time>2015-08-08T11:40:25Z</time>
      </trkpt>
      <trkpt lat="46.423359727486968" lon="8.346191486343741">
        <ele>2484.6599999999999</ele>
        <time>2015-08-08T11:40:36Z</time>
      </trkpt>
      <trkpt lat="46.423367774114013" lon="8.346168603748083">
        <ele>2484.6599999999999</ele>
        <time>2015-08-08T11:40:38Z</time>
      </trkpt>
      <trkpt lat="46.423399290069938" lon="8.346167765557766">
        <ele>2484.6599999999999</ele>
        <time>2015-08-08T11:40:41Z</time>
      </trkpt>
      <trkpt lat="46.423450168222189" lon="8.346187295392156">
        <ele>2484.1799999999998</ele>
        <time>2015-08-08T11:40:49Z</time>
      </trkpt>
      <trkpt lat="46.423438517376781" lon="8.346172459423542">
        <ele>2484.1799999999998</ele>
        <time>2015-08-08T11:41:01Z</time>
      </trkpt>
      <trkpt lat="46.423451844602823" lon="8.346177572384477">
        <ele>2484.1799999999998</ele>
        <time>2015-08-08T11:41:07Z</time>
      </trkpt>
      <trkpt lat="46.423523426055908" lon="8.346215961501002">
        <ele>2484.6599999999999</ele>
        <time>2015-08-08T11:41:16Z</time>
      </trkpt>
      <trkpt lat="46.423617554828525" lon="8.346190899610519">
        <ele>2485.6300000000001</ele>
        <time>2015-08-08T11:41:30Z</time>
      </trkpt>
      <trkpt lat="46.423630295321345" lon="8.346189223229885">
        <ele>2485.6300000000001</ele>
        <time>2015-08-08T11:41:41Z</time>
      </trkpt>
      <trkpt lat="46.423674384132028" lon="8.346217889338732">
        <ele>2485.1500000000001</ele>
        <time>2015-08-09T11:08:50Z</time>
      </trkpt>
      <trkpt lat="46.423766417428851" lon="8.346168184652925">
        <ele>2484.1799999999998</ele>
        <time>2015-08-09T11:08:59Z</time>
      </trkpt>
      <trkpt lat="46.423857193440199" lon="8.346241610124707">
        <ele>2484.1799999999998</ele>
        <time>2015-08-09T11:09:07Z</time>
      </trkpt>
      <trkpt lat="46.423956183716655" lon="8.34634143859148">
        <ele>2484.6599999999999</ele>
        <time>2015-08-09T11:09:19Z</time>
      </trkpt>
      <trkpt lat="46.423965822905302" lon="8.346338085830212">
        <ele>2484.1799999999998</ele>
        <time>2015-08-09T11:09:30Z</time>
      </trkpt>
      <trkpt lat="46.424041092395782" lon="8.346352083608508">
        <ele>2484.6599999999999</ele>
        <time>2015-08-09T11:09:38Z</time>
      </trkpt>
      <trkpt lat="46.424091467633843" lon="8.346371613442898">
        <ele>2484.6599999999999</ele>
        <time>2015-08-09T11:09:42Z</time>
      </trkpt>
      <trkpt lat="46.424150140956044" lon="8.346423413604498">
        <ele>2484.6599999999999</ele>
        <time>2015-08-09T11:09:47Z</time>
      </trkpt>
      <trkpt lat="46.424222476780415" lon="8.346477560698986">
        <ele>2485.1500000000001</ele>
        <time>2015-08-09T11:09:54Z</time>
      </trkpt>
      <trkpt lat="46.424364717677236" lon="8.346474794670939">
        <ele>2484.6599999999999</ele>
        <time>2015-08-09T11:10:07Z</time>
      </trkpt>
      <trkpt lat="46.424478543922305" lon="8.346426682546735">
        <ele>2484.1799999999998</ele>
        <time>2015-08-09T11:10:17Z</time>
      </trkpt>
      <trkpt lat="46.424645008519292" lon="8.346447637304664">
        <ele>2484.6599999999999</ele>
        <time>2015-08-09T11:10:30Z</time>
      </trkpt>
      <trkpt lat="46.42471089027822" lon="8.346403548493981">
        <ele>2484.6599999999999</ele>
        <time>2015-08-09T11:10:37Z</time>
      </trkpt>
      <trkpt lat="46.424747854471207" lon="8.346382258459926">
        <ele>2484.6599999999999</ele>
        <time>2015-08-09T11:10:41Z</time>
      </trkpt>
      <trkpt lat="46.424814322963357" lon="8.346335487440229">
        <ele>2484.6599999999999</ele>
        <time>2015-08-09T11:10:48Z</time>
      </trkpt>
      <trkpt lat="46.424953211098909" lon="8.346263151615858">
        <ele>2484.1799999999998</ele>
        <time>2015-08-09T11:11:00Z</time>
      </trkpt>
      <trkpt lat="46.42508128657937" lon="8.346293410286307">
        <ele>2485.1500000000001</ele>
        <time>2015-08-09T11:11:11Z</time>
      </trkpt>
      <trkpt lat="46.42516971565783" lon="8.346262145787478">
        <ele>2484.6599999999999</ele>
        <time>2015-08-09T11:11:19Z</time>
      </trkpt>
      <trkpt lat="46.425173571333289" lon="8.346147481352091">
        <ele>2485.6300000000001</ele>
        <time>2015-08-09T11:11:31Z</time>
      </trkpt>
      <trkpt lat="46.425214977934957" lon="8.346083024516702">
        <ele>2486.1100000000001</ele>
        <time>2015-08-09T11:11:38Z</time>
      </trkpt>
      <trkpt lat="46.425356129184365" lon="8.346166592091322">
        <ele>2485.1500000000001</ele>
        <time>2015-08-09T11:11:51Z</time>
      </trkpt>
      <trkpt lat="46.425474565476179" lon="8.346252338960767">
        <ele>2485.1500000000001</ele>
        <time>2015-08-09T11:12:03Z</time>
      </trkpt>
      <trkpt lat="46.425494514405727" lon="8.346250075846911">
        <ele>2485.1500000000001</ele>
        <time>2015-08-09T11:12:05Z</time>
      </trkpt>
      <trkpt lat="46.425512535497546" lon="8.346229204908013">
        <ele>2484.6599999999999</ele>
        <time>2015-08-09T11:12:07Z</time>
      </trkpt>
      <trkpt lat="46.425575902685523" lon="8.346155192703009">
        <ele>2483.6999999999998</ele>
        <time>2015-08-09T11:12:19Z</time>
      </trkpt>
      <trkpt lat="46.425619907677174" lon="8.346153264865279">
        <ele>2481.7800000000002</ele>
        <time>2015-08-09T11:12:28Z</time>
      </trkpt>
      <trkpt lat="46.425658632069826" lon="8.346150331199169">
        <ele>2479.8600000000001</ele>
        <time>2015-08-09T11:12:34Z</time>
      </trkpt>
      <trkpt lat="46.425686040893197" lon="8.346106829121709">
        <ele>2478.4200000000001</ele>
        <time>2015-08-09T11:12:38Z</time>
      </trkpt>
      <trkpt lat="46.425746977329254" lon="8.346039019525051">
        <ele>2476.4899999999998</ele>
        <time>2015-08-09T11:12:45Z</time>
      </trkpt>
      <trkpt lat="46.425883853808045" lon="8.346078246831894">
        <ele>2474.0900000000001</ele>
        <time>2015-08-09T11:12:57Z</time>
      </trkpt>
      <trkpt lat="46.425989549607038" lon="8.346023596823216">
        <ele>2471.6900000000001</ele>
        <time>2015-08-09T11:13:08Z</time>
      </trkpt>
      <trkpt lat="46.426033386960626" lon="8.34597053937614">
        <ele>2468.8000000000002</ele>
        <time>2015-08-09T11:13:16Z</time>
      </trkpt>
      <trkpt lat="46.426068842411041" lon="8.34591580554843">
        <ele>2466.4000000000001</ele>
        <time>2015-08-09T11:13:23Z</time>
      </trkpt>
      <trkpt lat="46.426138998940587" lon="8.345812540501356">
        <ele>2465.9200000000001</ele>
        <time>2015-08-09T11:13:33Z</time>
      </trkpt>
      <trkpt lat="46.426182501018047" lon="8.345806254073978">
        <ele>2464.96</ele>
        <time>2015-08-09T11:13:39Z</time>
      </trkpt>
      <trkpt lat="46.426233127713203" lon="8.345763674005866">
        <ele>2464.48</ele>
        <time>2015-08-09T11:13:45Z</time>
      </trkpt>
      <trkpt lat="46.426323903724551" lon="8.345761578530073">
        <ele>2463.52</ele>
        <time>2015-08-09T11:13:54Z</time>
      </trkpt>
      <trkpt lat="46.426392383873463" lon="8.34572377614677">
        <ele>2463.52</ele>
        <time>2015-08-09T11:14:00Z</time>
      </trkpt>
      <trkpt lat="46.42649631947279" lon="8.345780018717051">
        <ele>2463.04</ele>
        <time>2015-08-09T11:14:08Z</time>
      </trkpt>
      <trkpt lat="46.426653815433383" lon="8.345761327072978">
        <ele>2462.0700000000002</ele>
        <time>2015-08-09T11:14:20Z</time>
      </trkpt>
      <trkpt lat="46.426703017205" lon="8.345763757824898">
        <ele>2462.0700000000002</ele>
        <time>2015-08-09T11:14:25Z</time>
      </trkpt>
      <trkpt lat="46.426788093522191" lon="8.345731738954783">
        <ele>2459.6700000000001</ele>
        <time>2015-08-09T11:14:34Z</time>
      </trkpt>
      <trkpt lat="46.426913235336542" lon="8.345872638747096">
        <ele>2457.27</ele>
        <time>2015-08-09T11:14:47Z</time>
      </trkpt>
      <trkpt lat="46.427054889500141" lon="8.345987135544419">
        <ele>2456.79</ele>
        <time>2015-08-09T11:15:00Z</time>
      </trkpt>
      <trkpt lat="46.42708363942802" lon="8.346015550196171">
        <ele>2455.8200000000002</ele>
        <time>2015-08-09T11:15:03Z</time>
      </trkpt>
      <trkpt lat="46.42714818008244" lon="8.346100123599172">
        <ele>2452.9400000000001</ele>
        <time>2015-08-09T11:15:11Z</time>
      </trkpt>
      <trkpt lat="46.427229316905141" lon="8.346261978149414">
        <ele>2449.0999999999999</ele>
        <time>2015-08-09T11:15:22Z</time>
      </trkpt>
      <trkpt lat="46.42725856974721" lon="8.346292991191149">
        <ele>2447.1700000000001</ele>
        <time>2015-08-09T11:15:26Z</time>
      </trkpt>
      <trkpt lat="46.427324954420328" lon="8.346325848251581">
        <ele>2443.8099999999999</ele>
        <time>2015-08-09T11:15:36Z</time>
      </trkpt>
      <trkpt lat="46.427313890308142" lon="8.346369434148073">
        <ele>2443.3299999999999</ele>
        <time>2015-08-09T11:15:45Z</time>
      </trkpt>
      <trkpt lat="46.427341299131513" lon="8.346350071951747">
        <ele>2439.96</ele>
        <time>2015-08-09T11:15:50Z</time>
      </trkpt>
      <trkpt lat="46.427349848672748" lon="8.346347808837891">
        <ele>2439.96</ele>
        <time>2015-08-09T11:15:51Z</time>
      </trkpt>
      <trkpt lat="46.427375162020326" lon="8.346384186297655">
        <ele>2438.52</ele>
        <time>2015-08-09T11:15:59Z</time>
      </trkpt>
      <trkpt lat="46.427417239174247" lon="8.346434980630875">
        <ele>2438.52</ele>
        <time>2015-08-09T11:16:04Z</time>
      </trkpt>
      <trkpt lat="46.427433248609304" lon="8.346528941765428">
        <ele>2438.04</ele>
        <time>2015-08-09T11:16:10Z</time>
      </trkpt>
      <trkpt lat="46.427475996315479" lon="8.346557691693306">
        <ele>2437.0799999999999</ele>
        <time>2015-08-09T11:16:14Z</time>
      </trkpt>
      <trkpt lat="46.427544727921486" lon="8.346673278138042">
        <ele>2434.1999999999998</ele>
        <time>2015-08-09T11:16:22Z</time>
      </trkpt>
      <trkpt lat="46.427595941349864" lon="8.346738908439875">
        <ele>2434.6799999999998</ele>
        <time>2015-08-09T11:16:27Z</time>
      </trkpt>
      <trkpt lat="46.427710438147187" lon="8.346896655857563">
        <ele>2433.71</ele>
        <time>2015-08-09T11:16:39Z</time>
      </trkpt>
      <trkpt lat="46.427748575806618" lon="8.346990784630179">
        <ele>2430.8299999999999</ele>
        <time>2015-08-09T11:16:49Z</time>
      </trkpt>
      <trkpt lat="46.427777409553528" lon="8.347007632255554">
        <ele>2429.3899999999999</ele>
        <time>2015-08-09T11:16:59Z</time>
      </trkpt>
      <trkpt lat="46.427813032642007" lon="8.347062282264233">
        <ele>2427.9499999999998</ele>
        <time>2015-08-09T11:17:09Z</time>
      </trkpt>
      <trkpt lat="46.427836585789919" lon="8.347135623916984">
        <ele>2428.4299999999998</ele>
        <time>2015-08-09T11:17:20Z</time>
      </trkpt>
      <trkpt lat="46.427845554426312" lon="8.347145514562726">
        <ele>2428.9099999999999</ele>
        <time>2015-08-09T11:17:35Z</time>
      </trkpt>
      <trkpt lat="46.427845722064376" lon="8.347149454057217">
        <ele>2428.4299999999998</ele>
        <time>2015-08-09T11:17:36Z</time>
      </trkpt>
      <trkpt lat="46.427871203050017" lon="8.347227908670902">
        <ele>2427.9499999999998</ele>
        <time>2015-08-09T11:17:47Z</time>
      </trkpt>
      <trkpt lat="46.427873633801937" lon="8.347222879528999">
        <ele>2429.3899999999999</ele>
        <time>2015-08-09T11:18:01Z</time>
      </trkpt>
      <trkpt lat="46.427943874150515" lon="8.347308626398444">
        <ele>2427.4699999999998</ele>
        <time>2015-08-09T11:18:09Z</time>
      </trkpt>
      <trkpt lat="46.428003720939159" lon="8.347447011619806">
        <ele>2426.02</ele>
        <time>2015-08-09T11:18:19Z</time>
      </trkpt>
      <trkpt lat="46.428015539422631" lon="8.347476096823812">
        <ele>2425.54</ele>
        <time>2015-08-09T11:18:21Z</time>
      </trkpt>
      <trkpt lat="46.428029369562864" lon="8.34749068133533">
        <ele>2426.02</ele>
        <time>2015-08-09T11:18:23Z</time>
      </trkpt>
      <trkpt lat="46.428072871640325" lon="8.347564777359366">
        <ele>2424.0999999999999</ele>
        <time>2015-08-09T11:18:32Z</time>
      </trkpt>
      <trkpt lat="46.428076224401593" lon="8.347571901977062">
        <ele>2424.0999999999999</ele>
        <time>2015-08-09T11:18:33Z</time>
      </trkpt>
      <trkpt lat="46.428135987371206" lon="8.347605429589748">
        <ele>2424.0999999999999</ele>
        <time>2015-08-09T11:18:42Z</time>
      </trkpt>
      <trkpt lat="46.428188625723124" lon="8.347613643854857">
        <ele>2426.9899999999998</ele>
        <time>2015-08-09T11:18:54Z</time>
      </trkpt>
      <trkpt lat="46.428248975425959" lon="8.347648680210114">
        <ele>2428.9099999999999</ele>
        <time>2015-08-09T11:19:05Z</time>
      </trkpt>
      <trkpt lat="46.428293818607926" lon="8.347670892253518">
        <ele>2430.8299999999999</ele>
        <time>2015-08-09T11:19:15Z</time>
      </trkpt>
      <trkpt lat="46.428332626819611" lon="8.347725877538323">
        <ele>2432.75</ele>
        <time>2015-08-09T11:19:25Z</time>
      </trkpt>
      <trkpt lat="46.428356096148491" lon="8.347731158137322">
        <ele>2433.71</ele>
        <time>2015-08-09T11:19:37Z</time>
      </trkpt>
      <trkpt lat="46.428340841084719" lon="8.347735768184066">
        <ele>2433.23</ele>
        <time>2015-08-09T11:19:51Z</time>
      </trkpt>
      <trkpt lat="46.42838048748672" lon="8.347788574174047">
        <ele>2433.23</ele>
        <time>2015-08-09T11:20:06Z</time>
      </trkpt>
      <trkpt lat="46.428410746157169" lon="8.347838027402759">
        <ele>2434.6799999999998</ele>
        <time>2015-08-09T11:20:15Z</time>
      </trkpt>
      <trkpt lat="46.428457349538803" lon="8.347878847271204">
        <ele>2436.5999999999999</ele>
        <time>2015-08-09T11:20:24Z</time>
      </trkpt>
      <trkpt lat="46.428494984284043" lon="8.347948249429464">
        <ele>2438.52</ele>
        <time>2015-08-09T11:20:34Z</time>
      </trkpt>
      <trkpt lat="46.428505210205913" lon="8.348069367930293">
        <ele>2440.9200000000001</ele>
        <time>2015-08-09T11:20:46Z</time>
      </trkpt>
      <trkpt lat="46.428523398935795" lon="8.34816986694932">
        <ele>2443.8099999999999</ele>
        <time>2015-08-09T11:20:58Z</time>
      </trkpt>
      <trkpt lat="46.428578970953822" lon="8.348225858062506">
        <ele>2446.21</ele>
        <time>2015-08-09T11:21:09Z</time>
      </trkpt>
      <trkpt lat="46.428611241281033" lon="8.348285285755992">
        <ele>2447.6500000000001</ele>
        <time>2015-08-09T11:21:20Z</time>
      </trkpt>
      <trkpt lat="46.42862088046968" lon="8.348328452557325">
        <ele>2448.6199999999999</ele>
        <time>2015-08-09T11:21:24Z</time>
      </trkpt>
      <trkpt lat="46.428653821349144" lon="8.348472621291876">
        <ele>2450.54</ele>
        <time>2015-08-09T11:21:36Z</time>
      </trkpt>
      <trkpt lat="46.428694054484367" lon="8.348614275455475">
        <ele>2452.9400000000001</ele>
        <time>2015-08-09T11:21:48Z</time>
      </trkpt>
      <trkpt lat="46.428722133859992" lon="8.348726341500878">
        <ele>2455.8200000000002</ele>
        <time>2015-08-09T11:21:58Z</time>
      </trkpt>
      <trkpt lat="46.428771335631609" lon="8.348833294585347">
        <ele>2457.75</ele>
        <time>2015-08-09T11:22:09Z</time>
      </trkpt>
      <trkpt lat="46.428786171600223" lon="8.348842849954963">
        <ele>2454.3800000000001</ele>
        <time>2015-08-09T11:22:11Z</time>
      </trkpt>
      <trkpt lat="46.428790865465999" lon="8.348846705630422">
        <ele>2461.5900000000001</ele>
        <time>2015-08-09T11:22:12Z</time>
      </trkpt>
      <trkpt lat="46.42879530787468" lon="8.3488495554775">
        <ele>2457.75</ele>
        <time>2015-08-09T11:22:13Z</time>
      </trkpt>
      <trkpt lat="46.4288529753685" lon="8.348876209929586">
        <ele>2459.6700000000001</ele>
        <time>2015-08-09T11:22:25Z</time>
      </trkpt>
      <trkpt lat="46.428884491324425" lon="8.34889255464077">
        <ele>2461.1100000000001</ele>
        <time>2015-08-09T11:22:33Z</time>
      </trkpt>
      <trkpt lat="46.428901674225926" lon="8.348961872979999">
        <ele>2461.5900000000001</ele>
        <time>2015-08-09T11:22:42Z</time>
      </trkpt>
      <trkpt lat="46.428925478830934" lon="8.348974194377661">
        <ele>2462.5500000000002</ele>
        <time>2015-08-09T11:22:48Z</time>
      </trkpt>
      <trkpt lat="46.428972333669662" lon="8.349013505503535">
        <ele>2464.96</ele>
        <time>2015-08-09T11:22:59Z</time>
      </trkpt>
      <trkpt lat="46.428997227922082" lon="8.349041501060128">
        <ele>2466.8800000000001</ele>
        <time>2015-08-09T11:23:05Z</time>
      </trkpt>
      <trkpt lat="46.429037880152464" lon="8.349058432504535">
        <ele>2467.3600000000001</ele>
        <time>2015-08-09T11:23:17Z</time>
      </trkpt>
      <trkpt lat="46.429025391116738" lon="8.349025491625071">
        <ele>2467.3600000000001</ele>
        <time>2015-08-09T11:23:30Z</time>
      </trkpt>
      <trkpt lat="46.429020529612899" lon="8.349046362563968">
        <ele>2466.8800000000001</ele>
        <time>2015-08-09T11:23:37Z</time>
      </trkpt>
      <trkpt lat="46.429024720564485" lon="8.348999843001366">
        <ele>2467.3600000000001</ele>
        <time>2015-08-09T11:23:54Z</time>
      </trkpt>
      <trkpt lat="46.429030168801546" lon="8.34904208779335">
        <ele>2467.3600000000001</ele>
        <time>2015-08-09T11:24:13Z</time>
      </trkpt>
      <trkpt lat="46.429017428308725" lon="8.349029598757625">
        <ele>2467.8400000000001</ele>
        <time>2015-08-09T11:24:33Z</time>
      </trkpt>
      <trkpt lat="46.429034527391195" lon="8.349006129428744">
        <ele>2469.2800000000002</ele>
        <time>2015-08-09T11:24:54Z</time>
      </trkpt>
      <trkpt lat="46.42901910468936" lon="8.348901020362973">
        <ele>2470.73</ele>
        <time>2015-08-09T11:25:04Z</time>
      </trkpt>
      <trkpt lat="46.428992701694369" lon="8.348785936832428">
        <ele>2473.1300000000001</ele>
        <time>2015-08-09T11:25:16Z</time>
      </trkpt>
      <trkpt lat="46.428964789956808" lon="8.348681163042784">
        <ele>2475.0500000000002</ele>
        <time>2015-08-09T11:25:26Z</time>
      </trkpt>
      <trkpt lat="46.428932435810566" lon="8.348570941016078">
        <ele>2477.4499999999998</ele>
        <time>2015-08-09T11:25:37Z</time>
      </trkpt>
      <trkpt lat="46.428920198231936" lon="8.34846599958837">
        <ele>2478.9000000000001</ele>
        <time>2015-08-09T11:25:49Z</time>
      </trkpt>
      <trkpt lat="46.428971830755472" lon="8.34852802567184">
        <ele>2480.8200000000002</ele>
        <time>2015-08-09T11:26:00Z</time>
      </trkpt>
      <trkpt lat="46.429033605381846" lon="8.348567504435778">
        <ele>2482.7399999999998</ele>
        <time>2015-08-09T11:26:12Z</time>
      </trkpt>
      <trkpt lat="46.429101834073663" lon="8.348641265183687">
        <ele>2485.1500000000001</ele>
        <time>2015-08-09T11:26:25Z</time>
      </trkpt>
      <trkpt lat="46.429153885692358" lon="8.348727012053132">
        <ele>2485.1500000000001</ele>
        <time>2015-08-09T11:26:35Z</time>
      </trkpt>
      <trkpt lat="46.429173499345779" lon="8.34874645806849">
        <ele>2486.5900000000001</ele>
        <time>2015-08-09T11:26:39Z</time>
      </trkpt>
      <trkpt lat="46.429210966452956" lon="8.348840419203043">
        <ele>2489.9499999999998</ele>
        <time>2015-08-09T11:26:54Z</time>
      </trkpt>
      <trkpt lat="46.429263101890683" lon="8.348914682865143">
        <ele>2491.3899999999999</ele>
        <time>2015-08-09T11:27:06Z</time>
      </trkpt>
      <trkpt lat="46.429327726364136" lon="8.348998753353953">
        <ele>2493.8000000000002</ele>
        <time>2015-08-09T11:27:19Z</time>
      </trkpt>
      <trkpt lat="46.429404253140092" lon="8.34903622046113">
        <ele>2495.7199999999998</ele>
        <time>2015-08-09T11:27:31Z</time>
      </trkpt>
      <trkpt lat="46.429486060515046" lon="8.349065808579326">
        <ele>2497.6399999999999</ele>
        <time>2015-08-09T11:27:42Z</time>
      </trkpt>
      <trkpt lat="46.429562754929066" lon="8.349100090563297">
        <ele>2500.0500000000002</ele>
        <time>2015-08-09T11:27:53Z</time>
      </trkpt>
      <trkpt lat="46.429576920345426" lon="8.349098414182663">
        <ele>2500.0500000000002</ele>
        <time>2015-08-09T11:27:55Z</time>
      </trkpt>
      <trkpt lat="46.429643556475639" lon="8.3491534832865">
        <ele>2499.0799999999999</ele>
        <time>2015-08-09T11:28:01Z</time>
      </trkpt>
      <trkpt lat="46.429746570065618" lon="8.349148873239756">
        <ele>2498.5999999999999</ele>
        <time>2015-08-09T11:28:11Z</time>
      </trkpt>
      <trkpt lat="46.429861905053258" lon="8.349062036722899">
        <ele>2496.1999999999998</ele>
        <time>2015-08-09T11:28:25Z</time>
      </trkpt>
      <trkpt lat="46.429976318031549" lon="8.349089613184333">
        <ele>2496.6799999999998</ele>
        <time>2015-08-09T11:28:35Z</time>
      </trkpt>
      <trkpt lat="46.430061561986804" lon="8.349179467186332">
        <ele>2498.1199999999999</ele>
        <time>2015-08-09T11:28:47Z</time>
      </trkpt>
      <trkpt lat="46.430162312462926" lon="8.349262783303857">
        <ele>2499.5700000000002</ele>
        <time>2015-08-09T11:28:59Z</time>
      </trkpt>
      <trkpt lat="46.430249819532037" lon="8.349348278716207">
        <ele>2499.5700000000002</ele>
        <time>2015-08-09T11:29:10Z</time>
      </trkpt>
      <trkpt lat="46.430296003818512" lon="8.349450118839741">
        <ele>2499.0799999999999</ele>
        <time>2015-08-09T11:29:19Z</time>
      </trkpt>
      <trkpt lat="46.430360795930028" lon="8.349642986431718">
        <ele>2499.5700000000002</ele>
        <time>2015-08-09T11:29:33Z</time>
      </trkpt>
      <trkpt lat="46.430401196703315" lon="8.34982437081635">
        <ele>2499.5700000000002</ele>
        <time>2015-08-09T11:29:45Z</time>
      </trkpt>
      <trkpt lat="46.430441932752728" lon="8.350013047456741">
        <ele>2499.0799999999999</ele>
        <time>2015-08-09T11:29:57Z</time>
      </trkpt>
      <trkpt lat="46.430422905832529" lon="8.350002821534872">
        <ele>2499.0799999999999</ele>
        <time>2015-08-09T11:30:12Z</time>
      </trkpt>
      <trkpt lat="46.430448470637202" lon="8.350140117108822">
        <ele>2498.5999999999999</ele>
        <time>2015-08-09T11:30:21Z</time>
      </trkpt>
      <trkpt lat="46.430475628003478" lon="8.350368021056056">
        <ele>2497.6399999999999</ele>
        <time>2015-08-09T11:30:34Z</time>
      </trkpt>
      <trkpt lat="46.430498175323009" lon="8.350474135950208">
        <ele>2497.6399999999999</ele>
        <time>2015-08-09T11:30:40Z</time>
      </trkpt>
      <trkpt lat="46.430508987978101" lon="8.350516045466065">
        <ele>2497.1599999999999</ele>
        <time>2015-08-09T11:30:43Z</time>
      </trkpt>
      <trkpt lat="46.430536899715662" lon="8.350731963291764">
        <ele>2496.1999999999998</ele>
        <time>2015-08-09T11:30:57Z</time>
      </trkpt>
      <trkpt lat="46.430567242205143" lon="8.350888788700104">
        <ele>2494.7600000000002</ele>
        <time>2015-08-09T11:31:07Z</time>
      </trkpt>
      <trkpt lat="46.430622562766075" lon="8.351032789796591">
        <ele>2493.8000000000002</ele>
        <time>2015-08-09T11:31:17Z</time>
      </trkpt>
      <trkpt lat="46.430665478110313" lon="8.351219957694411">
        <ele>2492.8400000000001</ele>
        <time>2015-08-09T11:31:29Z</time>
      </trkpt>
      <trkpt lat="46.43069121055305" lon="8.351328503340483">
        <ele>2492.3600000000001</ele>
        <time>2015-08-09T11:31:36Z</time>
      </trkpt>
      <trkpt lat="46.430707219988108" lon="8.351417519152165">
        <ele>2491.8699999999999</ele>
        <time>2015-08-09T11:31:41Z</time>
      </trkpt>
      <trkpt lat="46.430762372910976" lon="8.351645926013589">
        <ele>2490.9099999999999</ele>
        <time>2015-08-09T11:31:54Z</time>
      </trkpt>
      <trkpt lat="46.4308026060462" lon="8.351830160245299">
        <ele>2489.4699999999998</ele>
        <time>2015-08-09T11:32:06Z</time>
      </trkpt>
      <trkpt lat="46.43085733987391" lon="8.35201682522893">
        <ele>2488.9899999999998</ele>
        <time>2015-08-09T11:32:17Z</time>
      </trkpt>
      <trkpt lat="46.43086614087224" lon="8.352028224617243">
        <ele>2488.9899999999998</ele>
        <time>2015-08-09T11:32:18Z</time>
      </trkpt>
      <trkpt lat="46.430910648778081" lon="8.352247579023242">
        <ele>2488.0300000000002</ele>
        <time>2015-08-09T11:32:31Z</time>
      </trkpt>
      <trkpt lat="46.430952390655875" lon="8.352516302838922">
        <ele>2487.0700000000002</ele>
        <time>2015-08-09T11:32:46Z</time>
      </trkpt>
      <trkpt lat="46.430979045107961" lon="8.352747308090329">
        <ele>2486.1100000000001</ele>
        <time>2015-08-09T11:32:59Z</time>
      </trkpt>
      <trkpt lat="46.43102103844285" lon="8.352968255057931">
        <ele>2485.1500000000001</ele>
        <time>2015-08-09T11:33:12Z</time>
      </trkpt>
      <trkpt lat="46.431067138910294" lon="8.353188699111342">
        <ele>2484.1799999999998</ele>
        <time>2015-08-09T11:33:25Z</time>
      </trkpt>
      <trkpt lat="46.431113323196769" lon="8.353442335501313">
        <ele>2482.7399999999998</ele>
        <time>2015-08-09T11:33:40Z</time>
      </trkpt>
      <trkpt lat="46.431196974590421" lon="8.353643752634525">
        <ele>2481.7800000000002</ele>
        <time>2015-08-09T11:33:53Z</time>
      </trkpt>
      <trkpt lat="46.431269226595759" lon="8.35385849699378">
        <ele>2480.3400000000001</ele>
        <time>2015-08-09T11:34:06Z</time>
      </trkpt>
      <trkpt lat="46.431323457509279" lon="8.354087574407458">
        <ele>2479.3800000000001</ele>
        <time>2015-08-09T11:34:18Z</time>
      </trkpt>
      <trkpt lat="46.431388333439827" lon="8.354264348745346">
        <ele>2477.9400000000001</ele>
        <time>2015-08-09T11:34:31Z</time>
      </trkpt>
      <trkpt lat="46.43145589157939" lon="8.354466604068875">
        <ele>2476.9699999999998</ele>
        <time>2015-08-09T11:34:44Z</time>
      </trkpt>
      <trkpt lat="46.431499309837818" lon="8.354650503024459">
        <ele>2476.4899999999998</ele>
        <time>2015-08-09T11:34:55Z</time>
      </trkpt>
      <trkpt lat="46.43157365731895" lon="8.354868516325951">
        <ele>2475.5300000000002</ele>
        <time>2015-08-09T11:35:08Z</time>
      </trkpt>
      <trkpt lat="46.431629983708262" lon="8.355048224329948">
        <ele>2474.5700000000002</ele>
        <time>2015-08-09T11:35:19Z</time>
      </trkpt>
      <trkpt lat="46.431720675900578" lon="8.355234218761325">
        <ele>2474.0900000000001</ele>
        <time>2015-08-09T11:35:32Z</time>
      </trkpt>
      <trkpt lat="46.431786390021443" lon="8.355383416637778">
        <ele>2473.6100000000001</ele>
        <time>2015-08-09T11:35:42Z</time>
      </trkpt>
      <trkpt lat="46.431865263730288" lon="8.355553233996034">
        <ele>2473.1300000000001</ele>
        <time>2015-08-09T11:35:53Z</time>
      </trkpt>
      <trkpt lat="46.431946819648147" lon="8.355695558711886">
        <ele>2472.6500000000001</ele>
        <time>2015-08-09T11:36:03Z</time>
      </trkpt>
      <trkpt lat="46.432032734155655" lon="8.355915416032076">
        <ele>2472.1700000000001</ele>
        <time>2015-08-09T11:36:17Z</time>
      </trkpt>
      <trkpt lat="46.432066932320595" lon="8.356012813746929">
        <ele>2472.6500000000001</ele>
        <time>2015-08-09T11:36:24Z</time>
      </trkpt>
      <trkpt lat="46.432109177112579" lon="8.356050532311201">
        <ele>2471.6900000000001</ele>
        <time>2015-08-09T11:36:28Z</time>
      </trkpt>
      <trkpt lat="46.432213699445128" lon="8.356225630268455">
        <ele>2471.6900000000001</ele>
        <time>2015-08-09T11:36:41Z</time>
      </trkpt>
      <trkpt lat="46.432311432436109" lon="8.356423024088144">
        <ele>2471.6900000000001</ele>
        <time>2015-08-09T11:36:54Z</time>
      </trkpt>
      <trkpt lat="46.432391814887524" lon="8.356604324653745">
        <ele>2471.21</ele>
        <time>2015-08-09T11:37:06Z</time>
      </trkpt>
      <trkpt lat="46.432466665282845" lon="8.3567775785923">
        <ele>2471.21</ele>
        <time>2015-08-09T11:37:18Z</time>
      </trkpt>
      <trkpt lat="46.432549059391022" lon="8.356939433142543">
        <ele>2471.21</ele>
        <time>2015-08-09T11:37:29Z</time>
      </trkpt>
      <trkpt lat="46.432631956413388" lon="8.357119644060731">
        <ele>2470.73</ele>
        <time>2015-08-09T11:37:41Z</time>
      </trkpt>
      <trkpt lat="46.432704208418727" lon="8.357267417013645">
        <ele>2470.73</ele>
        <time>2015-08-09T11:37:52Z</time>
      </trkpt>
      <trkpt lat="46.43276983872056" lon="8.357442766427994">
        <ele>2470.73</ele>
        <time>2015-08-09T11:38:02Z</time>
      </trkpt>
      <trkpt lat="46.432813927531242" lon="8.357603866606951">
        <ele>2470.2399999999998</ele>
        <time>2015-08-09T11:38:12Z</time>
      </trkpt>
      <trkpt lat="46.432902859523892" lon="8.357786424458027">
        <ele>2470.2399999999998</ele>
        <time>2015-08-09T11:38:25Z</time>
      </trkpt>
      <trkpt lat="46.432962287217379" lon="8.357987506315112">
        <ele>2470.2399999999998</ele>
        <time>2015-08-09T11:38:37Z</time>
      </trkpt>
      <trkpt lat="46.433037724345922" lon="8.358183056116104">
        <ele>2469.2800000000002</ele>
        <time>2015-08-09T11:38:50Z</time>
      </trkpt>
      <trkpt lat="46.433062283322215" lon="8.358245082199574">
        <ele>2469.2800000000002</ele>
        <time>2015-08-09T11:38:54Z</time>
      </trkpt>
      <trkpt lat="46.433177702128887" lon="8.358377180993557">
        <ele>2468.8000000000002</ele>
        <time>2015-08-09T11:39:07Z</time>
      </trkpt>
      <trkpt lat="46.433269400149584" lon="8.358464017510414">
        <ele>2468.8000000000002</ele>
        <time>2015-08-09T11:39:16Z</time>
      </trkpt>
      <trkpt lat="46.433378951624036" lon="8.358548087999225">
        <ele>2468.8000000000002</ele>
        <time>2015-08-09T11:39:26Z</time>
      </trkpt>
      <trkpt lat="46.433463860303164" lon="8.358647581189871">
        <ele>2468.8000000000002</ele>
        <time>2015-08-09T11:39:35Z</time>
      </trkpt>
      <trkpt lat="46.433530328795314" lon="8.358733998611569">
        <ele>2468.8000000000002</ele>
        <time>2015-08-09T11:39:43Z</time>
      </trkpt>
      <trkpt lat="46.433619596064091" lon="8.358816141262651">
        <ele>2468.8000000000002</ele>
        <time>2015-08-09T11:39:52Z</time>
      </trkpt>
      <trkpt lat="46.433653458952904" lon="8.358828462660313">
        <ele>2468.8000000000002</ele>
        <time>2015-08-09T11:39:55Z</time>
      </trkpt>
      <trkpt lat="46.433663936331868" lon="8.358913287520409">
        <ele>2468.8000000000002</ele>
        <time>2015-08-09T11:40:00Z</time>
      </trkpt>
      <trkpt lat="46.433707103133202" lon="8.358965339139104">
        <ele>2468.8000000000002</ele>
        <time>2015-08-09T11:40:05Z</time>
      </trkpt>
      <trkpt lat="46.433731326833367" lon="8.35895293392241">
        <ele>2468.3200000000002</ele>
        <time>2015-08-09T11:40:07Z</time>
      </trkpt>
      <trkpt lat="46.433752700686455" lon="8.358957711607218">
        <ele>2468.8000000000002</ele>
        <time>2015-08-09T11:40:09Z</time>
      </trkpt>
      <trkpt lat="46.433763178065419" lon="8.358980426564813">
        <ele>2468.8000000000002</ele>
        <time>2015-08-09T11:40:11Z</time>
      </trkpt>
      <trkpt lat="46.433844231069088" lon="8.359114453196526">
        <ele>2469.7600000000002</ele>
        <time>2015-08-09T11:40:22Z</time>
      </trkpt>
      <trkpt lat="46.433875663205981" lon="8.359179329127073">
        <ele>2469.7600000000002</ele>
        <time>2015-08-09T11:40:26Z</time>
      </trkpt>
      <trkpt lat="46.433885134756565" lon="8.35930815897882">
        <ele>2469.7600000000002</ele>
        <time>2015-08-09T11:40:34Z</time>
      </trkpt>
      <trkpt lat="46.433924110606313" lon="8.359513264149427">
        <ele>2468.3200000000002</ele>
        <time>2015-08-09T11:40:46Z</time>
      </trkpt>
      <trkpt lat="46.433947999030352" lon="8.359687021002173">
        <ele>2468.3200000000002</ele>
        <time>2015-08-09T11:40:56Z</time>
      </trkpt>
      <trkpt lat="46.433978928253055" lon="8.359894137829542">
        <ele>2467.3600000000001</ele>
        <time>2015-08-09T11:41:09Z</time>
      </trkpt>
      <trkpt lat="46.43399091437459" lon="8.359953062608838">
        <ele>2466.8800000000001</ele>
        <time>2015-08-09T11:41:12Z</time>
      </trkpt>
      <trkpt lat="46.434084875509143" lon="8.360112318769097">
        <ele>2465.9200000000001</ele>
        <time>2015-08-09T11:41:24Z</time>
      </trkpt>
      <trkpt lat="46.434182524681091" lon="8.360192533582449">
        <ele>2466.4000000000001</ele>
        <time>2015-08-09T11:41:34Z</time>
      </trkpt>
      <trkpt lat="46.434251759201288" lon="8.360327985137701">
        <ele>2465.4400000000001</ele>
        <time>2015-08-09T11:41:44Z</time>
      </trkpt>
      <trkpt lat="46.434261901304126" lon="8.360409876331687">
        <ele>2464.96</ele>
        <time>2015-08-09T11:41:49Z</time>
      </trkpt>
      <trkpt lat="46.434287382289767" lon="8.36049746721983">
        <ele>2464.96</ele>
        <time>2015-08-09T11:41:55Z</time>
      </trkpt>
      <trkpt lat="46.434334823861718" lon="8.360570473596454">
        <ele>2464.96</ele>
        <time>2015-08-09T11:42:05Z</time>
      </trkpt>
      <trkpt lat="46.43433147110045" lon="8.360580112785101">
        <ele>2464.48</ele>
        <time>2015-08-09T11:42:07Z</time>
      </trkpt>
      <trkpt lat="46.434319568797946" lon="8.36055027320981">
        <ele>2463.52</ele>
        <time>2015-08-09T11:42:18Z</time>
      </trkpt>
      <trkpt lat="46.434321580454707" lon="8.360531413927674">
        <ele>2463.52</ele>
        <time>2015-08-09T11:42:37Z</time>
      </trkpt>
      <trkpt lat="46.434322921559215" lon="8.360526384785771">
        <ele>2463.52</ele>
        <time>2015-08-09T11:42:53Z</time>
      </trkpt>
      <trkpt lat="46.434329375624657" lon="8.360529486089945">
        <ele>2464.48</ele>
        <time>2015-08-09T11:43:01Z</time>
      </trkpt>
      <trkpt lat="46.4343202393502" lon="8.360552033409476">
        <ele>2464.48</ele>
        <time>2015-08-09T11:43:12Z</time>
      </trkpt>
      <trkpt lat="46.434315294027328" lon="8.360556978732348">
        <ele>2464.48</ele>
        <time>2015-08-09T11:43:39Z</time>
      </trkpt>
      <trkpt lat="46.434331219643354" lon="8.360572401434183">
        <ele>2464.48</ele>
        <time>2015-08-09T11:43:59Z</time>
      </trkpt>
      <trkpt lat="46.43433490768075" lon="8.360598469153047">
        <ele>2464</ele>
        <time>2015-08-09T11:44:14Z</time>
      </trkpt>
      <trkpt lat="46.434336751699448" lon="8.360610874369741">
        <ele>2464</ele>
        <time>2015-08-09T11:44:37Z</time>
      </trkpt>
      <trkpt lat="46.434340355917811" lon="8.360651191323996">
        <ele>2463.52</ele>
        <time>2015-08-09T11:44:56Z</time>
      </trkpt>
      <trkpt lat="46.434347983449697" lon="8.360675750300288">
        <ele>2463.52</ele>
        <time>2015-08-09T11:44:59Z</time>
      </trkpt>
      <trkpt lat="46.434457451105118" lon="8.360757390037179">
        <ele>2463.04</ele>
        <time>2015-08-09T11:45:10Z</time>
      </trkpt>
      <trkpt lat="46.434550490230322" lon="8.36091723293066">
        <ele>2463.04</ele>
        <time>2015-08-09T11:45:23Z</time>
      </trkpt>
      <trkpt lat="46.434626178815961" lon="8.361119069159031">
        <ele>2462.5500000000002</ele>
        <time>2015-08-09T11:45:36Z</time>
      </trkpt>
      <trkpt lat="46.434658532962203" lon="8.36120112799108">
        <ele>2463.04</ele>
        <time>2015-08-09T11:45:41Z</time>
      </trkpt>
      <trkpt lat="46.434744950383902" lon="8.361280085518956">
        <ele>2463.04</ele>
        <time>2015-08-09T11:45:49Z</time>
      </trkpt>
      <trkpt lat="46.43477126955986" lon="8.361347978934646">
        <ele>2463.04</ele>
        <time>2015-08-09T11:45:54Z</time>
      </trkpt>
      <trkpt lat="46.434844611212611" lon="8.361477814614773">
        <ele>2464</ele>
        <time>2015-08-09T11:46:05Z</time>
      </trkpt>
      <trkpt lat="46.434894232079387" lon="8.361545288935304">
        <ele>2464.96</ele>
        <time>2015-08-09T11:46:11Z</time>
      </trkpt>
      <trkpt lat="46.434915103018284" lon="8.361560627818108">
        <ele>2464.96</ele>
        <time>2015-08-09T11:46:12Z</time>
      </trkpt>
      <trkpt lat="46.434938572347164" lon="8.361623743548989">
        <ele>2464.96</ele>
        <time>2015-08-09T11:46:17Z</time>
      </trkpt>
      <trkpt lat="46.434992719441652" lon="8.361776042729616">
        <ele>2464.48</ele>
        <time>2015-08-09T11:46:27Z</time>
      </trkpt>
      <trkpt lat="46.435006130486727" lon="8.361811665818095">
        <ele>2464.48</ele>
        <time>2015-08-09T11:46:30Z</time>
      </trkpt>
      <trkpt lat="46.435067905113101" lon="8.361990367993712">
        <ele>2464.48</ele>
        <time>2015-08-09T11:46:41Z</time>
      </trkpt>
      <trkpt lat="46.435085171833634" lon="8.362010400742292">
        <ele>2464.48</ele>
        <time>2015-08-09T11:46:43Z</time>
      </trkpt>
      <trkpt lat="46.435178965330124" lon="8.362177116796374">
        <ele>2463.52</ele>
        <time>2015-08-09T11:46:55Z</time>
      </trkpt>
      <trkpt lat="46.435253480449319" lon="8.36237677372992">
        <ele>2462.0700000000002</ele>
        <time>2015-08-09T11:47:07Z</time>
      </trkpt>
      <trkpt lat="46.435274938121438" lon="8.362495461478829">
        <ele>2461.1100000000001</ele>
        <time>2015-08-09T11:47:13Z</time>
      </trkpt>
      <trkpt lat="46.435352889820933" lon="8.362607778981328">
        <ele>2460.1500000000001</ele>
        <time>2015-08-09T11:47:22Z</time>
      </trkpt>
      <trkpt lat="46.435354398563504" lon="8.362625129520893">
        <ele>2460.1500000000001</ele>
        <time>2015-08-09T11:47:23Z</time>
      </trkpt>
      <trkpt lat="46.435405695810914" lon="8.362804753705859">
        <ele>2459.1900000000001</ele>
        <time>2015-08-09T11:47:34Z</time>
      </trkpt>
      <trkpt lat="46.4354167599231" lon="8.362882873043418">
        <ele>2458.23</ele>
        <time>2015-08-09T11:47:38Z</time>
      </trkpt>
      <trkpt lat="46.435456490144134" lon="8.362971972674131">
        <ele>2457.75</ele>
        <time>2015-08-09T11:47:44Z</time>
      </trkpt>
      <trkpt lat="46.435549277812243" lon="8.363124188035727">
        <ele>2456.79</ele>
        <time>2015-08-09T11:47:56Z</time>
      </trkpt>
      <trkpt lat="46.43557408824563" lon="8.363171126693487">
        <ele>2455.3400000000001</ele>
        <time>2015-08-09T11:48:00Z</time>
      </trkpt>
      <trkpt lat="46.43564734607935" lon="8.363231392577291">
        <ele>2452.9400000000001</ele>
        <time>2015-08-09T11:48:08Z</time>
      </trkpt>
      <trkpt lat="46.435654051601887" lon="8.363235415890813">
        <ele>2452.9400000000001</ele>
        <time>2015-08-09T11:48:09Z</time>
      </trkpt>
      <trkpt lat="46.435686321929097" lon="8.363252012059093">
        <ele>2452.9400000000001</ele>
        <time>2015-08-09T11:48:13Z</time>
      </trkpt>
      <trkpt lat="46.435732506215572" lon="8.363276571035385">
        <ele>2451.98</ele>
        <time>2015-08-09T11:48:17Z</time>
      </trkpt>
      <trkpt lat="46.435830323025584" lon="8.363364245742559">
        <ele>2452.9400000000001</ele>
        <time>2015-08-09T11:48:28Z</time>
      </trkpt>
      <trkpt lat="46.435906011611223" lon="8.363423338159919">
        <ele>2455.3400000000001</ele>
        <time>2015-08-09T11:48:38Z</time>
      </trkpt>
      <trkpt lat="46.435954039916396" lon="8.363484106957912">
        <ele>2456.79</ele>
        <time>2015-08-09T11:48:45Z</time>
      </trkpt>
      <trkpt lat="46.436034254729748" lon="8.36350355297327">
        <ele>2454.8600000000001</ele>
        <time>2015-08-09T11:48:54Z</time>
      </trkpt>
      <trkpt lat="46.436067782342434" lon="8.36347714997828">
        <ele>2453.4200000000001</ele>
        <time>2015-08-09T11:48:58Z</time>
      </trkpt>
      <trkpt lat="46.436186721548438" lon="8.363453261554241">
        <ele>2450.54</ele>
        <time>2015-08-09T11:49:09Z</time>
      </trkpt>
      <trkpt lat="46.436262745410204" lon="8.363437419757247">
        <ele>2448.1300000000001</ele>
        <time>2015-08-09T11:49:17Z</time>
      </trkpt>
      <trkpt lat="46.436343630775809" lon="8.363504894077778">
        <ele>2446.21</ele>
        <time>2015-08-09T11:49:26Z</time>
      </trkpt>
      <trkpt lat="46.436444045975804" lon="8.363548647612333">
        <ele>2442.8499999999999</ele>
        <time>2015-08-09T11:49:37Z</time>
      </trkpt>
      <trkpt lat="46.436466341838241" lon="8.36355434730649">
        <ele>2441.8899999999999</ele>
        <time>2015-08-09T11:49:40Z</time>
      </trkpt>
      <trkpt lat="46.436558710411191" lon="8.363558957353234">
        <ele>2439</ele>
        <time>2015-08-09T11:49:51Z</time>
      </trkpt>
      <trkpt lat="46.436570947989821" lon="8.363552168011665">
        <ele>2438.52</ele>
        <time>2015-08-09T11:49:52Z</time>
      </trkpt>
      <trkpt lat="46.436706399545074" lon="8.363598184660077">
        <ele>2435.6399999999999</ele>
        <time>2015-08-09T11:50:03Z</time>
      </trkpt>
      <trkpt lat="46.43672383390367" lon="8.363599358126521">
        <ele>2435.6399999999999</ele>
        <time>2015-08-09T11:50:05Z</time>
      </trkpt>
      <trkpt lat="46.43678686581552" lon="8.363670771941543">
        <ele>2435.6399999999999</ele>
        <time>2015-08-09T11:50:15Z</time>
      </trkpt>
      <trkpt lat="46.436800612136722" lon="8.363667754456401">
        <ele>2435.1599999999999</ele>
        <time>2015-08-09T11:50:23Z</time>
      </trkpt>
      <trkpt lat="46.436805473640561" lon="8.363674459978938">
        <ele>2435.1599999999999</ele>
        <time>2015-08-09T11:50:30Z</time>
      </trkpt>
      <trkpt lat="46.436844700947404" lon="8.363617463037372">
        <ele>2435.1599999999999</ele>
        <time>2015-08-09T11:50:34Z</time>
      </trkpt>
      <trkpt lat="46.43687479197979" lon="8.363601705059409">
        <ele>2435.1599999999999</ele>
        <time>2015-08-09T11:50:36Z</time>
      </trkpt>
      <trkpt lat="46.436977637931705" lon="8.363639591261745">
        <ele>2435.6399999999999</ele>
        <time>2015-08-09T11:50:44Z</time>
      </trkpt>
      <trkpt lat="46.437005801126361" lon="8.363652834668756">
        <ele>2435.6399999999999</ele>
        <time>2015-08-09T11:50:46Z</time>
      </trkpt>
      <trkpt lat="46.437107305973768" lon="8.363750232383609">
        <ele>2436.1199999999999</ele>
        <time>2015-08-09T11:50:57Z</time>
      </trkpt>
      <trkpt lat="46.437141755595803" lon="8.363767582923174">
        <ele>2436.5999999999999</ele>
        <time>2015-08-09T11:51:00Z</time>
      </trkpt>
      <trkpt lat="46.437195315957069" lon="8.363764733076096">
        <ele>2436.1199999999999</ele>
        <time>2015-08-09T11:51:05Z</time>
      </trkpt>
      <trkpt lat="46.437240745872259" lon="8.363776803016663">
        <ele>2436.1199999999999</ele>
        <time>2015-08-09T11:51:09Z</time>
      </trkpt>
      <trkpt lat="46.437285924330354" lon="8.363767080008984">
        <ele>2435.6399999999999</ele>
        <time>2015-08-09T11:51:13Z</time>
      </trkpt>
      <trkpt lat="46.437401259317994" lon="8.363854922354221">
        <ele>2434.6799999999998</ele>
        <time>2015-08-09T11:51:25Z</time>
      </trkpt>
      <trkpt lat="46.437492873519659" lon="8.363924659788609">
        <ele>2431.79</ele>
        <time>2015-08-09T11:51:34Z</time>
      </trkpt>
      <trkpt lat="46.437563532963395" lon="8.363966066390276">
        <ele>2429.8699999999999</ele>
        <time>2015-08-09T11:51:41Z</time>
      </trkpt>
      <trkpt lat="46.437670821323991" lon="8.364054914563894">
        <ele>2426.9899999999998</ele>
        <time>2015-08-09T11:51:52Z</time>
      </trkpt>
      <trkpt lat="46.437697308138013" lon="8.364088609814644">
        <ele>2426.5</ele>
        <time>2015-08-09T11:51:55Z</time>
      </trkpt>
      <trkpt lat="46.437822030857205" lon="8.364181481301785">
        <ele>2423.6199999999999</ele>
        <time>2015-08-09T11:52:06Z</time>
      </trkpt>
      <trkpt lat="46.437951363623142" lon="8.364289104938507">
        <ele>2420.7399999999998</ele>
        <time>2015-08-09T11:52:17Z</time>
      </trkpt>
      <trkpt lat="46.438059154897928" lon="8.364393711090088">
        <ele>2418.8099999999999</ele>
        <time>2015-08-09T11:52:28Z</time>
      </trkpt>
      <trkpt lat="46.438152696937323" lon="8.364527067169547">
        <ele>2415.4499999999998</ele>
        <time>2015-08-09T11:52:39Z</time>
      </trkpt>
      <trkpt lat="46.438211034983397" lon="8.364613149315119">
        <ele>2414.0100000000002</ele>
        <time>2015-08-09T11:52:46Z</time>
      </trkpt>
      <trkpt lat="46.438284208998084" lon="8.364758742973208">
        <ele>2410.6399999999999</ele>
        <time>2015-08-09T11:52:57Z</time>
      </trkpt>
      <trkpt lat="46.438346821814775" lon="8.36493669077754">
        <ele>2408.7199999999998</ele>
        <time>2015-08-09T11:53:07Z</time>
      </trkpt>
      <trkpt lat="46.438412452116609" lon="8.365111956372857">
        <ele>2407.7600000000002</ele>
        <time>2015-08-09T11:53:18Z</time>
      </trkpt>
      <trkpt lat="46.438422510400414" lon="8.365126708522439">
        <ele>2407.7600000000002</ele>
        <time>2015-08-09T11:53:19Z</time>
      </trkpt>
      <trkpt lat="46.438437346369028" lon="8.36519418284297">
        <ele>2406.8000000000002</ele>
        <time>2015-08-09T11:53:23Z</time>
      </trkpt>
      <trkpt lat="46.438485709950328" lon="8.365310020744801">
        <ele>2403.9099999999999</ele>
        <time>2015-08-09T11:53:31Z</time>
      </trkpt>
      <trkpt lat="46.438506245613098" lon="8.365418314933777">
        <ele>2402.4699999999998</ele>
        <time>2015-08-09T11:53:37Z</time>
      </trkpt>
      <trkpt lat="46.438508089631796" lon="8.365466091781855">
        <ele>2401.9899999999998</ele>
        <time>2015-08-09T11:53:40Z</time>
      </trkpt>
      <trkpt lat="46.438526445999742" lon="8.365602884441614">
        <ele>2398.6300000000001</ele>
        <time>2015-08-09T11:53:48Z</time>
      </trkpt>
      <trkpt lat="46.438534157350659" lon="8.365613361820579">
        <ele>2398.6300000000001</ele>
        <time>2015-08-09T11:53:49Z</time>
      </trkpt>
      <trkpt lat="46.438548490405083" lon="8.365638004615903">
        <ele>2397.6700000000001</ele>
        <time>2015-08-09T11:53:51Z</time>
      </trkpt>
      <trkpt lat="46.438616719096899" lon="8.365833051502705">
        <ele>2394.7800000000002</ele>
        <time>2015-08-09T11:54:04Z</time>
      </trkpt>
      <trkpt lat="46.438673548400402" lon="8.365971520543098">
        <ele>2391.4200000000001</ele>
        <time>2015-08-09T11:54:14Z</time>
      </trkpt>
      <trkpt lat="46.438694335520267" lon="8.366070175543428">
        <ele>2389.4899999999998</ele>
        <time>2015-08-09T11:54:21Z</time>
      </trkpt>
      <trkpt lat="46.438719481229782" lon="8.366136979311705">
        <ele>2388.0500000000002</ele>
        <time>2015-08-09T11:54:27Z</time>
      </trkpt>
      <trkpt lat="46.438717218115926" lon="8.366161622107029">
        <ele>2387.5700000000002</ele>
        <time>2015-08-09T11:54:30Z</time>
      </trkpt>
      <trkpt lat="46.438752505928278" lon="8.366054082289338">
        <ele>2385.6500000000001</ele>
        <time>2015-08-09T11:54:38Z</time>
      </trkpt>
      <trkpt lat="46.438738089054823" lon="8.365948218852282">
        <ele>2385.1700000000001</ele>
        <time>2015-08-09T11:54:44Z</time>
      </trkpt>
      <trkpt lat="46.438767928630114" lon="8.365746885538101">
        <ele>2383.73</ele>
        <time>2015-08-09T11:54:56Z</time>
      </trkpt>
      <trkpt lat="46.438774969428778" lon="8.365721153095365">
        <ele>2382.7600000000002</ele>
        <time>2015-08-09T11:54:58Z</time>
      </trkpt>
      <trkpt lat="46.438832553103566" lon="8.365875128656626">
        <ele>2380.8400000000001</ele>
        <time>2015-08-09T11:55:07Z</time>
      </trkpt>
      <trkpt lat="46.438848311081529" lon="8.365929862484336">
        <ele>2379.4000000000001</ele>
        <time>2015-08-09T11:55:10Z</time>
      </trkpt>
      <trkpt lat="46.438916204497218" lon="8.366137817502022">
        <ele>2376.52</ele>
        <time>2015-08-09T11:55:23Z</time>
      </trkpt>
      <trkpt lat="46.438926933333278" lon="8.366169249638915">
        <ele>2375.5500000000002</ele>
        <time>2015-08-09T11:55:25Z</time>
      </trkpt>
      <trkpt lat="46.438954593613744" lon="8.366350717842579">
        <ele>2372.1900000000001</ele>
        <time>2015-08-09T11:55:35Z</time>
      </trkpt>
      <trkpt lat="46.438969261944294" lon="8.366417940706015">
        <ele>2370.75</ele>
        <time>2015-08-09T11:55:39Z</time>
      </trkpt>
      <trkpt lat="46.438977057114244" lon="8.366471920162439">
        <ele>2369.3099999999999</ele>
        <time>2015-08-09T11:55:44Z</time>
      </trkpt>
      <trkpt lat="46.438962304964662" lon="8.366559091955423">
        <ele>2367.8600000000001</ele>
        <time>2015-08-09T11:55:52Z</time>
      </trkpt>
      <trkpt lat="46.438966244459152" lon="8.36662832647562">
        <ele>2365.46</ele>
        <time>2015-08-09T11:55:59Z</time>
      </trkpt>
      <trkpt lat="46.438972782343626" lon="8.366771237924695">
        <ele>2362.0999999999999</ele>
        <time>2015-08-09T11:56:09Z</time>
      </trkpt>
      <trkpt lat="46.438956772908568" lon="8.366854302585125">
        <ele>2360.6500000000001</ele>
        <time>2015-08-09T11:56:21Z</time>
      </trkpt>
      <trkpt lat="46.438948893919587" lon="8.36691465228796">
        <ele>2359.21</ele>
        <time>2015-08-09T11:56:24Z</time>
      </trkpt>
      <trkpt lat="46.438953755423427" lon="8.366978019475937">
        <ele>2358.25</ele>
        <time>2015-08-09T11:56:28Z</time>
      </trkpt>
      <trkpt lat="46.43892852589488" lon="8.367131492123008">
        <ele>2354.8899999999999</ele>
        <time>2015-08-09T11:56:38Z</time>
      </trkpt>
      <trkpt lat="46.438943948596716" lon="8.367169126868248">
        <ele>2353.4400000000001</ele>
        <time>2015-08-09T11:56:43Z</time>
      </trkpt>
      <trkpt lat="46.438979487866163" lon="8.367143645882607">
        <ele>2352</ele>
        <time>2015-08-09T11:56:48Z</time>
      </trkpt>
      <trkpt lat="46.439065150916576" lon="8.367079691961408">
        <ele>2348.6399999999999</ele>
        <time>2015-08-09T11:56:57Z</time>
      </trkpt>
      <trkpt lat="46.43915081396699" lon="8.367058066651225">
        <ele>2345.27</ele>
        <time>2015-08-09T11:57:06Z</time>
      </trkpt>
      <trkpt lat="46.439170092344284" lon="8.367057228460908">
        <ele>2344.79</ele>
        <time>2015-08-09T11:57:08Z</time>
      </trkpt>
      <trkpt lat="46.43922071903944" lon="8.367074662819505">
        <ele>2342.3899999999999</ele>
        <time>2015-08-09T11:57:14Z</time>
      </trkpt>
      <trkpt lat="46.439276961609721" lon="8.367091678082943">
        <ele>2339.9899999999998</ele>
        <time>2015-08-09T11:57:20Z</time>
      </trkpt>
      <trkpt lat="46.439287103712559" lon="8.36710911244154">
        <ele>2339.5100000000002</ele>
        <time>2015-08-09T11:57:22Z</time>
      </trkpt>
      <trkpt lat="46.439281068742275" lon="8.367217322811484">
        <ele>2337.0999999999999</ele>
        <time>2015-08-09T11:57:29Z</time>
      </trkpt>
      <trkpt lat="46.439264053478837" lon="8.367275577038527">
        <ele>2336.1399999999999</ele>
        <time>2015-08-09T11:57:33Z</time>
      </trkpt>
      <trkpt lat="46.439237734302878" lon="8.367407927289605">
        <ele>2333.2600000000002</ele>
        <time>2015-08-09T11:57:42Z</time>
      </trkpt>
      <trkpt lat="46.439370755106211" lon="8.367390828207135">
        <ele>2329.8899999999999</ele>
        <time>2015-08-09T11:57:53Z</time>
      </trkpt>
      <trkpt lat="46.439433200284839" lon="8.36742477491498">
        <ele>2327.9699999999998</ele>
        <time>2015-08-09T11:57:59Z</time>
      </trkpt>
      <trkpt lat="46.439472092315555" lon="8.367422260344029">
        <ele>2327.0100000000002</ele>
        <time>2015-08-09T11:58:03Z</time>
      </trkpt>
      <trkpt lat="46.439508218318224" lon="8.367433240637183">
        <ele>2326.0500000000002</ele>
        <time>2015-08-09T11:58:06Z</time>
      </trkpt>
      <trkpt lat="46.439543087035418" lon="8.367419242858887">
        <ele>2325.0900000000001</ele>
        <time>2015-08-09T11:58:09Z</time>
      </trkpt>
      <trkpt lat="46.439555743709207" lon="8.367438856512308">
        <ele>2324.6100000000001</ele>
        <time>2015-08-09T11:58:10Z</time>
      </trkpt>
      <trkpt lat="46.439557000994682" lon="8.367459224537015">
        <ele>2324.6100000000001</ele>
        <time>2015-08-09T11:58:11Z</time>
      </trkpt>
      <trkpt lat="46.439559431746602" lon="8.36747707799077">
        <ele>2324.1199999999999</ele>
        <time>2015-08-09T11:58:12Z</time>
      </trkpt>
      <trkpt lat="46.439560186117887" lon="8.367497948929668">
        <ele>2323.6399999999999</ele>
        <time>2015-08-09T11:58:13Z</time>
      </trkpt>
      <trkpt lat="46.439562113955617" lon="8.367514712736011">
        <ele>2323.1599999999999</ele>
        <time>2015-08-09T11:58:14Z</time>
      </trkpt>
      <trkpt lat="46.439563371241093" lon="8.367530470713973">
        <ele>2323.1599999999999</ele>
        <time>2015-08-09T11:58:15Z</time>
      </trkpt>
      <trkpt lat="46.439561946317554" lon="8.36754790507257">
        <ele>2322.6799999999998</ele>
        <time>2015-08-09T11:58:16Z</time>
      </trkpt>
      <trkpt lat="46.439558174461126" lon="8.367565926164389">
        <ele>2322.6799999999998</ele>
        <time>2015-08-09T11:58:17Z</time>
      </trkpt>
      <trkpt lat="46.439554151147604" lon="8.367673214524984">
        <ele>2320.2800000000002</ele>
        <time>2015-08-09T11:58:24Z</time>
      </trkpt>
      <trkpt lat="46.439552642405033" lon="8.367689307779074">
        <ele>2319.8000000000002</ele>
        <time>2015-08-09T11:58:25Z</time>
      </trkpt>
      <trkpt lat="46.439554402604699" lon="8.367702970281243">
        <ele>2319.3200000000002</ele>
        <time>2015-08-09T11:58:26Z</time>
      </trkpt>
      <trkpt lat="46.439563622698188" lon="8.367751082405448">
        <ele>2318.8400000000001</ele>
        <time>2015-08-09T11:58:30Z</time>
      </trkpt>
      <trkpt lat="46.439565885812044" lon="8.367768349125981">
        <ele>2318.3600000000001</ele>
        <time>2015-08-09T11:58:31Z</time>
      </trkpt>
      <trkpt lat="46.439563371241093" lon="8.367785951122642">
        <ele>2317.8800000000001</ele>
        <time>2015-08-09T11:58:32Z</time>
      </trkpt>
      <trkpt lat="46.439541997388005" lon="8.36784403771162">
        <ele>2316.9099999999999</ele>
        <time>2015-08-09T11:58:36Z</time>
      </trkpt>
      <trkpt lat="46.439527915790677" lon="8.367865243926644">
        <ele>2315.9499999999998</ele>
        <time>2015-08-09T11:58:40Z</time>
      </trkpt>
      <trkpt lat="46.439557923004031" lon="8.367879828438163">
        <ele>2314.5100000000002</ele>
        <time>2015-08-09T11:58:43Z</time>
      </trkpt>
      <trkpt lat="46.439602514728904" lon="8.367887875065208">
        <ele>2312.5900000000001</ele>
        <time>2015-08-09T11:58:48Z</time>
      </trkpt>
      <trkpt lat="46.439614417031407" lon="8.367883684113622">
        <ele>2312.1100000000001</ele>
        <time>2015-08-09T11:58:49Z</time>
      </trkpt>
      <trkpt lat="46.439697733148932" lon="8.367843283340335">
        <ele>2309.2199999999998</ele>
        <time>2015-08-09T11:58:59Z</time>
      </trkpt>
      <trkpt lat="46.439714664593339" lon="8.367835404351354">
        <ele>2308.2600000000002</ele>
        <time>2015-08-09T11:59:01Z</time>
      </trkpt>
      <trkpt lat="46.439744755625725" lon="8.367746891453862">
        <ele>2306.8200000000002</ele>
        <time>2015-08-09T11:59:08Z</time>
      </trkpt>
      <trkpt lat="46.439801501110196" lon="8.367616552859545">
        <ele>2303.9400000000001</ele>
        <time>2015-08-09T11:59:18Z</time>
      </trkpt>
      <trkpt lat="46.439839471131563" lon="8.367597023025155">
        <ele>2302.0100000000002</ele>
        <time>2015-08-09T11:59:25Z</time>
      </trkpt>
      <trkpt lat="46.439851457253098" lon="8.36764027364552">
        <ele>2301.0500000000002</ele>
        <time>2015-08-09T11:59:28Z</time>
      </trkpt>
      <trkpt lat="46.439851792529225" lon="8.367658713832498">
        <ele>2301.0500000000002</ele>
        <time>2015-08-09T11:59:29Z</time>
      </trkpt>
      <trkpt lat="46.439854055643082" lon="8.367675812914968">
        <ele>2300.5700000000002</ele>
        <time>2015-08-09T11:59:30Z</time>
      </trkpt>
      <trkpt lat="46.43985690549016" lon="8.367690984159708">
        <ele>2300.5700000000002</ele>
        <time>2015-08-09T11:59:31Z</time>
      </trkpt>
      <trkpt lat="46.439861850813031" lon="8.367707496508956">
        <ele>2300.0900000000001</ele>
        <time>2015-08-09T11:59:32Z</time>
      </trkpt>
      <trkpt lat="46.439865790307522" lon="8.367723505944014">
        <ele>2300.0900000000001</ele>
        <time>2015-08-09T11:59:33Z</time>
      </trkpt>
      <trkpt lat="46.439869059249759" lon="8.367742449045181">
        <ele>2299.6100000000001</ele>
        <time>2015-08-09T11:59:34Z</time>
      </trkpt>
      <trkpt lat="46.439872328191996" lon="8.367761224508286">
        <ele>2299.1300000000001</ele>
        <time>2015-08-09T11:59:35Z</time>
      </trkpt>
      <trkpt lat="46.439874842762947" lon="8.367777820676565">
        <ele>2298.6500000000001</ele>
        <time>2015-08-09T11:59:36Z</time>
      </trkpt>
      <trkpt lat="46.439874339848757" lon="8.367793494835496">
        <ele>2298.1700000000001</ele>
        <time>2015-08-09T11:59:37Z</time>
      </trkpt>
      <trkpt lat="46.439873250201344" lon="8.367812857031822">
        <ele>2297.6900000000001</ele>
        <time>2015-08-09T11:59:38Z</time>
      </trkpt>
      <trkpt lat="46.439882973209023" lon="8.367839930579066">
        <ele>2296.73</ele>
        <time>2015-08-09T11:59:40Z</time>
      </trkpt>
      <trkpt lat="46.439885152503848" lon="8.367855856195092">
        <ele>2296.73</ele>
        <time>2015-08-09T11:59:41Z</time>
      </trkpt>
      <trkpt lat="46.439882470294833" lon="8.36787773296237">
        <ele>2296.25</ele>
        <time>2015-08-09T11:59:42Z</time>
      </trkpt>
      <trkpt lat="46.439881883561611" lon="8.367895586416125">
        <ele>2296.25</ele>
        <time>2015-08-09T11:59:43Z</time>
      </trkpt>
      <trkpt lat="46.439928822219372" lon="8.368036905303598">
        <ele>2292.8800000000001</ele>
        <time>2015-08-09T11:59:53Z</time>
      </trkpt>
      <trkpt lat="46.439940053969622" lon="8.36819926276803">
        <ele>2290</ele>
        <time>2015-08-09T12:00:03Z</time>
      </trkpt>
      <trkpt lat="46.439939299598336" lon="8.368370672687888">
        <ele>2287.5900000000001</ele>
        <time>2015-08-09T12:00:12Z</time>
      </trkpt>
      <trkpt lat="46.439934438094497" lon="8.368385173380375">
        <ele>2287.1100000000001</ele>
        <time>2015-08-09T12:00:13Z</time>
      </trkpt>
      <trkpt lat="46.439929576590657" lon="8.368400428444147">
        <ele>2287.1100000000001</ele>
        <time>2015-08-09T12:00:14Z</time>
      </trkpt>
      <trkpt lat="46.439927229657769" lon="8.368415851145983">
        <ele>2286.6300000000001</ele>
        <time>2015-08-09T12:00:15Z</time>
      </trkpt>
      <trkpt lat="46.439926391467452" lon="8.368433536961675">
        <ele>2286.1500000000001</ele>
        <time>2015-08-09T12:00:16Z</time>
      </trkpt>
      <trkpt lat="46.439920859411359" lon="8.36845382116735">
        <ele>2285.6700000000001</ele>
        <time>2015-08-09T12:00:17Z</time>
      </trkpt>
      <trkpt lat="46.439915411174297" lon="8.368471004068852">
        <ele>2285.6700000000001</ele>
        <time>2015-08-09T12:00:18Z</time>
      </trkpt>
      <trkpt lat="46.439914489164948" lon="8.368488354608417">
        <ele>2285.1900000000001</ele>
        <time>2015-08-09T12:00:19Z</time>
      </trkpt>
      <trkpt lat="46.439895126968622" lon="8.368523055687547">
        <ele>2284.23</ele>
        <time>2015-08-09T12:00:22Z</time>
      </trkpt>
      <trkpt lat="46.439877022057772" lon="8.368566473945975">
        <ele>2281.8299999999999</ele>
        <time>2015-08-09T12:00:29Z</time>
      </trkpt>
      <trkpt lat="46.439883811399341" lon="8.368571838364005">
        <ele>2281.8299999999999</ele>
        <time>2015-08-09T12:00:30Z</time>
      </trkpt>
      <trkpt lat="46.439891941845417" lon="8.368568820878863">
        <ele>2281.3499999999999</ele>
        <time>2015-08-09T12:00:31Z</time>
      </trkpt>
      <trkpt lat="46.439902670681477" lon="8.368567060679197">
        <ele>2280.8699999999999</ele>
        <time>2015-08-09T12:00:32Z</time>
      </trkpt>
      <trkpt lat="46.439915830269456" lon="8.368572006002069">
        <ele>2280.8699999999999</ele>
        <time>2015-08-09T12:00:33Z</time>
      </trkpt>
      <trkpt lat="46.43992873840034" lon="8.368577118963003">
        <ele>2279.9000000000001</ele>
        <time>2015-08-09T12:00:34Z</time>
      </trkpt>
      <trkpt lat="46.439940975978971" lon="8.368585165590048">
        <ele>2279.9000000000001</ele>
        <time>2015-08-09T12:00:35Z</time>
      </trkpt>
      <trkpt lat="46.439958494156599" lon="8.368567144498229">
        <ele>2277.98</ele>
        <time>2015-08-09T12:00:45Z</time>
      </trkpt>
      <trkpt lat="46.439941562712193" lon="8.368549291044474">
        <ele>2277.98</ele>
        <time>2015-08-09T12:00:57Z</time>
      </trkpt>
      <trkpt lat="46.439960589632392" lon="8.368539148941636">
        <ele>2277.5</ele>
        <time>2015-08-09T12:01:25Z</time>
      </trkpt>
      <trkpt lat="46.439965283498168" lon="8.36853202432394">
        <ele>2277.5</ele>
        <time>2015-08-09T12:01:42Z</time>
      </trkpt>
      <trkpt lat="46.439957153052092" lon="8.36855742149055">
        <ele>2277.5</ele>
        <time>2015-08-09T12:01:53Z</time>
      </trkpt>
      <trkpt lat="46.439953213557601" lon="8.368564127013087">
        <ele>2277.5</ele>
        <time>2015-08-09T12:02:10Z</time>
      </trkpt>
      <trkpt lat="46.439943322911859" lon="8.368561277166009">
        <ele>2277.02</ele>
        <time>2015-08-09T12:02:29Z</time>
      </trkpt>
      <trkpt lat="46.439968552440405" lon="8.36855792440474">
        <ele>2277.02</ele>
        <time>2015-08-09T12:02:44Z</time>
      </trkpt>
      <trkpt lat="46.43998833373189" lon="8.368561109527946">
        <ele>2277.02</ele>
        <time>2015-08-09T12:02:58Z</time>
      </trkpt>
      <trkpt lat="46.440005851909518" lon="8.36856915615499">
        <ele>2277.02</ele>
        <time>2015-08-09T12:03:08Z</time>
      </trkpt>
      <trkpt lat="46.440007528290153" lon="8.368571503087878">
        <ele>2276.0599999999999</ele>
        <time>2015-08-09T12:03:19Z</time>
      </trkpt>
      <trkpt lat="46.439975928515196" lon="8.368567647412419">
        <ele>2276.54</ele>
        <time>2015-08-09T12:03:29Z</time>
      </trkpt>
      <trkpt lat="46.439975844696164" lon="8.368578208610416">
        <ele>2276.54</ele>
        <time>2015-08-09T12:03:47Z</time>
      </trkpt>
      <trkpt lat="46.439990261569619" lon="8.368566054850817">
        <ele>2276.0599999999999</ele>
        <time>2015-08-09T12:03:57Z</time>
      </trkpt>
      <trkpt lat="46.440004175528884" lon="8.368573263287544">
        <ele>2275.5799999999999</ele>
        <time>2015-08-09T12:04:06Z</time>
      </trkpt>
      <trkpt lat="46.439990261569619" lon="8.368584075942636">
        <ele>2275.0999999999999</ele>
        <time>2015-08-09T12:04:15Z</time>
      </trkpt>
      <trkpt lat="46.439981209114194" lon="8.368662195280194">
        <ele>2274.6199999999999</ele>
        <time>2015-08-09T12:04:24Z</time>
      </trkpt>
      <trkpt lat="46.439979784190655" lon="8.368684742599726">
        <ele>2273.6599999999999</ele>
        <time>2015-08-09T12:04:26Z</time>
      </trkpt>
      <trkpt lat="46.439998559653759" lon="8.368717264384031">
        <ele>2272.21</ele>
        <time>2015-08-09T12:04:32Z</time>
      </trkpt>
      <trkpt lat="46.440011048689485" lon="8.36871424689889">
        <ele>2271.73</ele>
        <time>2015-08-09T12:04:33Z</time>
      </trkpt>
      <trkpt lat="46.440082043409348" lon="8.368710977956653">
        <ele>2269.8099999999999</ele>
        <time>2015-08-09T12:04:39Z</time>
      </trkpt>
      <trkpt lat="46.440092101693153" lon="8.368722377344966">
        <ele>2269.3299999999999</ele>
        <time>2015-08-09T12:04:40Z</time>
      </trkpt>
      <trkpt lat="46.440111128613353" lon="8.368824468925595">
        <ele>2267.4099999999999</ele>
        <time>2015-08-09T12:04:46Z</time>
      </trkpt>
      <trkpt lat="46.440104506909847" lon="8.368875933811069">
        <ele>2266.4499999999998</ele>
        <time>2015-08-09T12:04:49Z</time>
      </trkpt>
      <trkpt lat="46.440102579072118" lon="8.368889763951302">
        <ele>2265.96</ele>
        <time>2015-08-09T12:04:50Z</time>
      </trkpt>
      <trkpt lat="46.440107524394989" lon="8.368906108662486">
        <ele>2265.48</ele>
        <time>2015-08-09T12:04:51Z</time>
      </trkpt>
      <trkpt lat="46.440111380070448" lon="8.368922118097544">
        <ele>2265.48</ele>
        <time>2015-08-09T12:04:52Z</time>
      </trkpt>
      <trkpt lat="46.440143566578627" lon="8.368950197473168">
        <ele>2262.5999999999999</ele>
        <time>2015-08-09T12:04:59Z</time>
      </trkpt>
      <trkpt lat="46.440157564356923" lon="8.368956735357642">
        <ele>2262.5999999999999</ele>
        <time>2015-08-09T12:05:00Z</time>
      </trkpt>
      <trkpt lat="46.440134849399328" lon="8.369057318195701">
        <ele>2261.1599999999999</ele>
        <time>2015-08-09T12:05:08Z</time>
      </trkpt>
      <trkpt lat="46.4401242043823" lon="8.369083972647786">
        <ele>2259.2399999999998</ele>
        <time>2015-08-09T12:05:10Z</time>
      </trkpt>
      <trkpt lat="46.440119342878461" lon="8.369101071730256">
        <ele>2258.75</ele>
        <time>2015-08-09T12:05:11Z</time>
      </trkpt>
      <trkpt lat="46.440119259059429" lon="8.369115572422743">
        <ele>2258.27</ele>
        <time>2015-08-09T12:05:12Z</time>
      </trkpt>
      <trkpt lat="46.440148847177625" lon="8.369130911305547">
        <ele>2256.8299999999999</ele>
        <time>2015-08-09T12:05:16Z</time>
      </trkpt>
      <trkpt lat="46.440185811370611" lon="8.369171312078834">
        <ele>2254.9099999999999</ele>
        <time>2015-08-09T12:05:21Z</time>
      </trkpt>
      <trkpt lat="46.440208610147238" lon="8.369161756709218">
        <ele>2254.4299999999998</ele>
        <time>2015-08-09T12:05:24Z</time>
      </trkpt>
      <trkpt lat="46.440216321498156" lon="8.369145579636097">
        <ele>2254.4299999999998</ele>
        <time>2015-08-09T12:05:25Z</time>
      </trkpt>
      <trkpt lat="46.44022629596293" lon="8.369132168591023">
        <ele>2253.9499999999998</ele>
        <time>2015-08-09T12:05:26Z</time>
      </trkpt>
      <trkpt lat="46.440236018970609" lon="8.369126552715898">
        <ele>2253.4699999999998</ele>
        <time>2015-08-09T12:05:27Z</time>
      </trkpt>
      <trkpt lat="46.440244484692812" lon="8.369123032316566">
        <ele>2253.4699999999998</ele>
        <time>2015-08-09T12:05:28Z</time>
      </trkpt>
      <trkpt lat="46.440268959850073" lon="8.369104089215398">
        <ele>2252.5100000000002</ele>
        <time>2015-08-09T12:05:31Z</time>
      </trkpt>
      <trkpt lat="46.440289579331875" lon="8.369140885770321">
        <ele>2251.54</ele>
        <time>2015-08-09T12:05:34Z</time>
      </trkpt>
      <trkpt lat="46.440293854102492" lon="8.369159158319235">
        <ele>2251.0599999999999</ele>
        <time>2015-08-09T12:05:35Z</time>
      </trkpt>
      <trkpt lat="46.440301816910505" lon="8.369178436696529">
        <ele>2250.5799999999999</ele>
        <time>2015-08-09T12:05:36Z</time>
      </trkpt>
      <trkpt lat="46.440310785546899" lon="8.36920877918601">
        <ele>2249.6199999999999</ele>
        <time>2015-08-09T12:05:38Z</time>
      </trkpt>
      <trkpt lat="46.440308019518852" lon="8.36922294460237">
        <ele>2249.6199999999999</ele>
        <time>2015-08-09T12:05:39Z</time>
      </trkpt>
      <trkpt lat="46.440299972891808" lon="8.369242222979665">
        <ele>2249.1399999999999</ele>
        <time>2015-08-09T12:05:40Z</time>
      </trkpt>
      <trkpt lat="46.440292512997985" lon="8.369259489700198">
        <ele>2248.6599999999999</ele>
        <time>2015-08-09T12:05:41Z</time>
      </trkpt>
      <trkpt lat="46.440286478027701" lon="8.369278600439429">
        <ele>2248.6599999999999</ele>
        <time>2015-08-09T12:05:42Z</time>
      </trkpt>
      <trkpt lat="46.440262841060758" lon="8.36934607475996">
        <ele>2246.7399999999998</ele>
        <time>2015-08-09T12:05:47Z</time>
      </trkpt>
      <trkpt lat="46.440228139981627" lon="8.369400640949607">
        <ele>2244.3299999999999</ele>
        <time>2015-08-09T12:05:54Z</time>
      </trkpt>
      <trkpt lat="46.440247753635049" lon="8.369405753910542">
        <ele>2243.3699999999999</ele>
        <time>2015-08-09T12:05:56Z</time>
      </trkpt>
      <trkpt lat="46.44026149995625" lon="8.369402568787336">
        <ele>2243.3699999999999</ele>
        <time>2015-08-09T12:05:57Z</time>
      </trkpt>
      <trkpt lat="46.440275246277452" lon="8.369396701455116">
        <ele>2242.8899999999999</ele>
        <time>2015-08-09T12:05:58Z</time>
      </trkpt>
      <trkpt lat="46.440290082246065" lon="8.36939393542707">
        <ele>2242.4099999999999</ele>
        <time>2015-08-09T12:05:59Z</time>
      </trkpt>
      <trkpt lat="46.440301230177283" lon="8.369402401149273">
        <ele>2241.9299999999998</ele>
        <time>2015-08-09T12:06:00Z</time>
      </trkpt>
      <trkpt lat="46.4403020683676" lon="8.369423942640424">
        <ele>2241.4499999999998</ele>
        <time>2015-08-09T12:06:01Z</time>
      </trkpt>
      <trkpt lat="46.440297123044729" lon="8.369439700618386">
        <ele>2241.4499999999998</ele>
        <time>2015-08-09T12:06:02Z</time>
      </trkpt>
      <trkpt lat="46.440239204093814" lon="8.369568781927228">
        <ele>2238.0900000000001</ele>
        <time>2015-08-09T12:06:11Z</time>
      </trkpt>
      <trkpt lat="46.440234845504165" lon="8.369591580703855">
        <ele>2237.6100000000001</ele>
        <time>2015-08-09T12:06:13Z</time>
      </trkpt>
      <trkpt lat="46.440255213528872" lon="8.369619911536574">
        <ele>2236.6399999999999</ele>
        <time>2015-08-09T12:06:16Z</time>
      </trkpt>
      <trkpt lat="46.440273569896817" lon="8.369623851031065">
        <ele>2235.6799999999998</ele>
        <time>2015-08-09T12:06:18Z</time>
      </trkpt>
      <trkpt lat="46.4403279684484" lon="8.3695806004107">
        <ele>2234.2399999999998</ele>
        <time>2015-08-09T12:06:24Z</time>
      </trkpt>
      <trkpt lat="46.440368704497814" lon="8.369584120810032">
        <ele>2232.8000000000002</ele>
        <time>2015-08-09T12:06:31Z</time>
      </trkpt>
      <trkpt lat="46.440393514931202" lon="8.36953466758132">
        <ele>2231.3600000000001</ele>
        <time>2015-08-09T12:06:36Z</time>
      </trkpt>
      <trkpt lat="46.440406674519181" lon="8.36953123100102">
        <ele>2231.3600000000001</ele>
        <time>2015-08-09T12:06:37Z</time>
      </trkpt>
      <trkpt lat="46.4404212590307" lon="8.369564088061452">
        <ele>2230.4000000000001</ele>
        <time>2015-08-09T12:06:39Z</time>
      </trkpt>
      <trkpt lat="46.440421845763922" lon="8.3695806004107">
        <ele>2230.4000000000001</ele>
        <time>2015-08-09T12:06:40Z</time>
      </trkpt>
      <trkpt lat="46.440418660640717" lon="8.369597950950265">
        <ele>2229.9200000000001</ele>
        <time>2015-08-09T12:06:41Z</time>
      </trkpt>
      <trkpt lat="46.440414469689131" lon="8.369614379480481">
        <ele>2229.4299999999998</ele>
        <time>2015-08-09T12:06:42Z</time>
      </trkpt>
      <trkpt lat="46.440414804965258" lon="8.369630388915539">
        <ele>2228.9499999999998</ele>
        <time>2015-08-09T12:06:43Z</time>
      </trkpt>
      <trkpt lat="46.440414553508162" lon="8.369648242369294">
        <ele>2228.4699999999998</ele>
        <time>2015-08-09T12:06:44Z</time>
      </trkpt>
      <trkpt lat="46.440412038937211" lon="8.369664754718542">
        <ele>2227.9899999999998</ele>
        <time>2015-08-09T12:06:45Z</time>
      </trkpt>
      <trkpt lat="46.440400052815676" lon="8.369782604277134">
        <ele>2224.6300000000001</ele>
        <time>2015-08-09T12:06:54Z</time>
      </trkpt>
      <trkpt lat="46.440424276515841" lon="8.369772881269455">
        <ele>2223.6700000000001</ele>
        <time>2015-08-09T12:06:57Z</time>
      </trkpt>
      <trkpt lat="46.440438525751233" lon="8.369767181575298">
        <ele>2222.71</ele>
        <time>2015-08-09T12:06:58Z</time>
      </trkpt>
      <trkpt lat="46.440451936796308" lon="8.369763577356935">
        <ele>2222.71</ele>
        <time>2015-08-09T12:06:59Z</time>
      </trkpt>
      <trkpt lat="46.440460653975606" lon="8.369753519073129">
        <ele>2222.2199999999998</ele>
        <time>2015-08-09T12:07:00Z</time>
      </trkpt>
      <trkpt lat="46.440470209345222" lon="8.369739772751927">
        <ele>2222.2199999999998</ele>
        <time>2015-08-09T12:07:01Z</time>
      </trkpt>
      <trkpt lat="46.440477669239044" lon="8.369730301201344">
        <ele>2221.7399999999998</ele>
        <time>2015-08-09T12:07:02Z</time>
      </trkpt>
      <trkpt lat="46.440507592633367" lon="8.369679842144251">
        <ele>2220.3000000000002</ele>
        <time>2015-08-09T12:07:07Z</time>
      </trkpt>
      <trkpt lat="46.440519746392965" lon="8.369675818830729">
        <ele>2219.8200000000002</ele>
        <time>2015-08-09T12:07:08Z</time>
      </trkpt>
      <trkpt lat="46.440531061962247" lon="8.369673304259777">
        <ele>2220.7800000000002</ele>
        <time>2015-08-09T12:07:09Z</time>
      </trkpt>
      <trkpt lat="46.440570373088121" lon="8.369642877951264">
        <ele>2217.4200000000001</ele>
        <time>2015-08-09T12:07:14Z</time>
      </trkpt>
      <trkpt lat="46.440643882378936" lon="8.369631394743919">
        <ele>2215.0100000000002</ele>
        <time>2015-08-09T12:07:20Z</time>
      </trkpt>
      <trkpt lat="46.440668692812324" lon="8.369603147730231">
        <ele>2214.5300000000002</ele>
        <time>2015-08-09T12:07:23Z</time>
      </trkpt>
      <trkpt lat="46.440726108849049" lon="8.369646985083818">
        <ele>2212.1300000000001</ele>
        <time>2015-08-09T12:07:30Z</time>
      </trkpt>
      <trkpt lat="46.440799869596958" lon="8.369725188240409">
        <ele>2208.29</ele>
        <time>2015-08-09T12:07:40Z</time>
      </trkpt>
      <trkpt lat="46.440805904567242" lon="8.369727954268456">
        <ele>2207.8099999999999</ele>
        <time>2015-08-09T12:07:41Z</time>
      </trkpt>
      <trkpt lat="46.44084102474153" lon="8.369811438024044">
        <ele>2205.8800000000001</ele>
        <time>2015-08-09T12:07:49Z</time>
      </trkpt>
      <trkpt lat="46.440845550969243" lon="8.369810599833727">
        <ele>2205.4000000000001</ele>
        <time>2015-08-09T12:07:50Z</time>
      </trkpt>
      <trkpt lat="46.440899278968573" lon="8.369763493537903">
        <ele>2203</ele>
        <time>2015-08-09T12:07:57Z</time>
      </trkpt>
      <trkpt lat="46.440967172384262" lon="8.369699120521545">
        <ele>2201.0799999999999</ele>
        <time>2015-08-09T12:08:07Z</time>
      </trkpt>
      <trkpt lat="46.440963316708803" lon="8.36981219239533">
        <ele>2201.0799999999999</ele>
        <time>2015-08-09T12:08:13Z</time>
      </trkpt>
      <trkpt lat="46.440960634499788" lon="8.369910512119532">
        <ele>2198.6700000000001</ele>
        <time>2015-08-09T12:08:19Z</time>
      </trkpt>
      <trkpt lat="46.440964238718152" lon="8.36996415629983">
        <ele>2198.1900000000001</ele>
        <time>2015-08-09T12:08:22Z</time>
      </trkpt>
      <trkpt lat="46.440950660035014" lon="8.370007239282131">
        <ele>2197.71</ele>
        <time>2015-08-09T12:08:25Z</time>
      </trkpt>
      <trkpt lat="46.440976811572909" lon="8.370003970339894">
        <ele>2196.27</ele>
        <time>2015-08-09T12:08:31Z</time>
      </trkpt>
      <trkpt lat="46.441066581755877" lon="8.369865668937564">
        <ele>2193.3899999999999</ele>
        <time>2015-08-09T12:08:42Z</time>
      </trkpt>
      <trkpt lat="46.441103797405958" lon="8.369650086387992">
        <ele>2191.46</ele>
        <time>2015-08-09T12:08:55Z</time>
      </trkpt>
      <trkpt lat="46.441113101318479" lon="8.36964656598866">
        <ele>2191.46</ele>
        <time>2015-08-09T12:08:56Z</time>
      </trkpt>
      <trkpt lat="46.441133385524154" lon="8.369776234030724">
        <ele>2189.0599999999999</ele>
        <time>2015-08-09T12:09:02Z</time>
      </trkpt>
      <trkpt lat="46.441160207614303" lon="8.369841864332557">
        <ele>2188.0999999999999</ele>
        <time>2015-08-09T12:09:06Z</time>
      </trkpt>
      <trkpt lat="46.441203625872731" lon="8.36999592371285">
        <ele>2185.21</ele>
        <time>2015-08-09T12:09:15Z</time>
      </trkpt>
      <trkpt lat="46.441241763532162" lon="8.370129782706499">
        <ele>2181.8499999999999</ele>
        <time>2015-08-09T12:09:23Z</time>
      </trkpt>
      <trkpt lat="46.441243607550859" lon="8.370262049138546">
        <ele>2180.4099999999999</ele>
        <time>2015-08-09T12:09:30Z</time>
      </trkpt>
      <trkpt lat="46.44123044796288" lon="8.370348801836371">
        <ele>2178.9699999999998</ele>
        <time>2015-08-09T12:09:35Z</time>
      </trkpt>
      <trkpt lat="46.441223071888089" lon="8.370380569249392">
        <ele>2178.48</ele>
        <time>2015-08-09T12:09:37Z</time>
      </trkpt>
      <trkpt lat="46.441221898421645" lon="8.37049188092351">
        <ele>2177.04</ele>
        <time>2015-08-09T12:09:44Z</time>
      </trkpt>
      <trkpt lat="46.441208738833666" lon="8.370591374114156">
        <ele>2174.1599999999999</ele>
        <time>2015-08-09T12:09:51Z</time>
      </trkpt>
      <trkpt lat="46.441293563693762" lon="8.370580477640033">
        <ele>2171.7600000000002</ele>
        <time>2015-08-09T12:09:59Z</time>
      </trkpt>
      <trkpt lat="46.441374029964209" lon="8.370489366352558">
        <ele>2169.8299999999999</ele>
        <time>2015-08-09T12:10:08Z</time>
      </trkpt>
      <trkpt lat="46.4414591062814" lon="8.370433542877436">
        <ele>2168.3899999999999</ele>
        <time>2015-08-09T12:10:15Z</time>
      </trkpt>
      <trkpt lat="46.441524652764201" lon="8.370566144585609">
        <ele>2165.9899999999998</ele>
        <time>2015-08-09T12:10:24Z</time>
      </trkpt>
      <trkpt lat="46.441536135971546" lon="8.370683491230011">
        <ele>2164.0599999999999</ele>
        <time>2015-08-09T12:10:30Z</time>
      </trkpt>
      <trkpt lat="46.441571172326803" lon="8.370744427666068">
        <ele>2163.0999999999999</ele>
        <time>2015-08-09T12:10:35Z</time>
      </trkpt>
      <trkpt lat="46.441581230610609" lon="8.370817936956883">
        <ele>2160.2199999999998</ele>
        <time>2015-08-09T12:10:42Z</time>
      </trkpt>
      <trkpt lat="46.441606292501092" lon="8.37081341072917">
        <ele>2159.2600000000002</ele>
        <time>2015-08-09T12:10:44Z</time>
      </trkpt>
      <trkpt lat="46.441688183695078" lon="8.37078751064837">
        <ele>2157.3400000000001</ele>
        <time>2015-08-09T12:10:51Z</time>
      </trkpt>
      <trkpt lat="46.441690949723125" lon="8.370950622484088">
        <ele>2154.4499999999998</ele>
        <time>2015-08-09T12:11:00Z</time>
      </trkpt>
      <trkpt lat="46.441641580313444" lon="8.371007787063718">
        <ele>2152.5300000000002</ele>
        <time>2015-08-09T12:11:04Z</time>
      </trkpt>
      <trkpt lat="46.441625067964196" lon="8.371035531163216">
        <ele>2151.5700000000002</ele>
        <time>2015-08-09T12:11:06Z</time>
      </trkpt>
      <trkpt lat="46.441579386591911" lon="8.371195793151856">
        <ele>2149.1599999999999</ele>
        <time>2015-08-09T12:11:17Z</time>
      </trkpt>
      <trkpt lat="46.441581062972546" lon="8.371241809800267">
        <ele>2148.6799999999998</ele>
        <time>2015-08-09T12:11:20Z</time>
      </trkpt>
      <trkpt lat="46.441472098231316" lon="8.37127567268908">
        <ele>2145.3200000000002</ele>
        <time>2015-08-09T12:11:29Z</time>
      </trkpt>
      <trkpt lat="46.44139314070344" lon="8.371257483959198">
        <ele>2142.9200000000001</ele>
        <time>2015-08-09T12:11:36Z</time>
      </trkpt>
      <trkpt lat="46.441361121833324" lon="8.371277516707778">
        <ele>2141.9499999999998</ele>
        <time>2015-08-09T12:11:39Z</time>
      </trkpt>
      <trkpt lat="46.441314769908786" lon="8.371349852532148">
        <ele>2140.9899999999998</ele>
        <time>2015-08-09T12:11:46Z</time>
      </trkpt>
      <trkpt lat="46.441308818757534" lon="8.371435180306435">
        <ele>2140.0300000000002</ele>
        <time>2015-08-09T12:11:51Z</time>
      </trkpt>
      <trkpt lat="46.44131108187139" lon="8.371495697647333">
        <ele>2138.5900000000001</ele>
        <time>2015-08-09T12:11:56Z</time>
      </trkpt>
      <trkpt lat="46.441330863162875" lon="8.37153609842062">
        <ele>2137.1500000000001</ele>
        <time>2015-08-09T12:11:59Z</time>
      </trkpt>
      <trkpt lat="46.4413623791188" lon="8.371603740379214">
        <ele>2135.71</ele>
        <time>2015-08-09T12:12:04Z</time>
      </trkpt>
      <trkpt lat="46.441367911174893" lon="8.37163282558322">
        <ele>2135.23</ele>
        <time>2015-08-09T12:12:06Z</time>
      </trkpt>
      <trkpt lat="46.441370844841003" lon="8.371726116165519">
        <ele>2133.7800000000002</ele>
        <time>2015-08-09T12:12:12Z</time>
      </trkpt>
      <trkpt lat="46.441369000822306" lon="8.371870284900069">
        <ele>2130.9000000000001</ele>
        <time>2015-08-09T12:12:23Z</time>
      </trkpt>
      <trkpt lat="46.441369168460369" lon="8.371871374547482">
        <ele>2130.9000000000001</ele>
        <time>2015-08-09T12:12:29Z</time>
      </trkpt>
      <trkpt lat="46.441402528434992" lon="8.371859053149819">
        <ele>2130.9000000000001</ele>
        <time>2015-08-09T12:12:35Z</time>
      </trkpt>
      <trkpt lat="46.441412502899766" lon="8.371836841106415">
        <ele>2131.3800000000001</ele>
        <time>2015-08-09T12:12:39Z</time>
      </trkpt>
      <trkpt lat="46.441396828740835" lon="8.371899286285043">
        <ele>2130.9000000000001</ele>
        <time>2015-08-09T12:12:51Z</time>
      </trkpt>
      <trkpt lat="46.441415101289749" lon="8.371905572712421">
        <ele>2130.9000000000001</ele>
        <time>2015-08-09T12:12:59Z</time>
      </trkpt>
      <trkpt lat="46.441428260877728" lon="8.371886629611254">
        <ele>2130.9000000000001</ele>
        <time>2015-08-09T12:13:01Z</time>
      </trkpt>
      <trkpt lat="46.441497746855021" lon="8.371825190261006">
        <ele>2130.9000000000001</ele>
        <time>2015-08-09T12:13:08Z</time>
      </trkpt>
      <trkpt lat="46.44151970744133" lon="8.371827537193894">
        <ele>2132.3400000000001</ele>
        <time>2015-08-09T12:13:13Z</time>
      </trkpt>
      <trkpt lat="46.441569663584232" lon="8.371785711497068">
        <ele>2130.9000000000001</ele>
        <time>2015-08-09T12:13:19Z</time>
      </trkpt>
      <trkpt lat="46.441596234217286" lon="8.371841534972191">
        <ele>2130.9000000000001</ele>
        <time>2015-08-09T12:13:23Z</time>
      </trkpt>
      <trkpt lat="46.441607885062695" lon="8.371913870796561">
        <ele>2129.9400000000001</ele>
        <time>2015-08-09T12:13:27Z</time>
      </trkpt>
      <trkpt lat="46.44162867218256" lon="8.37202082388103">
        <ele>2129.46</ele>
        <time>2015-08-09T12:13:33Z</time>
      </trkpt>
      <trkpt lat="46.441656248643994" lon="8.372096763923764">
        <ele>2128.98</ele>
        <time>2015-08-09T12:13:38Z</time>
      </trkpt>
      <trkpt lat="46.441673347726464" lon="8.372230371460319">
        <ele>2128.5</ele>
        <time>2015-08-09T12:13:48Z</time>
      </trkpt>
      <trkpt lat="46.441657254472375" lon="8.372216206043959">
        <ele>2127.5300000000002</ele>
        <time>2015-08-09T12:13:58Z</time>
      </trkpt>
      <trkpt lat="46.441661613062024" lon="8.372305557131767">
        <ele>2128.02</ele>
        <time>2015-08-09T12:14:06Z</time>
      </trkpt>
      <trkpt lat="46.441668150946498" lon="8.372322572395206">
        <ele>2128.02</ele>
        <time>2015-08-09T12:14:07Z</time>
      </trkpt>
      <trkpt lat="46.44169807434082" lon="8.372452575713396">
        <ele>2127.0500000000002</ele>
        <time>2015-08-09T12:14:15Z</time>
      </trkpt>
      <trkpt lat="46.441706707701087" lon="8.372521977871656">
        <ele>2127.0500000000002</ele>
        <time>2015-08-09T12:14:19Z</time>
      </trkpt>
      <trkpt lat="46.441713999956846" lon="8.372610742226243">
        <ele>2127.0500000000002</ele>
        <time>2015-08-09T12:14:24Z</time>
      </trkpt>
      <trkpt lat="46.441699415445328" lon="8.372750049456954">
        <ele>2126.5700000000002</ele>
        <time>2015-08-09T12:14:33Z</time>
      </trkpt>
      <trkpt lat="46.441699834540486" lon="8.372819619253278">
        <ele>2126.5700000000002</ele>
        <time>2015-08-09T12:14:37Z</time>
      </trkpt>
      <trkpt lat="46.441706288605928" lon="8.372877705842257">
        <ele>2126.0900000000001</ele>
        <time>2015-08-09T12:14:40Z</time>
      </trkpt>
      <trkpt lat="46.441672928631306" lon="8.373078117147088">
        <ele>2125.6100000000001</ele>
        <time>2015-08-09T12:14:52Z</time>
      </trkpt>
      <trkpt lat="46.441668905317783" lon="8.373116170987487">
        <ele>2125.1300000000001</ele>
        <time>2015-08-09T12:14:54Z</time>
      </trkpt>
      <trkpt lat="46.44169706851244" lon="8.373207114636898">
        <ele>2125.1300000000001</ele>
        <time>2015-08-09T12:14:59Z</time>
      </trkpt>
      <trkpt lat="46.441691033542156" lon="8.373314402997494">
        <ele>2124.6500000000001</ele>
        <time>2015-08-09T12:15:06Z</time>
      </trkpt>
      <trkpt lat="46.441672844812274" lon="8.373432084918022">
        <ele>2125.6100000000001</ele>
        <time>2015-08-09T12:15:13Z</time>
      </trkpt>
      <trkpt lat="46.441670749336481" lon="8.373519843444228">
        <ele>2124.1700000000001</ele>
        <time>2015-08-09T12:15:18Z</time>
      </trkpt>
      <trkpt lat="46.441684160381556" lon="8.373698713257909">
        <ele>2123.6900000000001</ele>
        <time>2015-08-09T12:15:29Z</time>
      </trkpt>
      <trkpt lat="46.441689021885395" lon="8.373733079060912">
        <ele>2123.21</ele>
        <time>2015-08-09T12:15:31Z</time>
      </trkpt>
      <trkpt lat="46.441663792356849" lon="8.373766941949725">
        <ele>2123.6900000000001</ele>
        <time>2015-08-09T12:15:34Z</time>
      </trkpt>
      <trkpt lat="46.441580224782228" lon="8.373951260000467">
        <ele>2122.73</ele>
        <time>2015-08-09T12:15:46Z</time>
      </trkpt>
      <trkpt lat="46.441540662199259" lon="8.374061733484268">
        <ele>2122.73</ele>
        <time>2015-08-09T12:15:53Z</time>
      </trkpt>
      <trkpt lat="46.441444354131818" lon="8.374266251921654">
        <ele>2122.25</ele>
        <time>2015-08-09T12:16:06Z</time>
      </trkpt>
      <trkpt lat="46.441363133490086" lon="8.374433722347021">
        <ele>2121.77</ele>
        <time>2015-08-09T12:16:17Z</time>
      </trkpt>
      <trkpt lat="46.441267160698771" lon="8.374579902738333">
        <ele>2121.29</ele>
        <time>2015-08-09T12:16:28Z</time>
      </trkpt>
      <trkpt lat="46.441191723570228" lon="8.374707894399762">
        <ele>2119.8400000000001</ele>
        <time>2015-08-09T12:16:37Z</time>
      </trkpt>
      <trkpt lat="46.44117085263133" lon="8.374730860814452">
        <ele>2119.8400000000001</ele>
        <time>2015-08-09T12:16:39Z</time>
      </trkpt>
      <trkpt lat="46.441038250923157" lon="8.374860109761357">
        <ele>2119.3600000000001</ele>
        <time>2015-08-09T12:16:52Z</time>
      </trkpt>
      <trkpt lat="46.441002711653709" lon="8.374934876337647">
        <ele>2118.8800000000001</ele>
        <time>2015-08-09T12:16:59Z</time>
      </trkpt>
      <trkpt lat="46.440975470468402" lon="8.375028921291232">
        <ele>2118.8800000000001</ele>
        <time>2015-08-09T12:17:05Z</time>
      </trkpt>
      <trkpt lat="46.440898021683097" lon="8.375166552141309">
        <ele>2117.4400000000001</ele>
        <time>2015-08-09T12:17:15Z</time>
      </trkpt>
      <trkpt lat="46.440894668921828" lon="8.375189434736967">
        <ele>2117.4400000000001</ele>
        <time>2015-08-09T12:17:16Z</time>
      </trkpt>
      <trkpt lat="46.440853010863066" lon="8.37528046220541">
        <ele>2117.4400000000001</ele>
        <time>2015-08-09T12:17:22Z</time>
      </trkpt>
      <trkpt lat="46.440801043063402" lon="8.375415746122599">
        <ele>2116.96</ele>
        <time>2015-08-09T12:17:32Z</time>
      </trkpt>
      <trkpt lat="46.440740944817662" lon="8.37558925151825">
        <ele>2116.48</ele>
        <time>2015-08-09T12:17:43Z</time>
      </trkpt>
      <trkpt lat="46.440707920119166" lon="8.375689666718245">
        <ele>2116</ele>
        <time>2015-08-09T12:17:50Z</time>
      </trkpt>
      <trkpt lat="46.440655700862408" lon="8.375838864594698">
        <ele>2115.52</ele>
        <time>2015-08-09T12:18:02Z</time>
      </trkpt>
      <trkpt lat="46.440634746104479" lon="8.375879433006048">
        <ele>2115.52</ele>
        <time>2015-08-09T12:18:13Z</time>
      </trkpt>
      <trkpt lat="46.440568026155233" lon="8.376148575916886">
        <ele>2115.04</ele>
        <time>2015-08-09T12:18:28Z</time>
      </trkpt>
      <trkpt lat="46.440501976758242" lon="8.376354351639748">
        <ele>2114.0799999999999</ele>
        <time>2015-08-09T12:18:40Z</time>
      </trkpt>
      <trkpt lat="46.440436597913504" lon="8.376555098220706">
        <ele>2113.5999999999999</ele>
        <time>2015-08-09T12:18:52Z</time>
      </trkpt>
      <trkpt lat="46.440374488011003" lon="8.376730112358928">
        <ele>2113.5999999999999</ele>
        <time>2015-08-09T12:19:03Z</time>
      </trkpt>
      <trkpt lat="46.440311204642057" lon="8.376951897516847">
        <ele>2113.1199999999999</ele>
        <time>2015-08-09T12:19:16Z</time>
      </trkpt>
      <trkpt lat="46.440254123881459" lon="8.377179130911827">
        <ele>2113.1199999999999</ele>
        <time>2015-08-09T12:19:29Z</time>
      </trkpt>
      <trkpt lat="46.44023216329515" lon="8.377292035147548">
        <ele>2113.1199999999999</ele>
        <time>2015-08-09T12:19:36Z</time>
      </trkpt>
      <trkpt lat="46.440226547420025" lon="8.377334112301469">
        <ele>2113.1199999999999</ele>
        <time>2015-08-09T12:19:39Z</time>
      </trkpt>
      <trkpt lat="46.440211376175284" lon="8.377444250509143">
        <ele>2113.5999999999999</ele>
        <time>2015-08-09T12:19:46Z</time>
      </trkpt>
      <trkpt lat="46.440170221030712" lon="8.377666035667062">
        <ele>2113.5999999999999</ele>
        <time>2015-08-09T12:19:59Z</time>
      </trkpt>
      <trkpt lat="46.440133759751916" lon="8.377883629873395">
        <ele>2114.0799999999999</ele>
        <time>2015-08-09T12:20:12Z</time>
      </trkpt>
      <trkpt lat="46.440087156370282" lon="8.378071719780564">
        <ele>2115.52</ele>
        <time>2015-08-09T12:20:24Z</time>
      </trkpt>
      <trkpt lat="46.440037535503507" lon="8.378265257924795">
        <ele>2115.52</ele>
        <time>2015-08-09T12:20:36Z</time>
      </trkpt>
      <trkpt lat="46.440000403672457" lon="8.378442283719778">
        <ele>2116.48</ele>
        <time>2015-08-09T12:20:47Z</time>
      </trkpt>
      <trkpt lat="46.439922451972961" lon="8.378631211817265">
        <ele>2117.4400000000001</ele>
        <time>2015-08-09T12:21:01Z</time>
      </trkpt>
      <trkpt lat="46.439836118370295" lon="8.378810249269009">
        <ele>2117.9200000000001</ele>
        <time>2015-08-09T12:21:14Z</time>
      </trkpt>
      <trkpt lat="46.439771074801683" lon="8.378898343071342">
        <ele>2118.4000000000001</ele>
        <time>2015-08-09T12:21:27Z</time>
      </trkpt>
      <trkpt lat="46.439764620736241" lon="8.378887614235282">
        <ele>2117.9200000000001</ele>
        <time>2015-08-09T12:21:54Z</time>
      </trkpt>
      <trkpt lat="46.439762022346258" lon="8.378857774659991">
        <ele>2117.9200000000001</ele>
        <time>2015-08-09T12:22:06Z</time>
      </trkpt>
      <trkpt lat="46.43975623883307" lon="8.378881914541125">
        <ele>2117.9200000000001</ele>
        <time>2015-08-09T12:22:22Z</time>
      </trkpt>
      <trkpt lat="46.439753472805023" lon="8.378916950896382">
        <ele>2118.4000000000001</ele>
        <time>2015-08-09T12:22:27Z</time>
      </trkpt>
      <trkpt lat="46.439703181385994" lon="8.379096407443285">
        <ele>2119.8400000000001</ele>
        <time>2015-08-09T12:22:39Z</time>
      </trkpt>
      <trkpt lat="46.439648028463125" lon="8.379266979172826">
        <ele>2120.8099999999999</ele>
        <time>2015-08-09T12:22:51Z</time>
      </trkpt>
      <trkpt lat="46.439595222473145" lon="8.379457416012883">
        <ele>2121.29</ele>
        <time>2015-08-09T12:23:03Z</time>
      </trkpt>
      <trkpt lat="46.439551301300526" lon="8.379662185907364">
        <ele>2121.29</ele>
        <time>2015-08-09T12:23:15Z</time>
      </trkpt>
      <trkpt lat="46.439478797838092" lon="8.379868632182479">
        <ele>2121.77</ele>
        <time>2015-08-09T12:23:28Z</time>
      </trkpt>
      <trkpt lat="46.43931551836431" lon="8.38004213757813">
        <ele>2119.8400000000001</ele>
        <time>2015-08-09T12:23:43Z</time>
      </trkpt>
      <trkpt lat="46.439170679077506" lon="8.380201226100326">
        <ele>2117.9200000000001</ele>
        <time>2015-08-09T12:23:57Z</time>
      </trkpt>
      <trkpt lat="46.439065905287862" lon="8.380371043458581">
        <ele>2115.04</ele>
        <time>2015-08-09T12:24:10Z</time>
      </trkpt>
      <trkpt lat="46.438977224752307" lon="8.380589475855231">
        <ele>2112.1500000000001</ele>
        <time>2015-08-09T12:24:24Z</time>
      </trkpt>
      <trkpt lat="46.438910169526935" lon="8.380812099203467">
        <ele>2108.79</ele>
        <time>2015-08-09T12:24:37Z</time>
      </trkpt>
      <trkpt lat="46.438852502033114" lon="8.38098275475204">
        <ele>2105.4200000000001</ele>
        <time>2015-08-09T12:24:48Z</time>
      </trkpt>
      <trkpt lat="46.438798857852817" lon="8.381174197420478">
        <ele>2102.54</ele>
        <time>2015-08-09T12:24:59Z</time>
      </trkpt>
      <trkpt lat="46.43875845707953" lon="8.381313672289252">
        <ele>2100.1399999999999</ele>
        <time>2015-08-09T12:25:08Z</time>
      </trkpt>
      <trkpt lat="46.438746470957994" lon="8.381343930959702">
        <ele>2099.6599999999999</ele>
        <time>2015-08-09T12:25:10Z</time>
      </trkpt>
      <trkpt lat="46.438701627776027" lon="8.381562698632479">
        <ele>2097.25</ele>
        <time>2015-08-09T12:25:22Z</time>
      </trkpt>
      <trkpt lat="46.438645636662841" lon="8.38177727535367">
        <ele>2094.8499999999999</ele>
        <time>2015-08-09T12:25:34Z</time>
      </trkpt>
      <trkpt lat="46.438574306666851" lon="8.381996965035796">
        <ele>2092.9299999999998</ele>
        <time>2015-08-09T12:25:47Z</time>
      </trkpt>
      <trkpt lat="46.438523093238473" lon="8.38218379765749">
        <ele>2091.4899999999998</ele>
        <time>2015-08-09T12:25:58Z</time>
      </trkpt>
      <trkpt lat="46.438467185944319" lon="8.382398206740618">
        <ele>2089.5599999999999</ele>
        <time>2015-08-09T12:26:10Z</time>
      </trkpt>
      <trkpt lat="46.438397280871868" lon="8.382644718512893">
        <ele>2087.1599999999999</ele>
        <time>2015-08-09T12:26:24Z</time>
      </trkpt>
      <trkpt lat="46.438373392447829" lon="8.382844878360629">
        <ele>2085.2399999999998</ele>
        <time>2015-08-09T12:26:35Z</time>
      </trkpt>
      <trkpt lat="46.438337601721287" lon="8.383114691823721">
        <ele>2082.3499999999999</ele>
        <time>2015-08-09T12:26:49Z</time>
      </trkpt>
      <trkpt lat="46.438303655013442" lon="8.383358269929886">
        <ele>2078.9899999999998</ele>
        <time>2015-08-09T12:27:02Z</time>
      </trkpt>
      <trkpt lat="46.438292004168034" lon="8.383638896048069">
        <ele>2076.0999999999999</ele>
        <time>2015-08-09T12:27:16Z</time>
      </trkpt>
      <trkpt lat="46.438243975862861" lon="8.383868811652064">
        <ele>2073.6999999999998</ele>
        <time>2015-08-09T12:27:29Z</time>
      </trkpt>
      <trkpt lat="46.438188571482897" lon="8.384082047268748">
        <ele>2071.7800000000002</ele>
        <time>2015-08-09T12:27:42Z</time>
      </trkpt>
      <trkpt lat="46.43818479962647" lon="8.384098811075091">
        <ele>2071.3000000000002</ele>
        <time>2015-08-09T12:27:43Z</time>
      </trkpt>
      <trkpt lat="46.438171723857522" lon="8.384289918467403">
        <ele>2070.8200000000002</ele>
        <time>2015-08-09T12:27:54Z</time>
      </trkpt>
      <trkpt lat="46.438165688887239" lon="8.384319422766566">
        <ele>2070.3400000000001</ele>
        <time>2015-08-09T12:27:55Z</time>
      </trkpt>
      <trkpt lat="46.438114224001765" lon="8.38456048630178">
        <ele>2069.3800000000001</ele>
        <time>2015-08-09T12:28:08Z</time>
      </trkpt>
      <trkpt lat="46.438029147684574" lon="8.384739020839334">
        <ele>2067.4499999999998</ele>
        <time>2015-08-09T12:28:19Z</time>
      </trkpt>
      <trkpt lat="46.437971228733659" lon="8.384886207059026">
        <ele>2064.0900000000001</ele>
        <time>2015-08-09T12:28:28Z</time>
      </trkpt>
      <trkpt lat="46.437943819910288" lon="8.38493088260293">
        <ele>2063.6100000000001</ele>
        <time>2015-08-09T12:28:33Z</time>
      </trkpt>
      <trkpt lat="46.437893025577068" lon="8.385169096291065">
        <ele>2060.7199999999998</ele>
        <time>2015-08-09T12:28:46Z</time>
      </trkpt>
      <trkpt lat="46.43790090456605" lon="8.385314019396901">
        <ele>2059.7600000000002</ele>
        <time>2015-08-09T12:28:54Z</time>
      </trkpt>
      <trkpt lat="46.437866203486919" lon="8.385433461517096">
        <ele>2060.2399999999998</ele>
        <time>2015-08-09T12:29:02Z</time>
      </trkpt>
      <trkpt lat="46.437847930938005" lon="8.385488782078028">
        <ele>2060.2399999999998</ele>
        <time>2015-08-09T12:29:05Z</time>
      </trkpt>
      <trkpt lat="46.437789341434836" lon="8.385739149525762">
        <ele>2058.8000000000002</ele>
        <time>2015-08-09T12:29:18Z</time>
      </trkpt>
      <trkpt lat="46.43770694732666" lon="8.385932603850961">
        <ele>2056.8800000000001</ele>
        <time>2015-08-09T12:29:29Z</time>
      </trkpt>
      <trkpt lat="46.437637712806463" lon="8.386092111468315">
        <ele>2054.96</ele>
        <time>2015-08-09T12:29:39Z</time>
      </trkpt>
      <trkpt lat="46.437607621774077" lon="8.386166207492352">
        <ele>2053.9899999999998</ele>
        <time>2015-08-09T12:29:44Z</time>
      </trkpt>
      <trkpt lat="46.437592534348369" lon="8.38627316057682">
        <ele>2052.0700000000002</ele>
        <time>2015-08-09T12:29:50Z</time>
      </trkpt>
      <trkpt lat="46.437545092776418" lon="8.386539286002517">
        <ele>2048.71</ele>
        <time>2015-08-09T12:30:04Z</time>
      </trkpt>
      <trkpt lat="46.437486167997122" lon="8.386754868552089">
        <ele>2046.3</ele>
        <time>2015-08-09T12:30:16Z</time>
      </trkpt>
      <trkpt lat="46.437414670363069" lon="8.38685754686594">
        <ele>2044.3800000000001</ele>
        <time>2015-08-09T12:30:24Z</time>
      </trkpt>
      <trkpt lat="46.437251809984446" lon="8.386954441666603">
        <ele>2041.02</ele>
        <time>2015-08-09T12:30:36Z</time>
      </trkpt>
      <trkpt lat="46.437204200774431" lon="8.387019569054246">
        <ele>2040.54</ele>
        <time>2015-08-09T12:30:41Z</time>
      </trkpt>
      <trkpt lat="46.437104791402817" lon="8.387195253744721">
        <ele>2037.6500000000001</ele>
        <time>2015-08-09T12:30:53Z</time>
      </trkpt>
      <trkpt lat="46.437083082273602" lon="8.387243198230863">
        <ele>2037.1700000000001</ele>
        <time>2015-08-09T12:30:56Z</time>
      </trkpt>
      <trkpt lat="46.437068078666925" lon="8.387316623702645">
        <ele>2036.21</ele>
        <time>2015-08-09T12:31:00Z</time>
      </trkpt>
      <trkpt lat="46.437026588246226" lon="8.387339673936367">
        <ele>2035.73</ele>
        <time>2015-08-09T12:31:03Z</time>
      </trkpt>
      <trkpt lat="46.436931034550071" lon="8.387483507394791">
        <ele>2034.29</ele>
        <time>2015-08-09T12:31:12Z</time>
      </trkpt>
      <trkpt lat="46.436814023181796" lon="8.387596914544702">
        <ele>2032.8399999999999</ele>
        <time>2015-08-09T12:31:23Z</time>
      </trkpt>
      <trkpt lat="46.436714613810182" lon="8.387782741338015">
        <ele>2031.8800000000001</ele>
        <time>2015-08-09T12:31:35Z</time>
      </trkpt>
      <trkpt lat="46.436621239408851" lon="8.387924311682582">
        <ele>2030.9200000000001</ele>
        <time>2015-08-09T12:31:45Z</time>
      </trkpt>
      <trkpt lat="46.43656357191503" lon="8.387998156249523">
        <ele>2029.96</ele>
        <time>2015-08-09T12:31:51Z</time>
      </trkpt>
      <trkpt lat="46.43650196492672" lon="8.388099074363709">
        <ele>2029</ele>
        <time>2015-08-09T12:31:58Z</time>
      </trkpt>
      <trkpt lat="46.436363579705358" lon="8.388273837044835">
        <ele>2029</ele>
        <time>2015-08-09T12:32:12Z</time>
      </trkpt>
      <trkpt lat="46.436234163120389" lon="8.388314321637154">
        <ele>2027.5599999999999</ele>
        <time>2015-08-09T12:32:21Z</time>
      </trkpt>
      <trkpt lat="46.436179513111711" lon="8.388376263901591">
        <ele>2027.0799999999999</ele>
        <time>2015-08-09T12:32:26Z</time>
      </trkpt>
      <trkpt lat="46.436067447066307" lon="8.388592349365354">
        <ele>2025.1500000000001</ele>
        <time>2015-08-09T12:32:40Z</time>
      </trkpt>
      <trkpt lat="46.435899473726749" lon="8.38864398188889">
        <ele>2023.23</ele>
        <time>2015-08-09T12:32:52Z</time>
      </trkpt>
      <trkpt lat="46.435766536742449" lon="8.388816146180034">
        <ele>2019.8699999999999</ele>
        <time>2015-08-09T12:33:05Z</time>
      </trkpt>
      <trkpt lat="46.435627732425928" lon="8.388910945504904">
        <ele>2018.4300000000001</ele>
        <time>2015-08-09T12:33:16Z</time>
      </trkpt>
      <trkpt lat="46.435485323891044" lon="8.388991327956319">
        <ele>2016.98</ele>
        <time>2015-08-09T12:33:27Z</time>
      </trkpt>
      <trkpt lat="46.43534735776484" lon="8.389102471992374">
        <ele>2016.02</ele>
        <time>2015-08-09T12:33:38Z</time>
      </trkpt>
      <trkpt lat="46.435204278677702" lon="8.389261476695538">
        <ele>2014.5799999999999</ele>
        <time>2015-08-09T12:33:51Z</time>
      </trkpt>
      <trkpt lat="46.435095397755504" lon="8.389419475570321">
        <ele>2013.6199999999999</ele>
        <time>2015-08-09T12:34:02Z</time>
      </trkpt>
      <trkpt lat="46.434914767742157" lon="8.389475885778666">
        <ele>2011.22</ele>
        <time>2015-08-09T12:34:14Z</time>
      </trkpt>
      <trkpt lat="46.434734892100096" lon="8.38965492323041">
        <ele>2009.77</ele>
        <time>2015-08-09T12:34:29Z</time>
      </trkpt>
      <trkpt lat="46.434603380039334" lon="8.389808060601354">
        <ele>2007.8499999999999</ele>
        <time>2015-08-09T12:34:41Z</time>
      </trkpt>
      <trkpt lat="46.434460300952196" lon="8.389949211850762">
        <ele>2005.45</ele>
        <time>2015-08-09T12:34:53Z</time>
      </trkpt>
      <trkpt lat="46.434318395331502" lon="8.390058763325214">
        <ele>2003.04</ele>
        <time>2015-08-09T12:35:04Z</time>
      </trkpt>
      <trkpt lat="46.434182273223996" lon="8.390172924846411">
        <ele>1999.6800000000001</ele>
        <time>2015-08-09T12:35:15Z</time>
      </trkpt>
      <trkpt lat="46.434140866622329" lon="8.390186168253422">
        <ele>1998.72</ele>
        <time>2015-08-09T12:35:18Z</time>
      </trkpt>
      <trkpt lat="46.434126365929842" lon="8.390074605122209">
        <ele>1997.76</ele>
        <time>2015-08-09T12:35:24Z</time>
      </trkpt>
      <trkpt lat="46.434169951826334" lon="8.390028672292829">
        <ele>1996.8</ele>
        <time>2015-08-09T12:35:27Z</time>
      </trkpt>
      <trkpt lat="46.434295177459717" lon="8.389841336756945">
        <ele>1994.8699999999999</ele>
        <time>2015-08-09T12:35:39Z</time>
      </trkpt>
      <trkpt lat="46.434407662600279" lon="8.389659030362964">
        <ele>1993.4300000000001</ele>
        <time>2015-08-09T12:35:52Z</time>
      </trkpt>
      <trkpt lat="46.434421325102448" lon="8.389605805277824">
        <ele>1993.4300000000001</ele>
        <time>2015-08-09T12:36:03Z</time>
      </trkpt>
      <trkpt lat="46.434515537694097" lon="8.389395084232092">
        <ele>1992.47</ele>
        <time>2015-08-09T12:36:16Z</time>
      </trkpt>
      <trkpt lat="46.434599189087749" lon="8.389218226075172">
        <ele>1992.47</ele>
        <time>2015-08-09T12:36:26Z</time>
      </trkpt>
      <trkpt lat="46.434755092486739" lon="8.389063412323594">
        <ele>1989.5899999999999</ele>
        <time>2015-08-09T12:36:40Z</time>
      </trkpt>
      <trkpt lat="46.434846119955182" lon="8.388921339064837">
        <ele>1987.1800000000001</ele>
        <time>2015-08-09T12:36:50Z</time>
      </trkpt>
      <trkpt lat="46.434900434687734" lon="8.388751856982708">
        <ele>1986.7</ele>
        <time>2015-08-09T12:37:00Z</time>
      </trkpt>
      <trkpt lat="46.434998838230968" lon="8.388584721833468">
        <ele>1983.8199999999999</ele>
        <time>2015-08-09T12:37:11Z</time>
      </trkpt>
      <trkpt lat="46.435080980882049" lon="8.38842848315835">
        <ele>1980.45</ele>
        <time>2015-08-09T12:37:21Z</time>
      </trkpt>
      <trkpt lat="46.435097577050328" lon="8.388400990515947">
        <ele>1980.45</ele>
        <time>2015-08-09T12:37:23Z</time>
      </trkpt>
      <trkpt lat="46.435172846540809" lon="8.3882169239223">
        <ele>1977.5699999999999</ele>
        <time>2015-08-09T12:37:34Z</time>
      </trkpt>
      <trkpt lat="46.435261610895395" lon="8.388034617528319">
        <ele>1974.6900000000001</ele>
        <time>2015-08-09T12:37:45Z</time>
      </trkpt>
      <trkpt lat="46.435358673334122" lon="8.387826746329665">
        <ele>1971.8</ele>
        <time>2015-08-09T12:37:57Z</time>
      </trkpt>
      <trkpt lat="46.435448778793216" lon="8.38764226064086">
        <ele>1968.4400000000001</ele>
        <time>2015-08-09T12:38:08Z</time>
      </trkpt>
      <trkpt lat="46.435530250892043" lon="8.38748836889863">
        <ele>1967.48</ele>
        <time>2015-08-09T12:38:18Z</time>
      </trkpt>
      <trkpt lat="46.435631839558482" lon="8.387288879603148">
        <ele>1964.5899999999999</ele>
        <time>2015-08-09T12:38:30Z</time>
      </trkpt>
      <trkpt lat="46.435667714104056" lon="8.38722794316709">
        <ele>1963.6300000000001</ele>
        <time>2015-08-09T12:38:34Z</time>
      </trkpt>
      <trkpt lat="46.43567324616015" lon="8.387204641476274">
        <ele>1963.6300000000001</ele>
        <time>2015-08-09T12:38:35Z</time>
      </trkpt>
      <trkpt lat="46.435683723539114" lon="8.387185866013169">
        <ele>1963.1500000000001</ele>
        <time>2015-08-09T12:38:36Z</time>
      </trkpt>
      <trkpt lat="46.435695039108396" lon="8.387170108035207">
        <ele>1963.1500000000001</ele>
        <time>2015-08-09T12:38:37Z</time>
      </trkpt>
      <trkpt lat="46.435701828449965" lon="8.387155858799815">
        <ele>1962.6700000000001</ele>
        <time>2015-08-09T12:38:38Z</time>
      </trkpt>
      <trkpt lat="46.435706857591867" lon="8.387143621221185">
        <ele>1962.1900000000001</ele>
        <time>2015-08-09T12:38:39Z</time>
      </trkpt>
      <trkpt lat="46.435748850926757" lon="8.387045804411173">
        <ele>1960.27</ele>
        <time>2015-08-09T12:38:45Z</time>
      </trkpt>
      <trkpt lat="46.435752455145121" lon="8.387024262920022">
        <ele>1959.78</ele>
        <time>2015-08-09T12:38:46Z</time>
      </trkpt>
      <trkpt lat="46.435758406296372" lon="8.387006241828203">
        <ele>1959.78</ele>
        <time>2015-08-09T12:38:47Z</time>
      </trkpt>
      <trkpt lat="46.435766201466322" lon="8.386986963450909">
        <ele>1959.3</ele>
        <time>2015-08-09T12:38:48Z</time>
      </trkpt>
      <trkpt lat="46.435771649703383" lon="8.386972965672612">
        <ele>1959.3</ele>
        <time>2015-08-09T12:38:49Z</time>
      </trkpt>
      <trkpt lat="46.435777265578508" lon="8.386955866590142">
        <ele>1959.3</ele>
        <time>2015-08-09T12:38:50Z</time>
      </trkpt>
      <trkpt lat="46.435843901708722" lon="8.386782193556428">
        <ele>1955.9400000000001</ele>
        <time>2015-08-09T12:39:00Z</time>
      </trkpt>
      <trkpt lat="46.435881787911057" lon="8.386690746992827">
        <ele>1954.98</ele>
        <time>2015-08-09T12:39:06Z</time>
      </trkpt>
      <trkpt lat="46.435887571424246" lon="8.386654537171125">
        <ele>1954.5</ele>
        <time>2015-08-09T12:39:08Z</time>
      </trkpt>
      <trkpt lat="46.435893438756466" lon="8.386633582413197">
        <ele>1954.5</ele>
        <time>2015-08-09T12:39:09Z</time>
      </trkpt>
      <trkpt lat="46.435896707698703" lon="8.38660835288465">
        <ele>1954.02</ele>
        <time>2015-08-09T12:39:10Z</time>
      </trkpt>
      <trkpt lat="46.435899138450623" lon="8.386588906869292">
        <ele>1954.02</ele>
        <time>2015-08-09T12:39:11Z</time>
      </trkpt>
      <trkpt lat="46.435902323573828" lon="8.386569544672966">
        <ele>1954.02</ele>
        <time>2015-08-09T12:39:12Z</time>
      </trkpt>
      <trkpt lat="46.43590634688735" lon="8.386549176648259">
        <ele>1953.54</ele>
        <time>2015-08-09T12:39:13Z</time>
      </trkpt>
      <trkpt lat="46.435910621657968" lon="8.386529730632901">
        <ele>1953.0599999999999</ele>
        <time>2015-08-09T12:39:14Z</time>
      </trkpt>
      <trkpt lat="46.435912884771824" lon="8.386512128636241">
        <ele>1952.5699999999999</ele>
        <time>2015-08-09T12:39:15Z</time>
      </trkpt>
      <trkpt lat="46.435915231704712" lon="8.386492850258946">
        <ele>1952.5699999999999</ele>
        <time>2015-08-09T12:39:16Z</time>
      </trkpt>
      <trkpt lat="46.435919255018234" lon="8.386474493891001">
        <ele>1952.5699999999999</ele>
        <time>2015-08-09T12:39:17Z</time>
      </trkpt>
      <trkpt lat="46.435927134007215" lon="8.38645244948566">
        <ele>1952.0899999999999</ele>
        <time>2015-08-09T12:39:18Z</time>
      </trkpt>
      <trkpt lat="46.435913471505046" lon="8.386394614353776">
        <ele>1951.1300000000001</ele>
        <time>2015-08-09T12:39:22Z</time>
      </trkpt>
      <trkpt lat="46.435888577252626" lon="8.386392435058951">
        <ele>1950.6500000000001</ele>
        <time>2015-08-09T12:39:24Z</time>
      </trkpt>
      <trkpt lat="46.435873573645949" lon="8.386403750628233">
        <ele>1950.1700000000001</ele>
        <time>2015-08-09T12:39:25Z</time>
      </trkpt>
      <trkpt lat="46.435765447095037" lon="8.386525707319379">
        <ele>1947.29</ele>
        <time>2015-08-09T12:39:35Z</time>
      </trkpt>
      <trkpt lat="46.435638461261988" lon="8.386629307642579">
        <ele>1943.9200000000001</ele>
        <time>2015-08-09T12:39:45Z</time>
      </trkpt>
      <trkpt lat="46.435593701899052" lon="8.386670630425215">
        <ele>1942.96</ele>
        <time>2015-08-09T12:39:49Z</time>
      </trkpt>
      <trkpt lat="46.43545975908637" lon="8.386771380901337">
        <ele>1940.0799999999999</ele>
        <time>2015-08-09T12:40:00Z</time>
      </trkpt>
      <trkpt lat="46.435291701927781" lon="8.386888727545738">
        <ele>1937.6700000000001</ele>
        <time>2015-08-09T12:40:13Z</time>
      </trkpt>
      <trkpt lat="46.435133619233966" lon="8.38696357794106">
        <ele>1936.23</ele>
        <time>2015-08-09T12:40:25Z</time>
      </trkpt>
      <trkpt lat="46.435000849887729" lon="8.386987466365099">
        <ele>1936.23</ele>
        <time>2015-08-09T12:40:35Z</time>
      </trkpt>
      <trkpt lat="46.434891298413277" lon="8.38711260817945">
        <ele>1935.75</ele>
        <time>2015-08-09T12:40:46Z</time>
      </trkpt>
      <trkpt lat="46.434801192954183" lon="8.387214113026857">
        <ele>1935.75</ele>
        <time>2015-08-09T12:40:55Z</time>
      </trkpt>
      <trkpt lat="46.434789374470711" lon="8.387222662568092">
        <ele>1935.75</ele>
        <time>2015-08-09T12:40:56Z</time>
      </trkpt>
      <trkpt lat="46.434776717796922" lon="8.38723573833704">
        <ele>1935.75</ele>
        <time>2015-08-09T12:40:57Z</time>
      </trkpt>
      <trkpt lat="46.434765234589577" lon="8.387248478829861">
        <ele>1935.75</ele>
        <time>2015-08-09T12:40:58Z</time>
      </trkpt>
      <trkpt lat="46.434753919020295" lon="8.387260045856237">
        <ele>1935.75</ele>
        <time>2015-08-09T12:40:59Z</time>
      </trkpt>
      <trkpt lat="46.434745285660028" lon="8.387269349768758">
        <ele>1935.75</ele>
        <time>2015-08-09T12:41:00Z</time>
      </trkpt>
      <trkpt lat="46.434734473004937" lon="8.387276222929359">
        <ele>1935.75</ele>
        <time>2015-08-09T12:41:01Z</time>
      </trkpt>
      <trkpt lat="46.434720894321799" lon="8.387281084433198">
        <ele>1935.75</ele>
        <time>2015-08-09T12:41:02Z</time>
      </trkpt>
      <trkpt lat="46.434581922367215" lon="8.387390468269587">
        <ele>1934.3099999999999</ele>
        <time>2015-08-09T12:41:13Z</time>
      </trkpt>
      <trkpt lat="46.434480082243681" lon="8.387529356405139">
        <ele>1931.4300000000001</ele>
        <time>2015-08-09T12:41:24Z</time>
      </trkpt>
      <trkpt lat="46.434352593496442" lon="8.387634214013815">
        <ele>1929.02</ele>
        <time>2015-08-09T12:41:34Z</time>
      </trkpt>
      <trkpt lat="46.434321161359549" lon="8.387661706656218">
        <ele>1929.02</ele>
        <time>2015-08-09T12:41:37Z</time>
      </trkpt>
      <trkpt lat="46.434162827208638" lon="8.387781819328666">
        <ele>1926.6199999999999</ele>
        <time>2015-08-09T12:41:49Z</time>
      </trkpt>
      <trkpt lat="46.434027710929513" lon="8.387889275327325">
        <ele>1925.1800000000001</ele>
        <time>2015-08-09T12:42:00Z</time>
      </trkpt>
      <trkpt lat="46.43388831987977" lon="8.387980470433831">
        <ele>1923.74</ele>
        <time>2015-08-09T12:42:11Z</time>
      </trkpt>
      <trkpt lat="46.433780193328857" lon="8.388082142919302">
        <ele>1922.77</ele>
        <time>2015-08-09T12:42:21Z</time>
      </trkpt>
      <trkpt lat="46.433659326285124" lon="8.388258414343">
        <ele>1919.8900000000001</ele>
        <time>2015-08-09T12:42:33Z</time>
      </trkpt>
      <trkpt lat="46.433577854186296" lon="8.388374084606767">
        <ele>1918.45</ele>
        <time>2015-08-09T12:42:42Z</time>
      </trkpt>
      <trkpt lat="46.433563856408" lon="8.388383891433477">
        <ele>1918.45</ele>
        <time>2015-08-09T12:42:43Z</time>
      </trkpt>
      <trkpt lat="46.433551115915179" lon="8.388393698260188">
        <ele>1918.45</ele>
        <time>2015-08-09T12:42:44Z</time>
      </trkpt>
      <trkpt lat="46.433541141450405" lon="8.388404930010438">
        <ele>1917.97</ele>
        <time>2015-08-09T12:42:45Z</time>
      </trkpt>
      <trkpt lat="46.433531083166599" lon="8.388418843969703">
        <ele>1917.97</ele>
        <time>2015-08-09T12:42:46Z</time>
      </trkpt>
      <trkpt lat="46.433519516140223" lon="8.388431500643492">
        <ele>1917.97</ele>
        <time>2015-08-09T12:42:47Z</time>
      </trkpt>
      <trkpt lat="46.433509457856417" lon="8.388444911688566">
        <ele>1917.49</ele>
        <time>2015-08-09T12:42:48Z</time>
      </trkpt>
      <trkpt lat="46.433502333238721" lon="8.388462429866195">
        <ele>1917.49</ele>
        <time>2015-08-09T12:42:49Z</time>
      </trkpt>
      <trkpt lat="46.433494705706835" lon="8.38847927749157">
        <ele>1917.01</ele>
        <time>2015-08-09T12:42:50Z</time>
      </trkpt>
      <trkpt lat="46.433482468128204" lon="8.388488665223122">
        <ele>1917.01</ele>
        <time>2015-08-09T12:42:51Z</time>
      </trkpt>
      <trkpt lat="46.433469140902162" lon="8.388497214764357">
        <ele>1916.53</ele>
        <time>2015-08-09T12:42:52Z</time>
      </trkpt>
      <trkpt lat="46.433454975485802" lon="8.388505931943655">
        <ele>1916.53</ele>
        <time>2015-08-09T12:42:53Z</time>
      </trkpt>
      <trkpt lat="46.433442737907171" lon="8.388516996055841">
        <ele>1916.04</ele>
        <time>2015-08-09T12:42:54Z</time>
      </trkpt>
      <trkpt lat="46.43330343067646" lon="8.38864590972662">
        <ele>1913.1600000000001</ele>
        <time>2015-08-09T12:43:06Z</time>
      </trkpt>
      <trkpt lat="46.433176444843411" lon="8.388587571680546">
        <ele>1910.28</ele>
        <time>2015-08-09T12:43:16Z</time>
      </trkpt>
      <trkpt lat="46.433175522834063" lon="8.388571394607425">
        <ele>1910.28</ele>
        <time>2015-08-09T12:43:17Z</time>
      </trkpt>
      <trkpt lat="46.43317443318665" lon="8.388552535325289">
        <ele>1910.28</ele>
        <time>2015-08-09T12:43:18Z</time>
      </trkpt>
      <trkpt lat="46.43327166326344" lon="8.388353129848838">
        <ele>1908.3499999999999</ele>
        <time>2015-08-09T12:43:30Z</time>
      </trkpt>
      <trkpt lat="46.433334527537227" lon="8.388173757120967">
        <ele>1907.3900000000001</ele>
        <time>2015-08-09T12:43:40Z</time>
      </trkpt>
      <trkpt lat="46.433341316878796" lon="8.388160429894924">
        <ele>1907.3900000000001</ele>
        <time>2015-08-09T12:43:41Z</time>
      </trkpt>
      <trkpt lat="46.43334542401135" lon="8.38814215734601">
        <ele>1906.9100000000001</ele>
        <time>2015-08-09T12:43:42Z</time>
      </trkpt>
      <trkpt lat="46.433349028229713" lon="8.38812111876905">
        <ele>1906.9100000000001</ele>
        <time>2015-08-09T12:43:43Z</time>
      </trkpt>
      <trkpt lat="46.433356404304504" lon="8.388104271143675">
        <ele>1906.9100000000001</ele>
        <time>2015-08-09T12:43:44Z</time>
      </trkpt>
      <trkpt lat="46.433363612741232" lon="8.388089016079903">
        <ele>1906.9100000000001</ele>
        <time>2015-08-09T12:43:45Z</time>
      </trkpt>
      <trkpt lat="46.433367971330881" lon="8.388067642226815">
        <ele>1906.9100000000001</ele>
        <time>2015-08-09T12:43:46Z</time>
      </trkpt>
      <trkpt lat="46.433375515043736" lon="8.388046184554696">
        <ele>1906.9100000000001</ele>
        <time>2015-08-09T12:43:47Z</time>
      </trkpt>
      <trkpt lat="46.433400493115187" lon="8.387976614758372">
        <ele>1906.4300000000001</ele>
        <time>2015-08-09T12:43:51Z</time>
      </trkpt>
      <trkpt lat="46.433404013514519" lon="8.387955743819475">
        <ele>1906.4300000000001</ele>
        <time>2015-08-09T12:43:52Z</time>
      </trkpt>
      <trkpt lat="46.433405941352248" lon="8.387939818203449">
        <ele>1906.4300000000001</ele>
        <time>2015-08-09T12:43:53Z</time>
      </trkpt>
      <trkpt lat="46.433411305770278" lon="8.387922719120979">
        <ele>1906.4300000000001</ele>
        <time>2015-08-09T12:43:54Z</time>
      </trkpt>
      <trkpt lat="46.433418178930879" lon="8.387902267277241">
        <ele>1905.95</ele>
        <time>2015-08-09T12:43:55Z</time>
      </trkpt>
      <trkpt lat="46.433506440371275" lon="8.387662041932344">
        <ele>1904.03</ele>
        <time>2015-08-09T12:44:08Z</time>
      </trkpt>
      <trkpt lat="46.433518761768937" lon="8.387583671137691">
        <ele>1903.55</ele>
        <time>2015-08-09T12:44:12Z</time>
      </trkpt>
      <trkpt lat="46.433517504483461" lon="8.38756313547492">
        <ele>1903.55</ele>
        <time>2015-08-09T12:44:13Z</time>
      </trkpt>
      <trkpt lat="46.43352136015892" lon="8.387545449659228">
        <ele>1903.0699999999999</ele>
        <time>2015-08-09T12:44:14Z</time>
      </trkpt>
      <trkpt lat="46.433522198349237" lon="8.38752499781549">
        <ele>1902.5899999999999</ele>
        <time>2015-08-09T12:44:15Z</time>
      </trkpt>
      <trkpt lat="46.43351792357862" lon="8.387505300343037">
        <ele>1902.1099999999999</ele>
        <time>2015-08-09T12:44:16Z</time>
      </trkpt>
      <trkpt lat="46.433510882779956" lon="8.38748836889863">
        <ele>1902.1099999999999</ele>
        <time>2015-08-09T12:44:17Z</time>
      </trkpt>
      <trkpt lat="46.433505183085799" lon="8.387475628405809">
        <ele>1901.6300000000001</ele>
        <time>2015-08-09T12:44:18Z</time>
      </trkpt>
      <trkpt lat="46.433496298268437" lon="8.387466073036194">
        <ele>1901.1400000000001</ele>
        <time>2015-08-09T12:44:19Z</time>
      </trkpt>
      <trkpt lat="46.433484731242061" lon="8.387456350028515">
        <ele>1900.6600000000001</ele>
        <time>2015-08-09T12:44:20Z</time>
      </trkpt>
      <trkpt lat="46.433471571654081" lon="8.387449560686946">
        <ele>1900.6600000000001</ele>
        <time>2015-08-09T12:44:21Z</time>
      </trkpt>
      <trkpt lat="46.433427901938558" lon="8.387449141591787">
        <ele>1899.7</ele>
        <time>2015-08-09T12:44:24Z</time>
      </trkpt>
      <trkpt lat="46.433415915817022" lon="8.387457188218832">
        <ele>1899.22</ele>
        <time>2015-08-09T12:44:25Z</time>
      </trkpt>
      <trkpt lat="46.433404348790646" lon="8.387468587607145">
        <ele>1899.22</ele>
        <time>2015-08-09T12:44:26Z</time>
      </trkpt>
      <trkpt lat="46.433394877240062" lon="8.387485267594457">
        <ele>1898.74</ele>
        <time>2015-08-09T12:44:27Z</time>
      </trkpt>
      <trkpt lat="46.433384818956256" lon="8.387502282857895">
        <ele>1898.74</ele>
        <time>2015-08-09T12:44:28Z</time>
      </trkpt>
      <trkpt lat="46.433371659368277" lon="8.387518040835857">
        <ele>1898.26</ele>
        <time>2015-08-09T12:44:29Z</time>
      </trkpt>
      <trkpt lat="46.433360259979963" lon="8.387528853490949">
        <ele>1897.78</ele>
        <time>2015-08-09T12:44:30Z</time>
      </trkpt>
      <trkpt lat="46.433308375999331" lon="8.387567326426506">
        <ele>1896.8199999999999</ele>
        <time>2015-08-09T12:44:34Z</time>
      </trkpt>
      <trkpt lat="46.433294042944908" lon="8.38757487013936">
        <ele>1896.8199999999999</ele>
        <time>2015-08-09T12:44:35Z</time>
      </trkpt>
      <trkpt lat="46.433283146470785" lon="8.387585515156388">
        <ele>1896.3399999999999</ele>
        <time>2015-08-09T12:44:36Z</time>
      </trkpt>
      <trkpt lat="46.433270741254091" lon="8.387595321983099">
        <ele>1896.3399999999999</ele>
        <time>2015-08-09T12:44:37Z</time>
      </trkpt>
      <trkpt lat="46.433262024074793" lon="8.387604122981429">
        <ele>1896.3399999999999</ele>
        <time>2015-08-09T12:44:38Z</time>
      </trkpt>
      <trkpt lat="46.433251546695828" lon="8.387615773826838">
        <ele>1896.3399999999999</ele>
        <time>2015-08-09T12:44:39Z</time>
      </trkpt>
      <trkpt lat="46.433238303288817" lon="8.387629771605134">
        <ele>1896.3399999999999</ele>
        <time>2015-08-09T12:44:40Z</time>
      </trkpt>
      <trkpt lat="46.433227825909853" lon="8.387641087174416">
        <ele>1895.3800000000001</ele>
        <time>2015-08-09T12:44:41Z</time>
      </trkpt>
      <trkpt lat="46.433217935264111" lon="8.387650726363063">
        <ele>1895.3800000000001</ele>
        <time>2015-08-09T12:44:42Z</time>
      </trkpt>
      <trkpt lat="46.433205446228385" lon="8.387659024447203">
        <ele>1895.3800000000001</ele>
        <time>2015-08-09T12:44:43Z</time>
      </trkpt>
      <trkpt lat="46.433192621916533" lon="8.387667993083596">
        <ele>1894.9000000000001</ele>
        <time>2015-08-09T12:44:44Z</time>
      </trkpt>
      <trkpt lat="46.433179713785648" lon="8.387673860415816">
        <ele>1894.9000000000001</ele>
        <time>2015-08-09T12:44:45Z</time>
      </trkpt>
      <trkpt lat="46.433169236406684" lon="8.387680985033512">
        <ele>1894.4200000000001</ele>
        <time>2015-08-09T12:44:46Z</time>
      </trkpt>
      <trkpt lat="46.433162949979305" lon="8.387690875679255">
        <ele>1894.4200000000001</ele>
        <time>2015-08-09T12:44:47Z</time>
      </trkpt>
      <trkpt lat="46.433033449575305" lon="8.387854490429163">
        <ele>1891.53</ele>
        <time>2015-08-09T12:45:00Z</time>
      </trkpt>
      <trkpt lat="46.432938734069467" lon="8.387938309460878">
        <ele>1890.0899999999999</ele>
        <time>2015-08-09T12:45:08Z</time>
      </trkpt>
      <trkpt lat="46.432932112365961" lon="8.387950463220477">
        <ele>1889.6099999999999</ele>
        <time>2015-08-09T12:45:09Z</time>
      </trkpt>
      <trkpt lat="46.432784842327237" lon="8.388099996373057">
        <ele>1886.72</ele>
        <time>2015-08-09T12:45:22Z</time>
      </trkpt>
      <trkpt lat="46.432661293074489" lon="8.388220444321632">
        <ele>1884.8</ele>
        <time>2015-08-09T12:45:34Z</time>
      </trkpt>
      <trkpt lat="46.432487955316901" lon="8.388331672176719">
        <ele>1881.9200000000001</ele>
        <time>2015-08-09T12:45:47Z</time>
      </trkpt>
      <trkpt lat="46.432328531518579" lon="8.388452371582389">
        <ele>1880.48</ele>
        <time>2015-08-09T12:46:00Z</time>
      </trkpt>
      <trkpt lat="46.432182686403394" lon="8.388575417920947">
        <ele>1877.5899999999999</ele>
        <time>2015-08-09T12:46:12Z</time>
      </trkpt>
      <trkpt lat="46.432052431628108" lon="8.388725453987718">
        <ele>1875.6700000000001</ele>
        <time>2015-08-09T12:46:24Z</time>
      </trkpt>
      <trkpt lat="46.431953525170684" lon="8.388844728469849">
        <ele>1874.71</ele>
        <time>2015-08-09T12:46:34Z</time>
      </trkpt>
      <trkpt lat="46.431945227086544" lon="8.38886090554297">
        <ele>1874.71</ele>
        <time>2015-08-09T12:46:35Z</time>
      </trkpt>
      <trkpt lat="46.431931648403406" lon="8.388875909149647">
        <ele>1874.71</ele>
        <time>2015-08-09T12:46:36Z</time>
      </trkpt>
      <trkpt lat="46.431918991729617" lon="8.388886721804738">
        <ele>1874.71</ele>
        <time>2015-08-09T12:46:37Z</time>
      </trkpt>
      <trkpt lat="46.431908011436462" lon="8.388895941898227">
        <ele>1874.23</ele>
        <time>2015-08-09T12:46:38Z</time>
      </trkpt>
      <trkpt lat="46.431894516572356" lon="8.388906922191382">
        <ele>1874.23</ele>
        <time>2015-08-09T12:46:39Z</time>
      </trkpt>
      <trkpt lat="46.431882530450821" lon="8.388918405398727">
        <ele>1874.23</ele>
        <time>2015-08-09T12:46:40Z</time>
      </trkpt>
      <trkpt lat="46.431871885433793" lon="8.388931313529611">
        <ele>1874.23</ele>
        <time>2015-08-09T12:46:41Z</time>
      </trkpt>
      <trkpt lat="46.431858642026782" lon="8.388940617442131">
        <ele>1873.75</ele>
        <time>2015-08-09T12:46:42Z</time>
      </trkpt>
      <trkpt lat="46.431771721690893" lon="8.389025526121259">
        <ele>1873.75</ele>
        <time>2015-08-09T12:46:50Z</time>
      </trkpt>
      <trkpt lat="46.431764597073197" lon="8.389044888317585">
        <ele>1873.27</ele>
        <time>2015-08-09T12:46:51Z</time>
      </trkpt>
      <trkpt lat="46.431758226826787" lon="8.389066262170672">
        <ele>1873.27</ele>
        <time>2015-08-09T12:46:52Z</time>
      </trkpt>
      <trkpt lat="46.431748503819108" lon="8.38908713310957">
        <ele>1872.79</ele>
        <time>2015-08-09T12:46:53Z</time>
      </trkpt>
      <trkpt lat="46.431733835488558" lon="8.389102388173342">
        <ele>1872.79</ele>
        <time>2015-08-09T12:46:54Z</time>
      </trkpt>
      <trkpt lat="46.431601233780384" lon="8.389286203309894">
        <ele>1870.8599999999999</ele>
        <time>2015-08-09T12:47:07Z</time>
      </trkpt>
      <trkpt lat="46.431498974561691" lon="8.389425845816732">
        <ele>1869.4200000000001</ele>
        <time>2015-08-09T12:47:17Z</time>
      </trkpt>
      <trkpt lat="46.431390345096588" lon="8.389569511637092">
        <ele>1867.98</ele>
        <time>2015-08-09T12:47:28Z</time>
      </trkpt>
      <trkpt lat="46.431271908804774" lon="8.389708148315549">
        <ele>1865.5799999999999</ele>
        <time>2015-08-09T12:47:39Z</time>
      </trkpt>
      <trkpt lat="46.431140983477235" lon="8.38986991904676">
        <ele>1862.6900000000001</ele>
        <time>2015-08-09T12:47:51Z</time>
      </trkpt>
      <trkpt lat="46.431059427559376" lon="8.389967903494835">
        <ele>1860.77</ele>
        <time>2015-08-09T12:48:01Z</time>
      </trkpt>
      <trkpt lat="46.430954150855541" lon="8.390084747225046">
        <ele>1859.3299999999999</ele>
        <time>2015-08-09T12:48:12Z</time>
      </trkpt>
      <trkpt lat="46.430844264104962" lon="8.390255738049746">
        <ele>1859.3299999999999</ele>
        <time>2015-08-09T12:48:24Z</time>
      </trkpt>
      <trkpt lat="46.430729515850544" lon="8.390374761074781">
        <ele>1858.3699999999999</ele>
        <time>2015-08-09T12:48:35Z</time>
      </trkpt>
      <trkpt lat="46.43059004098177" lon="8.390474086627364">
        <ele>1857.8900000000001</ele>
        <time>2015-08-09T12:48:46Z</time>
      </trkpt>
      <trkpt lat="46.430562799796462" lon="8.390517923980951">
        <ele>1857.4000000000001</ele>
        <time>2015-08-09T12:48:49Z</time>
      </trkpt>
      <trkpt lat="46.430556010454893" lon="8.390534268692136">
        <ele>1857.4000000000001</ele>
        <time>2015-08-09T12:48:50Z</time>
      </trkpt>
      <trkpt lat="46.430451069027185" lon="8.390673324465752">
        <ele>1857.4000000000001</ele>
        <time>2015-08-09T12:49:01Z</time>
      </trkpt>
      <trkpt lat="46.430316120386124" lon="8.390847500413656">
        <ele>1856.4400000000001</ele>
        <time>2015-08-09T12:49:14Z</time>
      </trkpt>
      <trkpt lat="46.43030371516943" lon="8.39086040854454">
        <ele>1856.4400000000001</ele>
        <time>2015-08-09T12:49:15Z</time>
      </trkpt>
      <trkpt lat="46.4302949141711" lon="8.390877675265074">
        <ele>1855.96</ele>
        <time>2015-08-09T12:49:16Z</time>
      </trkpt>
      <trkpt lat="46.430188966915011" lon="8.391051851212978">
        <ele>1855.96</ele>
        <time>2015-08-09T12:49:28Z</time>
      </trkpt>
      <trkpt lat="46.430069273337722" lon="8.391188811510801">
        <ele>1855.48</ele>
        <time>2015-08-09T12:49:39Z</time>
      </trkpt>
      <trkpt lat="46.429944718256593" lon="8.391345385462046">
        <ele>1854.52</ele>
        <time>2015-08-09T12:49:51Z</time>
      </trkpt>
      <trkpt lat="46.429801220074296" lon="8.391514616087079">
        <ele>1854.52</ele>
        <time>2015-08-09T12:50:04Z</time>
      </trkpt>
      <trkpt lat="46.429672725498676" lon="8.391640931367874">
        <ele>1854.04</ele>
        <time>2015-08-09T12:50:15Z</time>
      </trkpt>
      <trkpt lat="46.429554959759116" lon="8.39177755638957">
        <ele>1853.5599999999999</ele>
        <time>2015-08-09T12:50:26Z</time>
      </trkpt>
      <trkpt lat="46.429488072171807" lon="8.391867913305759">
        <ele>1853.5599999999999</ele>
        <time>2015-08-09T12:50:33Z</time>
      </trkpt>
      <trkpt lat="46.429479857906699" lon="8.391884425655007">
        <ele>1853.5599999999999</ele>
        <time>2015-08-09T12:50:34Z</time>
      </trkpt>
      <trkpt lat="46.42937583848834" lon="8.392060110345483">
        <ele>1853.0799999999999</ele>
        <time>2015-08-09T12:50:46Z</time>
      </trkpt>
      <trkpt lat="46.429249858483672" lon="8.392209643498063">
        <ele>1852.5999999999999</ele>
        <time>2015-08-09T12:50:58Z</time>
      </trkpt>
      <trkpt lat="46.429096888750792" lon="8.392387004569173">
        <ele>1851.6400000000001</ele>
        <time>2015-08-09T12:51:12Z</time>
      </trkpt>
      <trkpt lat="46.428896812722087" lon="8.392510386183858">
        <ele>1851.1600000000001</ele>
        <time>2015-08-09T12:51:27Z</time>
      </trkpt>
      <trkpt lat="46.428730934858322" lon="8.392595211043954">
        <ele>1850.6800000000001</ele>
        <time>2015-08-09T12:51:40Z</time>
      </trkpt>
      <trkpt lat="46.428583916276693" lon="8.39270543307066">
        <ele>1849.71</ele>
        <time>2015-08-09T12:51:53Z</time>
      </trkpt>
      <trkpt lat="46.428422313183546" lon="8.392873154953122">
        <ele>1849.23</ele>
        <time>2015-08-09T12:52:08Z</time>
      </trkpt>
      <trkpt lat="46.428307732567191" lon="8.393050683662295">
        <ele>1848.27</ele>
        <time>2015-08-09T12:52:21Z</time>
      </trkpt>
      <trkpt lat="46.428201869130135" lon="8.393237600103021">
        <ele>1847.79</ele>
        <time>2015-08-09T12:52:34Z</time>
      </trkpt>
      <trkpt lat="46.428098017349839" lon="8.393406579270959">
        <ele>1847.79</ele>
        <time>2015-08-09T12:52:46Z</time>
      </trkpt>
      <trkpt lat="46.428041607141495" lon="8.393648648634553">
        <ele>1847.3099999999999</ele>
        <time>2015-08-09T12:52:59Z</time>
      </trkpt>
      <trkpt lat="46.427948903292418" lon="8.393845204263926">
        <ele>1846.8299999999999</ele>
        <time>2015-08-09T12:53:11Z</time>
      </trkpt>
      <trkpt lat="46.427856618538499" lon="8.394063971936703">
        <ele>1846.3499999999999</ele>
        <time>2015-08-09T12:53:24Z</time>
      </trkpt>
      <trkpt lat="46.427804315462708" lon="8.394247200340033">
        <ele>1845.8699999999999</ele>
        <time>2015-08-09T12:53:34Z</time>
      </trkpt>
      <trkpt lat="46.427750587463379" lon="8.394451551139355">
        <ele>1845.3900000000001</ele>
        <time>2015-08-09T12:53:45Z</time>
      </trkpt>
      <trkpt lat="46.427664924412966" lon="8.394693536683917">
        <ele>1844.9100000000001</ele>
        <time>2015-08-09T12:53:59Z</time>
      </trkpt>
      <trkpt lat="46.427550930529833" lon="8.394919764250517">
        <ele>1844.4300000000001</ele>
        <time>2015-08-09T12:54:14Z</time>
      </trkpt>
      <trkpt lat="46.427454622462392" lon="8.395083881914616">
        <ele>1844.4300000000001</ele>
        <time>2015-08-09T12:54:25Z</time>
      </trkpt>
      <trkpt lat="46.42735336907208" lon="8.395241294056177">
        <ele>1843.95</ele>
        <time>2015-08-09T12:54:36Z</time>
      </trkpt>
      <trkpt lat="46.427260329946876" lon="8.395429467782378">
        <ele>1843.95</ele>
        <time>2015-08-09T12:54:48Z</time>
      </trkpt>
      <trkpt lat="46.427171062678099" lon="8.395677153021097">
        <ele>1843.95</ele>
        <time>2015-08-09T12:55:03Z</time>
      </trkpt>
      <trkpt lat="46.427148599177599" lon="8.395719230175018">
        <ele>1843.95</ele>
        <time>2015-08-09T12:55:06Z</time>
      </trkpt>
      <trkpt lat="46.427144575864077" lon="8.395738089457154">
        <ele>1843.95</ele>
        <time>2015-08-09T12:55:07Z</time>
      </trkpt>
      <trkpt lat="46.427137702703476" lon="8.395755775272846">
        <ele>1843.95</ele>
        <time>2015-08-09T12:55:08Z</time>
      </trkpt>
      <trkpt lat="46.427131248638034" lon="8.395773796364665">
        <ele>1843.95</ele>
        <time>2015-08-09T12:55:09Z</time>
      </trkpt>
      <trkpt lat="46.427124124020338" lon="8.395791063085198">
        <ele>1843.95</ele>
        <time>2015-08-09T12:55:10Z</time>
      </trkpt>
      <trkpt lat="46.427115239202976" lon="8.395803887397051">
        <ele>1843.95</ele>
        <time>2015-08-09T12:55:11Z</time>
      </trkpt>
      <trkpt lat="46.427108198404312" lon="8.395819058641791">
        <ele>1843.95</ele>
        <time>2015-08-09T12:55:12Z</time>
      </trkpt>
      <trkpt lat="46.42710124142468" lon="8.395834313705564">
        <ele>1843.95</ele>
        <time>2015-08-09T12:55:13Z</time>
      </trkpt>
      <trkpt lat="46.427094535902143" lon="8.395849652588368">
        <ele>1843.95</ele>
        <time>2015-08-09T12:55:14Z</time>
      </trkpt>
      <trkpt lat="46.426992863416672" lon="8.396053835749626">
        <ele>1843.95</ele>
        <time>2015-08-09T12:55:27Z</time>
      </trkpt>
      <trkpt lat="46.42692094668746" lon="8.396170092746615">
        <ele>1843.95</ele>
        <time>2015-08-09T12:55:38Z</time>
      </trkpt>
      <trkpt lat="46.42683838494122" lon="8.396314596757293">
        <ele>1843.95</ele>
        <time>2015-08-09T12:55:48Z</time>
      </trkpt>
      <trkpt lat="46.426778370514512" lon="8.396547110751271">
        <ele>1843.95</ele>
        <time>2015-08-09T12:56:01Z</time>
      </trkpt>
      <trkpt lat="46.426695054396987" lon="8.39671902358532">
        <ele>1843.95</ele>
        <time>2015-08-09T12:56:13Z</time>
      </trkpt>
      <trkpt lat="46.426681559532881" lon="8.396766968071461">
        <ele>1843.95</ele>
        <time>2015-08-09T12:56:16Z</time>
      </trkpt>
      <trkpt lat="46.426680302247405" lon="8.39678792282939">
        <ele>1843.95</ele>
        <time>2015-08-09T12:56:17Z</time>
      </trkpt>
      <trkpt lat="46.426676865667105" lon="8.396805776283145">
        <ele>1843.95</ele>
        <time>2015-08-09T12:56:18Z</time>
      </trkpt>
      <trkpt lat="46.426636045798659" lon="8.397057484835386">
        <ele>1843.95</ele>
        <time>2015-08-09T12:56:31Z</time>
      </trkpt>
      <trkpt lat="46.426623724400997" lon="8.39726191945374">
        <ele>1843.47</ele>
        <time>2015-08-09T12:56:42Z</time>
      </trkpt>
      <trkpt lat="46.426577037200332" lon="8.397494601085782">
        <ele>1843.95</ele>
        <time>2015-08-09T12:56:55Z</time>
      </trkpt>
      <trkpt lat="46.426577540114522" lon="8.397740693762898">
        <ele>1842.98</ele>
        <time>2015-08-09T12:57:08Z</time>
      </trkpt>
      <trkpt lat="46.426563961431384" lon="8.39794990606606">
        <ele>1842.98</ele>
        <time>2015-08-09T12:57:20Z</time>
      </trkpt>
      <trkpt lat="46.426538061350584" lon="8.398193903267384">
        <ele>1842.5</ele>
        <time>2015-08-09T12:57:33Z</time>
      </trkpt>
      <trkpt lat="46.426526745781302" lon="8.398413928225637">
        <ele>1842.5</ele>
        <time>2015-08-09T12:57:44Z</time>
      </trkpt>
      <trkpt lat="46.42655348405242" lon="8.398602101951838">
        <ele>1842.5</ele>
        <time>2015-08-09T12:57:55Z</time>
      </trkpt>
      <trkpt lat="46.426603524014354" lon="8.398782648146153">
        <ele>1842.02</ele>
        <time>2015-08-09T12:58:05Z</time>
      </trkpt>
      <trkpt lat="46.42660821788013" lon="8.398797903209925">
        <ele>1842.02</ele>
        <time>2015-08-09T12:58:06Z</time>
      </trkpt>
      <trkpt lat="46.426589023321867" lon="8.399042822420597">
        <ele>1842.02</ele>
        <time>2015-08-09T12:58:18Z</time>
      </trkpt>
      <trkpt lat="46.426583742722869" lon="8.399059418588877">
        <ele>1842.02</ele>
        <time>2015-08-09T12:58:19Z</time>
      </trkpt>
      <trkpt lat="46.426506629213691" lon="8.399327723309398">
        <ele>1841.54</ele>
        <time>2015-08-09T12:58:34Z</time>
      </trkpt>
      <trkpt lat="46.426394898444414" lon="8.399566523730755">
        <ele>1841.0599999999999</ele>
        <time>2015-08-09T12:58:49Z</time>
      </trkpt>
      <trkpt lat="46.426278809085488" lon="8.399737430736423">
        <ele>1840.5799999999999</ele>
        <time>2015-08-09T12:59:01Z</time>
      </trkpt>
      <trkpt lat="46.426256177946925" lon="8.399822926148772">
        <ele>1840.5799999999999</ele>
        <time>2015-08-09T12:59:06Z</time>
      </trkpt>
      <trkpt lat="46.426267577335238" lon="8.39985067024827">
        <ele>1840.0999999999999</ele>
        <time>2015-08-09T12:59:07Z</time>
      </trkpt>
      <trkpt lat="46.426280485466123" lon="8.399874726310372">
        <ele>1840.0999999999999</ele>
        <time>2015-08-09T12:59:08Z</time>
      </trkpt>
      <trkpt lat="46.426290543749928" lon="8.399889729917049">
        <ele>1840.5799999999999</ele>
        <time>2015-08-09T12:59:09Z</time>
      </trkpt>
      <trkpt lat="46.426298087462783" lon="8.399902386590838">
        <ele>1840.0999999999999</ele>
        <time>2015-08-09T12:59:10Z</time>
      </trkpt>
      <trkpt lat="46.426303451880813" lon="8.39991613291204">
        <ele>1840.0999999999999</ele>
        <time>2015-08-09T12:59:11Z</time>
      </trkpt>
      <trkpt lat="46.426311414688826" lon="8.399928119033575">
        <ele>1840.5799999999999</ele>
        <time>2015-08-09T12:59:12Z</time>
      </trkpt>
      <trkpt lat="46.426319628953934" lon="8.399937171489">
        <ele>1840.0999999999999</ele>
        <time>2015-08-09T12:59:13Z</time>
      </trkpt>
      <trkpt lat="46.42644451931119" lon="8.400051584467292">
        <ele>1840.0999999999999</ele>
        <time>2015-08-09T12:59:25Z</time>
      </trkpt>
      <trkpt lat="46.426544599235058" lon="8.40026113204658">
        <ele>1840.5799999999999</ele>
        <time>2015-08-09T12:59:38Z</time>
      </trkpt>
      <trkpt lat="46.426626406610012" lon="8.400433296337724">
        <ele>1840.0999999999999</ele>
        <time>2015-08-09T12:59:49Z</time>
      </trkpt>
      <trkpt lat="46.426631519570947" lon="8.400450395420194">
        <ele>1840.0999999999999</ele>
        <time>2015-08-09T12:59:50Z</time>
      </trkpt>
      <trkpt lat="46.426634537056088" lon="8.400466656312347">
        <ele>1840.5799999999999</ele>
        <time>2015-08-09T12:59:51Z</time>
      </trkpt>
      <trkpt lat="46.426641577854753" lon="8.400479899719358">
        <ele>1840.0999999999999</ele>
        <time>2015-08-09T12:59:52Z</time>
      </trkpt>
      <trkpt lat="46.42674308270216" lon="8.400676120072603">
        <ele>1839.6199999999999</ele>
        <time>2015-08-09T13:00:05Z</time>
      </trkpt>
      <trkpt lat="46.426811227574944" lon="8.400843339040875">
        <ele>1839.6199999999999</ele>
        <time>2015-08-09T13:00:15Z</time>
      </trkpt>
      <trkpt lat="46.426816172897816" lon="8.400879967957735">
        <ele>1839.6199999999999</ele>
        <time>2015-08-09T13:00:17Z</time>
      </trkpt>
      <trkpt lat="46.426819441840053" lon="8.400898743420839">
        <ele>1839.1400000000001</ele>
        <time>2015-08-09T13:00:18Z</time>
      </trkpt>
      <trkpt lat="46.426815837621689" lon="8.400919949635863">
        <ele>1839.6199999999999</ele>
        <time>2015-08-09T13:00:19Z</time>
      </trkpt>
      <trkpt lat="46.426809718832374" lon="8.400942413136363">
        <ele>1839.1400000000001</ele>
        <time>2015-08-09T13:00:20Z</time>
      </trkpt>
      <trkpt lat="46.426801504567266" lon="8.40096278116107">
        <ele>1839.1400000000001</ele>
        <time>2015-08-09T13:00:21Z</time>
      </trkpt>
      <trkpt lat="46.426793960854411" lon="8.40098088607192">
        <ele>1838.6600000000001</ele>
        <time>2015-08-09T13:00:22Z</time>
      </trkpt>
      <trkpt lat="46.426713913679123" lon="8.401158079504967">
        <ele>1837.22</ele>
        <time>2015-08-09T13:00:34Z</time>
      </trkpt>
      <trkpt lat="46.426679715514183" lon="8.401386234909296">
        <ele>1835.29</ele>
        <time>2015-08-09T13:00:46Z</time>
      </trkpt>
      <trkpt lat="46.426644427701831" lon="8.401643307879567">
        <ele>1832.8900000000001</ele>
        <time>2015-08-09T13:00:59Z</time>
      </trkpt>
      <trkpt lat="46.42650755122304" lon="8.401715811342001">
        <ele>1830.97</ele>
        <time>2015-08-09T13:01:10Z</time>
      </trkpt>
      <trkpt lat="46.426449213176966" lon="8.401467623189092">
        <ele>1829.53</ele>
        <time>2015-08-09T13:01:22Z</time>
      </trkpt>
      <trkpt lat="46.426454745233059" lon="8.401195965707302">
        <ele>1827.1199999999999</ele>
        <time>2015-08-09T13:01:35Z</time>
      </trkpt>
      <trkpt lat="46.426433622837067" lon="8.401123965159059">
        <ele>1826.6400000000001</ele>
        <time>2015-08-09T13:01:39Z</time>
      </trkpt>
      <trkpt lat="46.426424821838737" lon="8.40111424215138">
        <ele>1826.6400000000001</ele>
        <time>2015-08-09T13:01:40Z</time>
      </trkpt>
      <trkpt lat="46.426414763554931" lon="8.401109129190445">
        <ele>1826.6400000000001</ele>
        <time>2015-08-09T13:01:41Z</time>
      </trkpt>
      <trkpt lat="46.426402693614364" lon="8.401106363162398">
        <ele>1826.1600000000001</ele>
        <time>2015-08-09T13:01:42Z</time>
      </trkpt>
      <trkpt lat="46.426389031112194" lon="8.401106614619494">
        <ele>1826.1600000000001</ele>
        <time>2015-08-09T13:01:43Z</time>
      </trkpt>
      <trkpt lat="46.426295824348927" lon="8.40124374255538">
        <ele>1824.24</ele>
        <time>2015-08-09T13:01:54Z</time>
      </trkpt>
      <trkpt lat="46.426250142976642" lon="8.401469802483916">
        <ele>1822.3199999999999</ele>
        <time>2015-08-09T13:02:06Z</time>
      </trkpt>
      <trkpt lat="46.426202869042754" lon="8.401722181588411">
        <ele>1819.4300000000001</ele>
        <time>2015-08-09T13:02:20Z</time>
      </trkpt>
      <trkpt lat="46.426227511838078" lon="8.401988558471203">
        <ele>1817.03</ele>
        <time>2015-08-09T13:02:34Z</time>
      </trkpt>
      <trkpt lat="46.426328513771296" lon="8.402264071628451">
        <ele>1813.6600000000001</ele>
        <time>2015-08-09T13:02:49Z</time>
      </trkpt>
      <trkpt lat="46.426356341689825" lon="8.402347136288881">
        <ele>1812.7</ele>
        <time>2015-08-09T13:02:54Z</time>
      </trkpt>
      <trkpt lat="46.426356928423047" lon="8.402369013056159">
        <ele>1812.7</ele>
        <time>2015-08-09T13:02:55Z</time>
      </trkpt>
      <trkpt lat="46.426357431337237" lon="8.402429949492216">
        <ele>1812.22</ele>
        <time>2015-08-09T13:02:58Z</time>
      </trkpt>
      <trkpt lat="46.426351815462112" lon="8.402452748268843">
        <ele>1812.22</ele>
        <time>2015-08-09T13:02:59Z</time>
      </trkpt>
      <trkpt lat="46.426343685016036" lon="8.40247604995966">
        <ele>1811.74</ele>
        <time>2015-08-09T13:03:00Z</time>
      </trkpt>
      <trkpt lat="46.426332872360945" lon="8.402493484318256">
        <ele>1811.74</ele>
        <time>2015-08-09T13:03:01Z</time>
      </trkpt>
      <trkpt lat="46.426323316991329" lon="8.402507649734616">
        <ele>1811.26</ele>
        <time>2015-08-09T13:03:02Z</time>
      </trkpt>
      <trkpt lat="46.426311749964952" lon="8.402518713846803">
        <ele>1811.26</ele>
        <time>2015-08-09T13:03:03Z</time>
      </trkpt>
      <trkpt lat="46.426299680024385" lon="8.402528185397387">
        <ele>1810.78</ele>
        <time>2015-08-09T13:03:04Z</time>
      </trkpt>
      <trkpt lat="46.426285682246089" lon="8.402536734938622">
        <ele>1810.78</ele>
        <time>2015-08-09T13:03:05Z</time>
      </trkpt>
      <trkpt lat="46.426271181553602" lon="8.402542602270842">
        <ele>1810.78</ele>
        <time>2015-08-09T13:03:06Z</time>
      </trkpt>
      <trkpt lat="46.426257351413369" lon="8.402546877041459">
        <ele>1810.3</ele>
        <time>2015-08-09T13:03:07Z</time>
      </trkpt>
      <trkpt lat="46.42624519765377" lon="8.402544530108571">
        <ele>1810.78</ele>
        <time>2015-08-09T13:03:08Z</time>
      </trkpt>
      <trkpt lat="46.426233211532235" lon="8.402540506795049">
        <ele>1810.3</ele>
        <time>2015-08-09T13:03:09Z</time>
      </trkpt>
      <trkpt lat="46.426221057772636" lon="8.402533633634448">
        <ele>1810.3</ele>
        <time>2015-08-09T13:03:10Z</time>
      </trkpt>
      <trkpt lat="46.426208484917879" lon="8.402522569522262">
        <ele>1809.8199999999999</ele>
        <time>2015-08-09T13:03:11Z</time>
      </trkpt>
      <trkpt lat="46.426079068332911" lon="8.402354931458831">
        <ele>1808.8599999999999</ele>
        <time>2015-08-09T13:03:23Z</time>
      </trkpt>
      <trkpt lat="46.425972282886505" lon="8.402195256203413">
        <ele>1807.4200000000001</ele>
        <time>2015-08-09T13:03:34Z</time>
      </trkpt>
      <trkpt lat="46.425840184092522" lon="8.402013368904591">
        <ele>1805.97</ele>
        <time>2015-08-09T13:03:47Z</time>
      </trkpt>
      <trkpt lat="46.425710516050458" lon="8.401844725012779">
        <ele>1804.53</ele>
        <time>2015-08-09T13:04:01Z</time>
      </trkpt>
      <trkpt lat="46.425566347315907" lon="8.401947654783726">
        <ele>1802.6099999999999</ele>
        <time>2015-08-09T13:04:13Z</time>
      </trkpt>
      <trkpt lat="46.425455454736948" lon="8.402147898450494">
        <ele>1800.6900000000001</ele>
        <time>2015-08-09T13:04:26Z</time>
      </trkpt>
      <trkpt lat="46.42540130764246" lon="8.402366917580366">
        <ele>1798.76</ele>
        <time>2015-08-09T13:04:38Z</time>
      </trkpt>
      <trkpt lat="46.425394434481859" lon="8.402600353583694">
        <ele>1796.8399999999999</ele>
        <time>2015-08-09T13:04:50Z</time>
      </trkpt>
      <trkpt lat="46.425394183024764" lon="8.402620134875178">
        <ele>1796.3599999999999</ele>
        <time>2015-08-09T13:04:51Z</time>
      </trkpt>
      <trkpt lat="46.425392674282193" lon="8.402639329433441">
        <ele>1796.3599999999999</ele>
        <time>2015-08-09T13:04:52Z</time>
      </trkpt>
      <trkpt lat="46.425390997901559" lon="8.402656512334943">
        <ele>1796.3599999999999</ele>
        <time>2015-08-09T13:04:53Z</time>
      </trkpt>
      <trkpt lat="46.425389405339956" lon="8.402674365788698">
        <ele>1795.8800000000001</ele>
        <time>2015-08-09T13:04:54Z</time>
      </trkpt>
      <trkpt lat="46.425382951274514" lon="8.402913501486182">
        <ele>1793.96</ele>
        <time>2015-08-09T13:05:06Z</time>
      </trkpt>
      <trkpt lat="46.425374569371343" lon="8.403119528666139">
        <ele>1792.03</ele>
        <time>2015-08-09T13:05:18Z</time>
      </trkpt>
      <trkpt lat="46.425485545769334" lon="8.403369393199682">
        <ele>1789.6300000000001</ele>
        <time>2015-08-09T13:05:33Z</time>
      </trkpt>
      <trkpt lat="46.425596103072166" lon="8.403576677665114">
        <ele>1787.23</ele>
        <time>2015-08-09T13:05:46Z</time>
      </trkpt>
      <trkpt lat="46.425706576555967" lon="8.40379242785275">
        <ele>1784.8199999999999</ele>
        <time>2015-08-09T13:06:00Z</time>
      </trkpt>
      <trkpt lat="46.425784612074494" lon="8.403996778652072">
        <ele>1783.3800000000001</ele>
        <time>2015-08-09T13:06:12Z</time>
      </trkpt>
      <trkpt lat="46.425776230171323" lon="8.404206829145551">
        <ele>1781.9400000000001</ele>
        <time>2015-08-09T13:06:23Z</time>
      </trkpt>
      <trkpt lat="46.425604987889528" lon="8.404191322624683">
        <ele>1780.5</ele>
        <time>2015-08-09T13:06:36Z</time>
      </trkpt>
      <trkpt lat="46.425444558262825" lon="8.404050506651402">
        <ele>1778.5799999999999</ele>
        <time>2015-08-09T13:06:50Z</time>
      </trkpt>
      <trkpt lat="46.425301898270845" lon="8.403993509709835">
        <ele>1776.1700000000001</ele>
        <time>2015-08-09T13:07:02Z</time>
      </trkpt>
      <trkpt lat="46.425288571044803" lon="8.404003567993641">
        <ele>1775.6900000000001</ele>
        <time>2015-08-09T13:07:03Z</time>
      </trkpt>
      <trkpt lat="46.425279267132282" lon="8.404012117534876">
        <ele>1775.6900000000001</ele>
        <time>2015-08-09T13:07:04Z</time>
      </trkpt>
      <trkpt lat="46.425263676792383" lon="8.404040699824691">
        <ele>1775.6900000000001</ele>
        <time>2015-08-09T13:07:06Z</time>
      </trkpt>
      <trkpt lat="46.425261916592717" lon="8.404060816392303">
        <ele>1775.21</ele>
        <time>2015-08-09T13:07:07Z</time>
      </trkpt>
      <trkpt lat="46.425265520811081" lon="8.404079675674439">
        <ele>1775.21</ele>
        <time>2015-08-09T13:07:08Z</time>
      </trkpt>
      <trkpt lat="46.425271304324269" lon="8.404100546613336">
        <ele>1775.21</ele>
        <time>2015-08-09T13:07:09Z</time>
      </trkpt>
      <trkpt lat="46.42527474090457" lon="8.404119238257408">
        <ele>1774.73</ele>
        <time>2015-08-09T13:07:10Z</time>
      </trkpt>
      <trkpt lat="46.425278428941965" lon="8.404137762263417">
        <ele>1774.73</ele>
        <time>2015-08-09T13:07:11Z</time>
      </trkpt>
      <trkpt lat="46.425282116979361" lon="8.404154106974602">
        <ele>1774.25</ele>
        <time>2015-08-09T13:07:12Z</time>
      </trkpt>
      <trkpt lat="46.425283709540963" lon="8.404168775305152">
        <ele>1774.25</ele>
        <time>2015-08-09T13:07:13Z</time>
      </trkpt>
      <trkpt lat="46.425327798351645" lon="8.404349908232689">
        <ele>1772.3299999999999</ele>
        <time>2015-08-09T13:07:23Z</time>
      </trkpt>
      <trkpt lat="46.425336264073849" lon="8.404366420581937">
        <ele>1771.8499999999999</ele>
        <time>2015-08-09T13:07:24Z</time>
      </trkpt>
      <trkpt lat="46.425384292379022" lon="8.404605975374579">
        <ele>1769.9200000000001</ele>
        <time>2015-08-09T13:07:37Z</time>
      </trkpt>
      <trkpt lat="46.425363924354315" lon="8.404848044738174">
        <ele>1767.52</ele>
        <time>2015-08-09T13:07:49Z</time>
      </trkpt>
      <trkpt lat="46.425259737297893" lon="8.405085168778896">
        <ele>1764.6400000000001</ele>
        <time>2015-08-09T13:08:03Z</time>
      </trkpt>
      <trkpt lat="46.425141552463174" lon="8.405292285606265">
        <ele>1763.2</ele>
        <time>2015-08-09T13:08:17Z</time>
      </trkpt>
      <trkpt lat="46.425158064812422" lon="8.40549579821527">
        <ele>1762.23</ele>
        <time>2015-08-09T13:08:28Z</time>
      </trkpt>
      <trkpt lat="46.425160244107246" lon="8.405646840110421">
        <ele>1761.27</ele>
        <time>2015-08-09T13:08:40Z</time>
      </trkpt>
      <trkpt lat="46.4251643512398" lon="8.405650863423944">
        <ele>1760.3099999999999</ele>
        <time>2015-08-09T13:08:46Z</time>
      </trkpt>
      <trkpt lat="46.425164770334959" lon="8.405640972778201">
        <ele>1759.8299999999999</ele>
        <time>2015-08-09T13:09:08Z</time>
      </trkpt>
      <trkpt lat="46.425145240500569" lon="8.405657820403576">
        <ele>1759.8299999999999</ele>
        <time>2015-08-09T13:09:33Z</time>
      </trkpt>
      <trkpt lat="46.425168123096228" lon="8.405650276690722">
        <ele>1759.8299999999999</ele>
        <time>2015-08-09T13:09:51Z</time>
      </trkpt>
      <trkpt lat="46.42517801374197" lon="8.405651869252324">
        <ele>1759.8299999999999</ele>
        <time>2015-08-09T13:10:08Z</time>
      </trkpt>
      <trkpt lat="46.425156807526946" lon="8.405660586431623">
        <ele>1759.8299999999999</ele>
        <time>2015-08-09T13:10:32Z</time>
      </trkpt>
      <trkpt lat="46.425142306834459" lon="8.40564482845366">
        <ele>1759.8299999999999</ele>
        <time>2015-08-09T13:10:51Z</time>
      </trkpt>
      <trkpt lat="46.425143145024776" lon="8.40563016012311">
        <ele>1759.8299999999999</ele>
        <time>2015-08-09T13:11:13Z</time>
      </trkpt>
      <trkpt lat="46.425151862204075" lon="8.405633177608252">
        <ele>1759.8299999999999</ele>
        <time>2015-08-09T13:11:36Z</time>
      </trkpt>
      <trkpt lat="46.425147755071521" lon="8.405629992485046">
        <ele>1759.8299999999999</ele>
        <time>2015-08-09T13:11:59Z</time>
      </trkpt>
      <trkpt lat="46.425167704001069" lon="8.4056306630373">
        <ele>1759.3499999999999</ele>
        <time>2015-08-09T13:12:18Z</time>
      </trkpt>
      <trkpt lat="46.425152784213424" lon="8.405657988041639">
        <ele>1759.8299999999999</ele>
        <time>2015-08-09T13:12:40Z</time>
      </trkpt>
      <trkpt lat="46.425162507221103" lon="8.405665447935462">
        <ele>1759.8299999999999</ele>
        <time>2015-08-09T13:13:01Z</time>
      </trkpt>
    </trkseg>
  </trk>

</gpx>